Date StartTime U_cm/s V_cm/s W_cm/s Ustd_cm/s Vstd_cm/s Wstd_cm/s Uvar_(cm/s)^2 Vvar_(cm/s)^2 Wvar_(cm/s)^2 KE_(m/s)^2 TurbulentKE_(m/s)^2 HorizWindSpeed_cm/s FrictionSpeec_cm/s DragCoef SpeedOfSound_m/s SonicTemperature_C Pressure_mb 
11/08/2014  00:00:00      -71.133      -32.750       -9.452       11.781       11.964        9.722      138.791      143.129       94.521        0.330        0.019       78.310        4.752        0.004      337.068        8.792      869.012
11/08/2014  00:01:00      -72.364      -16.290      -14.875       14.085       10.219       10.146      198.382      104.418      102.941        0.306        0.020       74.175        8.536        0.013      337.000        8.678      869.026
11/08/2014  00:02:00      -77.559      -15.153       -9.877       11.759       10.402        8.680      138.284      108.212       75.340        0.333        0.016       79.026        6.618        0.007      337.035        8.736      869.026
11/08/2014  00:03:00      -78.026      -14.601      -14.107       10.978        9.389        7.318      120.525       88.154       53.550        0.338        0.013       79.380        4.878        0.004      337.074        8.803      869.025
11/08/2014  00:04:00      -63.015      -15.512      -10.772       10.994        8.440        5.473      120.861       71.239       29.958        0.227        0.011       64.897        4.415        0.005      337.013        8.699      869.025
11/08/2014  00:05:00      -53.961      -24.890       -6.724        9.354        9.259        7.440       87.493       85.733       55.358        0.190        0.011       59.425        4.694        0.006      337.100        8.845      869.037
11/08/2014  00:06:00      -65.258      -20.087      -10.114       11.404        7.417        6.911      130.060       55.005       47.767        0.250        0.012       68.279        4.595        0.005      337.058        8.774      869.055
11/08/2014  00:07:00      -64.916      -30.119      -12.582       12.306        9.016        7.116      151.441       81.290       50.632        0.278        0.014       71.563        3.761        0.003      337.080        8.813      869.071
11/08/2014  00:08:00      -80.561      -29.965      -14.991        8.203        8.471        7.702       67.294       71.757       59.317        0.391        0.010       85.953        3.739        0.002      336.963        8.615      869.067
11/08/2014  00:09:00     -104.262      -36.148      -11.861       11.340       14.254        8.975      128.599      203.167       80.548        0.637        0.021      110.350        5.333        0.002      336.976        8.638      869.061
11/08/2014  00:10:00      -84.052      -63.090       -7.388       39.224       27.844       20.671     1538.502      775.288      427.277        0.692        0.137      105.096       18.106        0.030      336.826        8.390      869.053
11/08/2014  00:11:00      -97.144      -83.532       -6.326       31.335       29.242       18.797      981.878      855.089      353.310        0.932        0.110      128.119       12.930        0.010      336.838        8.407      869.051
11/08/2014  00:12:00     -109.807      -39.354       -3.388       21.091       21.537       17.814      444.838      463.824      317.329        0.742        0.061      116.646       12.052        0.011      336.826        8.388      869.043
11/08/2014  00:13:00     -109.881      -47.877      -14.796       13.042       13.688       12.757      170.083      187.366      162.745        0.755        0.026      119.859        5.117        0.002      336.796        8.339      869.041
11/08/2014  00:14:00     -101.665      -39.781      -10.176        8.825       13.100        6.922       77.883      171.615       47.913        0.616        0.015      109.171        3.311        0.001      336.758        8.275      869.047
11/08/2014  00:15:00     -116.421      -53.827       -8.177       15.852       16.407       12.342      251.302      269.174      152.322        0.860        0.034      128.262        7.880        0.004      336.792        8.332      869.047
11/08/2014  00:16:00     -137.151      -59.137       -9.192       17.366       16.945       12.715      301.570      287.131      161.680        1.157        0.038      149.357        9.727        0.004      336.791        8.331      869.040
11/08/2014  00:17:00     -119.551      -52.620       -6.379       23.366       17.937       15.378      545.947      321.727      236.476        0.910        0.055      130.619       12.902        0.010      336.706        8.188      869.031
11/08/2014  00:18:00     -127.424      -49.354       -2.473       18.510       24.584       15.953      342.621      604.390      254.503        0.994        0.060      136.648       11.516        0.007      336.700        8.178      869.026
11/08/2014  00:19:00     -126.088      -53.907       -6.104       25.515       22.500       19.128      651.006      506.257      365.888        1.018        0.076      137.128       15.450        0.013      336.653        8.099      869.012
11/08/2014  00:20:00     -129.402      -85.972       -3.238       51.329       28.026       20.552     2634.710      785.469      422.385        1.399        0.192      155.358       14.284        0.008      336.701        8.181      868.999
11/08/2014  00:21:00     -118.713      -82.105       -4.800       45.177       25.740       22.889     2040.972      662.557      523.890        1.204        0.161      144.340       24.818        0.030      336.677        8.141      868.994
11/08/2014  00:22:00     -108.681      -70.453        0.271       32.131       31.905       21.038     1032.369     1017.953      442.597        0.963        0.125      129.519       17.853        0.019      336.671        8.131      868.994
11/08/2014  00:23:00      -91.541      -68.887        1.329       42.127       33.252       22.621     1774.721     1105.721      511.691        0.826        0.170      114.566       24.110        0.044      336.673        8.133      868.988
11/08/2014  00:24:00     -121.846      -75.543       -3.898       39.737       31.171       22.111     1579.063      971.652      488.876        1.180        0.152      143.364       19.095        0.018      336.675        8.137      868.976
11/08/2014  00:25:00     -101.848      -85.029        0.948       39.801       30.732       26.995     1584.124      944.431      728.728        1.043        0.163      132.676       22.078        0.028      336.697        8.174      868.970
11/08/2014  00:26:00     -105.805      -74.132       -2.457       54.497       34.951       26.526     2969.901     1221.558      703.646        1.079        0.245      129.191       25.152        0.038      336.643        8.085      868.965
11/08/2014  00:27:00     -106.386      -69.369        4.300       47.014       37.628       25.080     2210.335     1415.885      629.013        1.020        0.213      127.004       21.421        0.028      336.624        8.052      868.945
11/08/2014  00:28:00      -82.293      -60.085        9.607       47.578       42.810       31.345     2263.646     1832.737      982.528        0.778        0.254      101.894       28.167        0.076      336.626        8.054      868.933
11/08/2014  00:29:00     -108.359      -78.679        1.699       36.153       25.196       20.117     1307.004      634.844      404.697        1.014        0.117      133.911       19.453        0.021      336.605        8.022      868.933
11/08/2014  00:30:00      -78.844      -55.922       -3.190       25.646       23.175       15.071      657.732      537.101      227.123        0.539        0.071       96.662       10.636        0.012      336.589        7.993      868.939
11/08/2014  00:31:00     -112.024      -70.165       -1.996       28.908       17.314       19.671      835.659      299.760      386.936        0.950        0.076      132.183       19.528        0.022      336.610        8.030      868.941
11/08/2014  00:32:00     -129.581      -87.418      -11.021       40.553       26.632       23.527     1644.545      709.273      553.505        1.373        0.145      156.311       22.777        0.021      336.657        8.107      868.934
11/08/2014  00:33:00     -126.498      -66.250       -0.042       34.004       24.401       19.952     1156.268      595.386      398.071        1.127        0.107      142.796       20.313        0.020      336.563        7.949      868.942
11/08/2014  00:34:00     -108.732      -75.403      -11.011       28.701       30.424       17.039      823.767      925.622      290.323        0.983        0.102      132.319        3.953        0.001      336.600        8.011      868.937
11/08/2014  00:35:00      -82.710      -55.782       -7.306       33.940       27.439       20.000     1151.898      752.873      400.020        0.615        0.115       99.762       17.331        0.030      336.621        8.047      868.934
11/08/2014  00:36:00     -113.178      -67.075       -6.773       30.188       24.301       13.551      911.312      590.553      183.616        0.952        0.084      131.561       10.153        0.006      336.573        7.966      868.949
11/08/2014  00:37:00      -96.896      -64.946        0.206       38.242       23.814       19.277     1462.417      567.122      371.614        0.800        0.120      116.648       14.231        0.015      336.552        7.931      868.952
11/08/2014  00:38:00      -97.328      -75.809        2.363       40.649       29.511       18.671     1652.303      870.876      348.611        0.905        0.144      123.368       19.036        0.024      336.561        7.946      868.951
11/08/2014  00:39:00      -99.368      -81.990       -1.686       34.144       22.353       17.544     1165.787      499.671      307.789        0.929        0.099      128.827       14.846        0.013      336.584        7.984      868.964
11/08/2014  00:40:00     -100.888      -60.072        4.975       49.128       28.070       23.617     2413.590      787.916      557.778        0.878        0.188      117.419       25.263        0.046      336.661        8.112      868.961
11/08/2014  00:41:00     -148.061      -66.463       -6.428       28.658       20.098       14.903      821.290      403.942      222.113        1.391        0.072      162.294        6.261        0.001      336.700        8.179      868.949
11/08/2014  00:42:00     -143.934      -74.120      -10.494       36.206       24.984       17.109     1310.849      624.188      292.720        1.427        0.111      161.897       15.530        0.009      336.635        8.070      868.945
11/08/2014  00:43:00     -147.032      -77.610      -19.486       19.351       17.444       14.041      374.478      304.292      197.139        1.445        0.044      166.258        6.747        0.002      336.587        7.990      868.941
11/08/2014  00:44:00     -124.917      -88.092       -5.134       32.773       28.018       23.507     1074.081      784.994      552.576        1.290        0.121      152.854       21.137        0.019      336.503        7.849      868.927
11/08/2014  00:45:00     -104.956      -89.136        3.306       45.901       30.842       28.823     2106.884      951.228      830.785        1.143        0.194      137.699       20.937        0.023      336.550        7.927      868.907
11/08/2014  00:46:00      -94.938      -66.727        4.204       39.093       32.120       22.974     1528.275     1031.716      527.799        0.828        0.154      116.042       22.203        0.037      336.583        7.984      868.900
11/08/2014  00:47:00     -106.321      -48.357       -6.436       28.694       21.241       12.603      823.370      451.198      158.846        0.756        0.072      116.801       10.236        0.008      336.567        7.956      868.896
11/08/2014  00:48:00     -117.374      -30.109      -13.423       12.212       14.859       10.510      149.138      220.804      110.466        0.767        0.024      121.174        5.149        0.002      336.634        8.070      868.898
11/08/2014  00:49:00     -131.374      -40.782       -7.795       21.161       14.340       13.161      447.794      205.625      173.225        0.990        0.041      137.558       12.324        0.008      336.730        8.229      868.912
11/08/2014  00:50:00     -135.140      -63.631      -10.912       17.548       14.298       12.082      307.945      204.432      145.986        1.154        0.033      149.371        9.257        0.004      336.710        8.195      868.932
11/08/2014  00:51:00     -135.606      -67.805       -7.914       20.812       16.333       13.734      433.142      266.776      188.618        1.197        0.044      151.613        7.407        0.002      336.656        8.106      868.935
11/08/2014  00:52:00     -101.792      -80.987       -8.609       38.596       24.593       23.409     1489.681      604.812      547.976        0.982        0.132      130.079       17.373        0.018      336.609        8.026      868.940
11/08/2014  00:53:00      -74.631      -56.381        7.495       42.055       30.903       26.648     1768.637      954.994      710.134        0.612        0.172       93.534       23.632        0.064      336.508        7.857      868.953
11/08/2014  00:54:00      -78.510      -72.319        2.065       51.218       35.535       27.417     2623.247     1262.723      751.701        0.802        0.232      106.742       26.824        0.063      336.581        7.979      868.969
11/08/2014  00:55:00      -89.190      -73.657        5.350       58.017       42.586       25.957     3365.996     1813.575      673.788        0.963        0.293      115.672       26.617        0.053      336.530        7.893      868.977
11/08/2014  00:56:00     -110.923      -64.256        3.748       39.669       29.934       31.755     1573.595      896.049     1008.370        0.996        0.174      128.190       25.815        0.041      336.534        7.902      868.980
11/08/2014  00:57:00      -92.722      -76.268        1.255       51.076       40.858       25.623     2608.792     1669.404      656.517        0.967        0.247      120.060       28.697        0.057      336.540        7.912      868.987
11/08/2014  00:58:00     -108.502      -62.576        0.028       43.203       26.958       25.301     1866.500      726.760      640.140        0.946        0.162      125.253       25.013        0.040      336.495        7.835      868.987
11/08/2014  00:59:00     -123.176      -74.824      -10.682       27.978       21.018       21.898      782.766      441.770      479.514        1.129        0.085      144.121       17.726        0.015      336.527        7.890      868.986
11/08/2014  01:00:00     -119.189      -68.030       -8.624       15.052       16.191       13.393      226.558      262.164      179.384        0.979        0.033      137.237        8.999        0.004      336.514        7.867      868.991
11/08/2014  01:01:00     -113.421      -53.799       -2.336       15.815       19.071       12.891      250.121      363.705      166.175        0.827        0.039      125.533       10.893        0.008      336.445        7.752      868.988
11/08/2014  01:02:00     -104.264      -53.201       -9.140       19.913       16.938       13.511      396.508      286.912      182.535        0.733        0.043      117.053       12.167        0.011      336.465        7.786      868.976
11/08/2014  01:03:00     -114.783      -61.671      -10.839       18.834       17.315       12.402      354.732      299.792      153.806        0.895        0.040      130.301        7.431        0.003      336.476        7.803      868.980
11/08/2014  01:04:00     -121.762      -65.500      -11.568       18.561       17.094       11.909      344.495      292.213      141.831        1.001        0.039      138.262        7.695        0.003      336.482        7.813      868.994
11/08/2014  01:05:00     -120.633      -50.618      -12.907       14.751       18.093       10.034      217.581      327.364      100.673        0.896        0.032      130.823        8.842        0.005      336.445        7.752      869.008
11/08/2014  01:06:00      -90.279      -32.964      -13.007       15.117       13.923       11.540      228.511      193.857      133.164        0.498        0.028       96.109        5.322        0.003      336.438        7.741      869.015
11/08/2014  01:07:00      -79.933      -39.696       -9.940       11.873       11.570        9.054      140.963      133.869       81.980        0.421        0.018       89.247        3.155        0.001      336.464        7.784      869.022
11/08/2014  01:08:00     -115.870      -36.190      -16.226       15.615       11.014        9.509      243.837      121.305       90.414        0.773        0.023      121.390        4.220        0.001      336.489        7.825      869.020
11/08/2014  01:09:00     -135.020      -66.281      -13.826        7.171        8.176        7.533       51.424       66.852       56.743        1.149        0.009      150.412        4.101        0.001      336.449        7.757      869.001
11/08/2014  01:10:00     -133.306      -53.781      -13.246       16.664       11.556       11.649      277.704      133.552      135.694        1.069        0.027      143.746       10.472        0.005      336.480        7.809      868.982
11/08/2014  01:11:00     -138.702      -66.714      -16.055       10.409       17.254        9.103      108.344      297.705       82.871        1.222        0.024      153.913        8.220        0.003      336.343        7.582      868.984
11/08/2014  01:12:00     -136.156      -76.092       -9.706       17.469       21.124       12.726      305.154      446.243      161.939        1.267        0.046      155.976        8.255        0.003      336.274        7.465      868.981
11/08/2014  01:13:00      -79.780      -59.819       -5.765       42.356       33.810       20.709     1794.026     1143.143      428.860        0.667        0.168       99.716       22.398        0.050      336.290        7.492      868.980
11/08/2014  01:14:00     -104.993      -86.912       -6.682       30.994       23.912       25.196      960.601      571.775      634.835        1.039        0.108      136.298       18.666        0.019      336.339        7.574      868.985
11/08/2014  01:15:00     -108.052      -69.530       -0.581       26.311       22.179       17.968      692.248      491.902      322.847        0.901        0.075      128.490       15.147        0.014      336.347        7.588      868.995
11/08/2014  01:16:00     -104.259      -63.094       -4.080       22.527       19.047       18.359      507.478      362.795      337.036        0.804        0.060      121.864       11.478        0.009      336.363        7.614      869.015
11/08/2014  01:17:00      -67.505      -42.498        2.042       31.875       17.968       18.724     1016.033      322.850      350.590        0.403        0.084       79.768       17.778        0.050      336.364        7.615      869.029
11/08/2014  01:18:00      -78.469      -44.652        4.119       31.039       16.603       16.655      963.401      275.673      277.375        0.484        0.076       90.284       15.791        0.031      336.375        7.635      869.035
11/08/2014  01:19:00      -79.259      -45.321        0.016       27.822       14.717       13.952      774.051      216.586      194.668        0.476        0.059       91.302       13.369        0.021      336.338        7.572      869.038
11/08/2014  01:20:00      -97.279      -45.512       -6.980       19.831        9.728        8.419      393.281       94.637       70.882        0.607        0.028      107.399        9.167        0.007      336.381        7.645      869.036
11/08/2014  01:21:00     -114.068      -50.985      -13.305        9.402       11.358        7.023       88.392      129.002       49.323        0.803        0.013      124.944        4.901        0.002      336.305        7.518      869.026
11/08/2014  01:22:00     -112.028      -45.200      -17.251       11.301        9.117       10.960      127.703       83.127      120.131        0.761        0.017      120.803        3.797        0.001      336.228        7.387      869.028
11/08/2014  01:23:00     -114.868      -55.610      -15.562       23.493       11.523       10.658      551.914      132.777      113.597        0.866        0.040      127.621       10.720        0.007      336.217        7.371      869.028
11/08/2014  01:24:00      -91.550      -60.673       -8.049       20.165       19.640       15.397      406.643      385.728      237.068        0.658        0.051      109.830       12.924        0.014      336.250        7.425      869.039
11/08/2014  01:25:00      -95.113      -64.397       -7.291       32.889       24.426       13.946     1081.655      596.619      194.479        0.756        0.094      114.863        7.035        0.004      336.312        7.528      869.055
11/08/2014  01:26:00      -78.561      -59.712       -4.337       39.972       24.256       20.953     1597.789      588.378      439.014        0.619        0.131       98.678       17.706        0.032      336.326        7.552      869.067
11/08/2014  01:27:00      -65.170      -46.821       -1.481       38.050       17.068       12.161     1447.811      291.319      147.893        0.416        0.094       80.245        6.195        0.006      336.309        7.523      869.065
11/08/2014  01:28:00      -64.107      -48.679       -5.621       23.148       24.516       17.183      535.817      601.013      295.262        0.397        0.072       80.495       13.526        0.028      336.301        7.511      869.062
11/08/2014  01:29:00      -62.654      -46.865       -1.615       30.208       23.802       17.283      912.500      566.518      298.695        0.395        0.089       78.242       12.749        0.027      336.249        7.424      869.060
11/08/2014  01:30:00      -79.957      -52.994       -2.923       38.713       26.481       20.896     1498.676      701.224      436.654        0.592        0.132       95.925       19.672        0.042      336.225        7.382      869.059
11/08/2014  01:31:00     -105.873      -64.188       -1.438       29.596       18.799       18.244      875.902      353.418      332.850        0.845        0.078      123.812       16.150        0.017      336.223        7.380      869.066
11/08/2014  01:32:00      -89.174      -55.883       -0.015       34.661       22.167       19.263     1201.405      491.367      371.068        0.657        0.103      105.237       18.605        0.031      336.151        7.260      869.067
11/08/2014  01:33:00     -112.649      -64.987       -4.669       19.914       19.029       16.550      396.555      362.098      273.907        0.898        0.052      130.050       10.626        0.007      336.161        7.276      869.073
11/08/2014  01:34:00     -116.362      -70.288       -5.877       29.818       18.948       15.992      889.117      359.034      255.739        1.001        0.075      135.943       10.002        0.005      336.180        7.308      869.063
11/08/2014  01:35:00     -120.385      -57.670      -12.103       13.778       10.581       10.058      189.829      111.961      101.155        0.918        0.020      133.486        4.196        0.001      336.222        7.378      869.070
11/08/2014  01:36:00      -96.133      -47.155      -14.611       12.367       10.752        7.501      152.948      115.609       56.266        0.600        0.016      107.076        4.298        0.002      336.219        7.375      869.084
11/08/2014  01:37:00      -99.272      -46.520       -9.778       12.365       11.232       10.783      152.902      126.154      116.277        0.625        0.020      109.631        5.783        0.003      336.227        7.386      869.101
11/08/2014  01:38:00     -109.707      -43.572      -17.641       12.122       13.928       11.203      146.947      193.978      125.516        0.736        0.023      118.043        7.231        0.004      336.219        7.374      869.101
11/08/2014  01:39:00      -99.135      -70.062       -4.986       25.189       28.176       16.825      634.495      793.875      283.074        0.824        0.086      121.394        4.614        0.001      336.156        7.269      869.083
11/08/2014  01:40:00     -115.331      -91.549       -6.264       29.014       36.481       21.950      841.808     1330.893      481.814        1.219        0.133      147.250       20.665        0.020      336.206        7.352      869.067
11/08/2014  01:41:00      -95.332      -65.896       -8.488       46.515       35.586       24.339     2163.666     1266.329      592.373        0.876        0.201      115.890       18.168        0.025      336.179        7.306      869.066
11/08/2014  01:42:00      -94.907      -87.059        5.828       44.756       37.603       29.634     2003.070     1414.013      878.151        1.046        0.215      128.789       22.816        0.031      336.150        7.258      869.076
11/08/2014  01:43:00     -119.460      -81.277      -16.919       40.208       42.767       23.770     1616.711     1828.990      565.036        1.259        0.201      144.487       14.773        0.010      336.271        7.461      869.074
11/08/2014  01:44:00     -158.588      -56.600      -13.636       21.947       30.630       21.942      481.688      938.186      481.455        1.522        0.095      168.386       11.071        0.004      336.268        7.454      869.062
11/08/2014  01:45:00     -129.392      -57.424       -2.676       34.720       24.845       21.000     1205.466      617.253      441.007        1.115        0.113      141.562       19.582        0.019      336.151        7.261      869.042
11/08/2014  01:46:00     -125.583      -50.691       -3.721       27.744       19.219       15.053      769.715      369.361      226.582        0.986        0.068      135.427       13.905        0.011      336.106        7.185      869.030
11/08/2014  01:47:00     -106.785      -59.124       -4.839       21.210       22.868       16.240      449.844      522.942      263.751        0.808        0.062      122.061       10.714        0.008      336.120        7.209      869.027
11/08/2014  01:48:00      -85.767      -60.974       -3.255       27.111       21.726       19.840      734.979      472.033      393.635        0.634        0.080      105.232       14.456        0.019      336.154        7.264      869.023
11/08/2014  01:49:00      -68.782      -53.871        4.955       33.606       29.658       20.393     1129.395      879.570      415.857        0.504        0.121       87.367       18.775        0.046      336.099        7.173      869.024
11/08/2014  01:50:00     -107.632      -73.164       -6.924       35.290       27.156       22.754     1245.409      737.451      517.749        0.974        0.125      130.144       21.648        0.028      336.127        7.220      869.020
11/08/2014  01:51:00      -98.395      -53.612        0.570       40.216       28.125       22.887     1617.347      790.992      523.819        0.774        0.147      112.053       19.850        0.031      336.136        7.235      869.012
11/08/2014  01:52:00     -104.791      -66.617       -7.898       51.260       27.526       21.824     2627.603      757.675      476.296        0.967        0.193      124.173       19.425        0.024      336.113        7.197      869.003
11/08/2014  01:53:00     -108.611      -58.015        2.801       41.777       25.671       21.730     1745.325      658.994      472.183        0.902        0.144      123.135       17.143        0.019      336.074        7.131      869.016
11/08/2014  01:54:00      -89.177      -56.698       -7.222       40.281       21.740       16.787     1622.561      472.636      281.808        0.680        0.119      105.675       10.097        0.009      336.059        7.106      869.022
11/08/2014  01:55:00      -89.491      -62.770        0.552       28.683       19.206       16.718      822.721      368.859      279.505        0.671        0.074      109.310       15.078        0.019      336.034        7.064      869.036
11/08/2014  01:56:00      -68.714      -41.174        1.328       35.971       23.866       16.913     1293.947      569.565      286.060        0.428        0.107       80.106       16.660        0.043      336.003        7.012      869.049
11/08/2014  01:57:00      -96.479      -36.157       -7.659       12.638       13.934       11.080      159.718      194.158      122.775        0.558        0.024      103.032        3.806        0.001      336.035        7.067      869.064
11/08/2014  01:58:00     -120.097      -43.676      -10.717       13.693       23.990       13.865      187.487      575.528      192.247        0.870        0.048      127.793        7.515        0.003      336.075        7.132      869.058
11/08/2014  01:59:00     -113.850      -38.404       -5.216       25.178       21.318       17.966      633.945      454.454      322.766        0.794        0.071      120.153       15.115        0.016      335.972        6.960      869.052
11/08/2014  02:00:00     -102.216      -40.689        0.076       25.303       17.927       13.988      640.238      321.382      195.672        0.663        0.058      110.017       13.947        0.016      335.948        6.920      869.056
11/08/2014  02:01:00      -87.028      -34.328       -0.892       33.104       26.521       19.183     1095.859      703.344      368.001        0.546        0.108       93.554       17.179        0.034      336.017        7.036      869.065
11/08/2014  02:02:00      -98.473      -39.801       -3.468       22.063       18.088       12.873      486.795      327.184      165.703        0.614        0.049      106.212        7.935        0.006      336.033        7.062      869.073
11/08/2014  02:03:00     -115.904      -51.253      -10.719       11.711       14.217       10.221      137.153      202.114      104.479        0.831        0.022      126.730        3.961        0.001      336.105        7.183      869.073
11/08/2014  02:04:00     -116.558      -42.030      -13.150       12.117       16.103        9.705      146.817      259.317       94.184        0.801        0.025      123.904        6.052        0.002      336.140        7.242      869.062
11/08/2014  02:05:00     -114.856      -58.976       -9.631       13.099       13.364       10.723      171.595      178.607      114.986        0.861        0.023      129.113        6.687        0.003      336.146        7.252      869.051
11/08/2014  02:06:00     -103.681      -58.346       -3.911       23.205       16.303       12.971      538.458      265.798      168.240        0.757        0.049      118.970       10.606        0.008      336.048        7.088      869.056
11/08/2014  02:07:00      -45.508      -42.543        4.219       38.968       24.109       14.591     1518.535      581.257      212.904        0.311        0.116       62.297       15.351        0.061      336.013        7.030      869.066
11/08/2014  02:08:00      -41.353      -32.427        5.920       36.325       23.428       18.906     1319.525      548.892      357.437        0.251        0.111       52.551       18.779        0.128      336.017        7.035      869.069
11/08/2014  02:09:00      -60.050      -68.477        2.302       38.124       33.340       21.338     1453.434     1111.538      455.289        0.566        0.151       91.077       18.660        0.042      336.196        7.335      869.077
11/08/2014  02:10:00      -75.359      -50.151        4.759       41.947       31.679       25.851     1759.572     1003.584      668.268        0.582        0.172       90.522       26.524        0.086      336.109        7.189      869.086
11/08/2014  02:11:00     -104.338      -70.485       -1.110       38.159       25.446       18.650     1456.073      647.513      347.829        0.915        0.123      125.915       18.901        0.023      336.054        7.098      869.096
11/08/2014  02:12:00     -109.555      -52.220       -0.410       34.832       22.898       19.458     1213.301      524.299      378.623        0.842        0.106      121.364       19.038        0.025      335.953        6.928      869.099
11/08/2014  02:13:00     -126.827      -46.469      -11.851       18.265       15.382       12.204      333.626      236.593      148.942        0.955        0.036      135.072       10.720        0.006      336.034        7.065      869.095
11/08/2014  02:14:00     -102.240      -33.476      -11.243       19.069       15.101        9.977      363.637      228.034       99.540        0.620        0.035      107.581        7.909        0.005      336.005        7.015      869.098
11/08/2014  02:15:00     -112.970      -31.069      -11.646       15.997       16.917       11.008      255.912      286.169      121.175        0.726        0.033      117.164        6.989        0.004      336.029        7.055      869.093
11/08/2014  02:16:00     -127.141      -39.627      -18.582       14.815       11.803       11.766      219.483      139.318      138.432        0.929        0.025      133.173        7.403        0.003      336.119        7.207      869.073
11/08/2014  02:17:00     -112.848      -40.146      -14.588       13.934       13.778       10.484      194.155      189.843      109.910        0.753        0.025      119.776        4.575        0.001      336.037        7.070      869.058
11/08/2014  02:18:00     -128.884      -32.923      -15.842       14.993       12.402       12.175      224.786      153.804      148.242        0.924        0.026      133.022        8.931        0.005      336.025        7.049      869.046
11/08/2014  02:19:00     -126.604      -53.420      -13.368       17.899        9.741       10.796      320.390       94.881      116.548        0.980        0.027      137.413        9.197        0.004      336.017        7.036      869.037
11/08/2014  02:20:00     -112.918      -65.055       -8.618       23.081       17.467       14.663      532.756      305.106      215.011        0.905        0.053      130.318       12.084        0.009      336.010        7.026      869.031
11/08/2014  02:21:00     -134.170      -42.574       -8.910       16.926       17.205       11.397      286.477      296.009      129.894        1.030        0.036      140.762       11.092        0.006      335.994        6.998      869.030
11/08/2014  02:22:00     -109.683      -31.486       -5.649       18.700       20.984       16.973      349.696      440.348      288.080        0.707        0.054      114.113       13.250        0.013      335.938        6.902      869.041
11/08/2014  02:23:00      -98.401      -17.460      -10.245       21.890       14.555       14.370      479.180      211.835      206.488        0.549        0.045       99.938       10.404        0.011      335.932        6.894      869.049
11/08/2014  02:24:00      -95.783      -29.842       -5.898       16.475       17.844       13.596      271.441      318.424      184.862        0.544        0.039      100.324       10.461        0.011      335.942        6.909      869.044
11/08/2014  02:25:00     -110.393      -47.649       -6.582       20.415       15.489       12.694      416.769      239.923      161.127        0.766        0.041      120.238        8.313        0.005      335.861        6.776      869.046
11/08/2014  02:26:00     -115.205      -43.234       -7.018       22.106       23.472       14.392      488.694      550.939      207.131        0.822        0.062      123.050       12.061        0.010      335.901        6.843      869.044
11/08/2014  02:27:00      -80.672      -47.001       -3.793       29.048       14.940       10.392      843.799      223.198      107.983        0.495        0.059       93.365        7.810        0.007      335.900        6.843      869.045
11/08/2014  02:28:00      -65.328      -48.164       -1.624       21.195       15.563       14.493      449.219      242.215      210.040        0.375        0.045       81.164       11.679        0.021      335.977        6.969      869.043
11/08/2014  02:29:00      -89.418      -41.449       -7.890       17.294       16.532       14.330      299.068      273.312      205.345        0.528        0.039       98.557        2.123        0.000      335.953        6.929      869.025
11/08/2014  02:30:00      -80.567      -55.290       -5.327       24.144       20.863       16.965      582.937      435.261      287.801        0.544        0.065       97.714       12.253        0.016      335.920        6.875      869.000
11/08/2014  02:31:00      -67.041      -48.863       -3.771       37.832       26.752       21.422     1431.270      715.669      458.899        0.475        0.130       82.959       20.403        0.060      335.932        6.895      868.998
11/08/2014  02:32:00      -68.391      -63.366       -4.515       33.693       37.564       21.964     1135.235     1411.063      482.425        0.587        0.151       93.234       19.772        0.045      335.912        6.861      869.020
11/08/2014  02:33:00      -88.921      -53.751       -3.941       26.297       19.339       15.168      691.511      373.999      230.065        0.605        0.065      103.904       13.270        0.016      335.979        6.972      869.034
11/08/2014  02:34:00     -106.807      -52.293       -8.599       16.601       14.631       10.214      275.580      214.071      104.325        0.741        0.030      118.922        7.963        0.004      336.020        7.041      869.016
11/08/2014  02:35:00     -103.256      -44.923       -0.954       19.266       17.075       11.668      371.166      291.558      136.152        0.674        0.040      112.604       11.171        0.010      335.892        6.826      869.003
11/08/2014  02:36:00     -121.114      -56.215       -3.788       15.128       12.464        9.619      228.853      155.341       92.525        0.916        0.024      133.524        7.392        0.003      335.907        6.851      868.993
11/08/2014  02:37:00     -113.004      -65.425       -2.219       19.307       18.215       12.617      372.766      331.780      159.186        0.896        0.043      130.577        8.638        0.004      335.932        6.894      868.982
11/08/2014  02:38:00      -89.663      -62.730       -7.717       24.523       23.493       16.707      601.401      551.938      279.132        0.673        0.072      109.428       11.543        0.011      335.886        6.820      868.992
11/08/2014  02:39:00      -49.444      -50.865        7.763       37.116       24.393       22.414     1377.582      595.019      502.395        0.378        0.124       70.936       17.913        0.064      335.921        6.877      869.002
11/08/2014  02:40:00      -79.755      -79.055       -6.289       49.461       32.464       24.737     2446.429     1053.940      611.923        0.838        0.206      112.297       24.497        0.048      335.974        6.964      868.994
11/08/2014  02:41:00      -58.868      -65.808        1.218       33.196       34.906       19.289     1101.979     1218.407      372.050        0.524        0.135       88.296       17.826        0.041      335.957        6.936      868.974
11/08/2014  02:42:00      -65.167      -48.216        1.912       28.189       20.859       13.312      794.601      435.094      177.220        0.399        0.070       81.065       11.095        0.019      336.005        7.016      868.975
11/08/2014  02:43:00      -16.996      -27.901        7.000       30.898       12.296       14.961      954.679      151.202      223.819        0.122        0.066       32.670       11.847        0.131      336.004        7.014      868.978
11/08/2014  02:44:00      -33.670      -62.937        1.753       26.647       23.222       19.228      710.065      539.251      369.727        0.336        0.081       71.377       19.473        0.074      335.895        6.834      868.974
11/08/2014  02:45:00      -58.228      -39.951       -3.110       22.986       20.306       16.510      528.370      412.315      272.585        0.310        0.061       70.616       14.632        0.043      335.901        6.843      868.970
11/08/2014  02:46:00      -26.259      -22.681        4.234       19.047       13.761        9.129      362.801      189.363       83.347        0.093        0.032       34.699        8.383        0.058      335.893        6.829      868.967
11/08/2014  02:47:00      -31.606      -19.838        4.016       23.233       12.775       13.250      539.749      163.213      175.561        0.114        0.044       37.316       14.093        0.143      335.838        6.738      868.973
11/08/2014  02:48:00      -13.636      -30.051        9.673       28.543       23.228       17.091      814.683      539.539      292.109        0.141        0.082       33.000       20.507        0.386      335.822        6.712      868.976
11/08/2014  02:49:00      -52.315      -36.036        0.028       28.975       19.012       15.610      839.541      361.463      243.657        0.274        0.072       63.526       14.301        0.051      335.829        6.724      868.978
11/08/2014  02:50:00      -58.361      -39.503       -1.378       24.787       17.277       13.537      614.403      298.501      183.253        0.303        0.055       70.473        5.493        0.006      335.862        6.777      868.978
11/08/2014  02:51:00      -41.464      -12.440       -4.629       13.135       11.833        9.222      172.538      140.012       85.048        0.115        0.020       43.290        7.394        0.029      335.860        6.777      868.969
11/08/2014  02:52:00      -45.380      -14.160        0.985       14.711       12.674        9.830      216.424      160.631       96.634        0.137        0.024       47.537        8.048        0.029      335.896        6.835      868.976
11/08/2014  02:53:00      -15.471      -16.268        6.135       24.884       12.388       10.940      619.215      153.475      119.690        0.072        0.045       22.450        9.057        0.163      335.895        6.832      868.976
11/08/2014  02:54:00      -61.546      -24.433       -4.225       13.359       12.780       10.664      178.466      163.326      113.713        0.243        0.023       66.219        3.486        0.003      335.783        6.647      868.960
11/08/2014  02:55:00      -86.962      -35.556       -4.105       18.112       13.959       11.735      328.050      194.847      137.703        0.475        0.033       93.950        9.748        0.011      335.696        6.503      868.939
11/08/2014  02:56:00     -103.143      -46.230      -14.760        9.183       13.248        8.850       84.322      175.498       78.329        0.667        0.017      113.030        2.922        0.001      335.642        6.414      868.914
11/08/2014  02:57:00     -103.298      -36.259      -15.961        8.003       11.019        7.048       64.052      121.423       49.669        0.624        0.012      109.477        3.478        0.001      335.662        6.446      868.894
11/08/2014  02:58:00     -107.658      -32.559      -10.635       17.633       13.576       10.740      310.931      184.312      115.353        0.669        0.031      112.474        8.689        0.006      335.612        6.362      868.886
11/08/2014  02:59:00     -110.502      -45.159       -5.860       19.673       16.888       11.808      387.035      285.210      139.432        0.755        0.041      119.374       11.008        0.009      335.518        6.205      868.871
11/08/2014  03:00:00      -95.093      -60.702        1.592       38.217       23.743       17.352     1460.573      563.735      301.104        0.753        0.116      112.816       14.321        0.016      335.510        6.192      868.861
11/08/2014  03:01:00     -126.265      -63.189       -4.458       23.433       16.692       11.845      549.100      278.630      140.301        1.046        0.048      141.194        8.012        0.003      335.605        6.352      868.858
11/08/2014  03:02:00      -44.895      -26.417        9.851       42.171       21.927       19.893     1778.428      480.794      395.734        0.273        0.133       52.091       20.238        0.151      335.532        6.227      868.859
11/08/2014  03:03:00      -66.150      -38.841       -4.001       27.552       19.809       18.767      759.123      392.383      352.196        0.370        0.075       76.710       13.283        0.030      335.514        6.198      868.861
11/08/2014  03:04:00      -87.569      -52.563       -4.287       13.566       15.118       10.880      184.048      228.542      118.374        0.549        0.027      102.133        7.272        0.005      335.509        6.190      868.858
11/08/2014  03:05:00      -62.719      -42.725       -3.300       25.762       11.495       13.480      663.657      132.144      181.711        0.337        0.049       75.889       13.384        0.031      335.605        6.351      868.855
11/08/2014  03:06:00      -40.487      -28.871        1.166       28.614       21.361       15.618      818.787      456.292      243.915        0.200        0.076       49.727       17.438        0.123      335.550        6.258      868.859
11/08/2014  03:07:00      -22.033      -34.684       10.328       40.248       19.687       22.517     1619.919      387.582      507.035        0.215        0.126       41.090       22.973        0.313      335.574        6.299      868.868
11/08/2014  03:08:00      -57.886      -99.145       10.127       57.413       52.454       32.265     3296.198     2751.467     1041.026        1.018        0.354      114.806       36.689        0.102      335.645        6.415      868.871
11/08/2014  03:09:00     -114.697      -96.837       -8.169       44.688       41.790       27.388     1997.043     1746.384      750.112        1.355        0.225      150.109       24.412        0.026      335.532        6.228      868.866
11/08/2014  03:10:00      -95.624      -94.939       -2.231       53.399       46.611       30.952     2851.420     2172.611      958.045        1.207        0.299      134.749       36.563        0.074      335.528        6.223      868.858
11/08/2014  03:11:00      -99.477     -102.603        0.463       44.102       45.451       27.757     1944.944     2065.835      770.465        1.260        0.239      142.909       26.213        0.034      335.551        6.259      868.870
11/08/2014  03:12:00      -84.112      -71.255       -1.568       30.492       26.405       17.877      929.752      697.235      319.577        0.705        0.097      110.237        6.919        0.004      335.539        6.241      868.880
11/08/2014  03:13:00     -102.390      -54.349       -3.813       30.243       21.291       16.767      914.622      453.301      281.143        0.755        0.082      115.921        9.674        0.007      335.566        6.287      868.880
11/08/2014  03:14:00      -65.152      -36.582       -0.475       25.414       18.944       15.805      645.885      358.877      249.807        0.342        0.063       74.720       10.221        0.019      335.559        6.273      868.884
11/08/2014  03:15:00      -47.217      -37.538        7.273       30.107       19.328       17.660      906.418      373.559      311.881        0.264        0.080       60.321       16.731        0.077      335.554        6.266      868.890
11/08/2014  03:16:00      -83.711      -64.701       -4.010       28.174       21.695       15.992      793.796      470.654      255.737        0.636        0.076      105.801       12.361        0.014      335.519        6.206      868.904
11/08/2014  03:17:00      -65.478      -53.297        3.890       34.975       30.838       16.276     1223.272      950.980      264.921        0.479        0.122       84.427       17.245        0.042      335.518        6.206      868.904
11/08/2014  03:18:00      -59.543      -44.858        2.940       35.758       21.554       16.464     1278.650      464.591      271.065        0.379        0.101       74.549       14.149        0.036      335.466        6.116      868.890
11/08/2014  03:19:00      -63.978      -53.411        7.083       36.790       32.818       20.397     1353.484     1077.032      416.044        0.492        0.142       83.342       17.811        0.046      335.454        6.097      868.870
11/08/2014  03:20:00      -61.699      -41.821        3.154       51.844       28.485       22.960     2687.753      811.420      527.153        0.480        0.201       74.537       27.172        0.133      335.434        6.065      868.846
11/08/2014  03:21:00      -58.004      -41.874        9.412       38.769       25.496       19.512     1503.048      650.055      380.731        0.387        0.127       71.540       20.088        0.079      335.388        5.987      868.830
11/08/2014  03:22:00      -82.397      -45.499       -0.066       25.015       21.600       16.527      625.737      466.551      273.157        0.511        0.068       94.125       13.455        0.020      335.372        5.961      868.823
11/08/2014  03:23:00      -79.729      -21.219       -5.001       18.209       17.785       11.256      331.567      316.295      126.692        0.380        0.039       82.504        8.572        0.011      335.376        5.968      868.815
11/08/2014  03:24:00      -81.444      -12.544       -1.301       19.018       15.062       14.203      361.684      226.862      201.734        0.379        0.040       82.405       11.030        0.018      335.322        5.878      868.825
11/08/2014  03:25:00      -98.881      -15.365       -7.234       15.668       13.924       14.477      245.498      193.874      209.574        0.536        0.032      100.068       11.058        0.012      335.386        5.984      868.835
11/08/2014  03:26:00      -74.191       -5.393        1.478       29.336       17.561       14.903      860.620      308.389      222.093        0.346        0.070       74.387       16.093        0.047      335.423        6.045      868.828
11/08/2014  03:27:00      -90.217      -28.422       -8.758        9.874        9.373        8.163       97.492       87.852       66.630        0.464        0.013       94.588        5.296        0.003      335.475        6.135      868.821
11/08/2014  03:28:00      -79.206      -29.021       -5.345       13.926       12.198       10.561      193.937      148.802      111.545        0.380        0.023       84.355        7.904        0.009      335.436        6.067      868.816
11/08/2014  03:29:00     -110.300      -31.367       -5.463       14.570       18.132        8.397      212.290      328.781       70.512        0.690        0.031      114.674        4.730        0.002      335.302        5.845      868.811
11/08/2014  03:30:00     -109.031      -18.979      -14.044       18.622       13.943       10.779      346.790      194.411      116.189        0.655        0.033      110.671        8.018        0.005      335.231        5.727      868.801
11/08/2014  03:31:00      -75.353      -29.093       -5.904       30.420       21.065       13.029      925.362      443.723      169.762        0.405        0.077       80.774       15.193        0.035      335.245        5.751      868.797
11/08/2014  03:32:00      -28.554      -34.981        6.676       31.422       19.334       16.295      987.325      373.820      265.537        0.185        0.081       45.156       15.211        0.113      335.164        5.616      868.815
11/08/2014  03:33:00      -95.888      -45.465       -9.430       22.564       20.083       14.240      509.127      403.309      202.770        0.623        0.056      106.120       11.531        0.012      335.208        5.688      868.824
11/08/2014  03:34:00      -61.724      -30.378        3.000       30.581       30.344       15.694      935.204      920.763      246.311        0.342        0.105       68.794       16.856        0.060      335.147        5.587      868.829
11/08/2014  03:35:00      -83.145      -39.063       -3.651       26.959       17.184       16.684      726.767      295.278      278.367        0.488        0.065       91.864       15.831        0.030      335.227        5.720      868.832
11/08/2014  03:36:00      -79.410      -70.010       -5.397       21.735       30.977       17.073      472.392      959.586      291.485        0.648        0.086      105.865        8.240        0.006      335.414        6.032      868.828
11/08/2014  03:37:00      -82.673      -80.167        2.084       29.065       34.828       19.129      844.797     1212.989      365.913        0.784        0.121      115.159       13.920        0.015      335.447        6.086      868.837
11/08/2014  03:38:00      -93.236      -92.291       -4.500       32.516       34.563       23.156     1057.287     1194.602      536.218        1.001        0.139      131.190       20.043        0.023      335.484        6.148      868.844
11/08/2014  03:39:00     -102.589      -65.181       -0.085       40.888       24.846       19.396     1671.845      617.337      376.194        0.872        0.133      121.544       20.100        0.027      335.444        6.082      868.850
11/08/2014  03:40:00      -54.104      -36.046        7.424       36.681       25.687       16.107     1345.466      659.843      259.450        0.327        0.113       65.011       19.252        0.088      335.407        6.019      868.851
11/08/2014  03:41:00      -56.529      -30.792       -0.264       26.300       27.384       17.350      691.664      749.871      301.034        0.294        0.087       64.371       14.616        0.052      335.407        6.018      868.860
11/08/2014  03:42:00      -54.654      -51.404       -9.776       29.305       16.074       13.732      858.770      258.364      188.571        0.352        0.065       75.030        9.409        0.016      335.440        6.074      868.873
11/08/2014  03:43:00      -68.248      -41.636      -10.043       23.527       16.572       13.416      553.512      274.631      179.988        0.375        0.050       79.946       12.536        0.025      335.458        6.104      868.886
11/08/2014  03:44:00      -78.994      -47.930       -7.789       16.586       21.897       13.107      275.098      479.467      171.805        0.476        0.046       92.398        6.960        0.006      335.435        6.067      868.881
11/08/2014  03:45:00     -108.817      -53.974       -4.989       18.037       16.969       10.945      325.350      287.946      119.789        0.776        0.037      121.467        7.678        0.004      335.428        6.054      868.877
11/08/2014  03:46:00      -79.084      -30.048        1.925       32.257       18.393       13.821     1040.514      338.304      191.011        0.437        0.078       84.600        9.466        0.013      335.362        5.945      868.885
11/08/2014  03:47:00      -60.372      -24.191       -1.932       20.289       17.971       12.472      411.654      322.940      155.557        0.256        0.045       65.038        9.933        0.023      335.358        5.938      868.903
11/08/2014  03:48:00      -27.402      -21.950        5.721       19.973       11.925       10.642      398.916      142.217      113.250        0.096        0.033       35.109        9.859        0.079      335.398        6.004      868.913
11/08/2014  03:49:00       -9.816      -15.558       12.332       18.683       16.667       12.192      349.070      277.781      148.655        0.063        0.039       18.396        9.275        0.254      335.381        5.978      868.916
11/08/2014  03:50:00      -11.764      -15.455       11.657       24.613       10.847       12.731      605.812      117.659      162.075        0.070        0.044       19.423       14.552        0.561      335.305        5.849      868.918
11/08/2014  03:51:00      -56.082      -19.523        0.257       11.347       12.569        7.301      128.760      157.989       53.301        0.193        0.017       59.383        5.923        0.010      335.268        5.787      868.920
11/08/2014  03:52:00       -8.815      -17.955        3.271       22.685       12.402       11.846      514.622      153.804      140.339        0.061        0.040       20.003        6.338        0.100      335.244        5.748      868.930
11/08/2014  03:53:00       -4.908      -22.985       -4.656       14.906        9.698       10.440      222.203       94.045      108.998        0.050        0.021       23.503        6.553        0.078      335.374        5.963      868.949
11/08/2014  03:54:00      -40.424      -24.784       -2.153       14.760       14.459       10.979      217.871      209.070      120.535        0.140        0.027       47.417        8.319        0.031      335.415        6.032      868.961
11/08/2014  03:55:00      -67.428      -37.300       -8.429       15.846       10.187       11.306      251.092      103.769      127.833        0.325        0.024       77.057        6.748        0.008      335.362        5.944      868.957
11/08/2014  03:56:00      -74.758      -42.051        1.415       27.936       18.039       14.139      780.406      325.390      199.900        0.433        0.065       85.773       17.996        0.044      335.290        5.825      868.956
11/08/2014  03:57:00     -103.760      -63.498        0.277       22.388       20.522       19.396      501.201      421.136      376.223        0.805        0.065      121.648       13.767        0.013      335.213        5.697      868.943
11/08/2014  03:58:00      -62.260      -44.595        7.126       38.908       25.913       21.412     1513.829      671.463      458.490        0.428        0.132       76.583       14.831        0.038      335.184        5.650      868.944
11/08/2014  03:59:00      -64.934      -42.033       -4.910       30.370       20.871       19.041      922.346      435.613      362.577        0.386        0.086       77.351       16.674        0.046      335.189        5.656      868.952
11/08/2014  04:00:00      -82.620      -47.684       -2.739       23.156       19.771       15.455      536.199      390.893      238.861        0.514        0.058       95.393       11.883        0.016      335.220        5.708      868.957
11/08/2014  04:01:00      -84.762      -63.569       -1.359       29.339       26.521       18.020      860.798      703.358      324.708        0.656        0.094      105.951       16.209        0.023      335.313        5.863      868.958
11/08/2014  04:02:00      -80.080      -49.051       -2.807       23.611       17.844       13.404      557.462      318.395      179.658        0.494        0.053       93.909       10.196        0.012      335.317        5.870      868.954
11/08/2014  04:03:00     -100.346      -35.539       -4.684       19.054       16.136       11.064      363.057      260.386      122.408        0.605        0.037      106.454        8.253        0.006      335.284        5.814      868.952
11/08/2014  04:04:00      -94.061      -32.282       -7.687       13.778       11.721       10.276      189.829      137.373      105.595        0.519        0.022       99.446        8.097        0.007      335.176        5.634      868.941
11/08/2014  04:05:00      -91.905      -19.505       -6.341        9.818       13.073        7.877       96.401      170.891       62.054        0.460        0.016       93.952        3.677        0.002      335.163        5.613      868.945
11/08/2014  04:06:00      -73.432      -15.364      -10.195       22.196       14.720        9.949      492.664      216.684       98.976        0.327        0.040       75.022        9.110        0.015      335.204        5.680      868.956
11/08/2014  04:07:00      -94.734      -31.788      -11.233       13.161       13.804       10.144      173.213      190.551      102.894        0.529        0.023       99.925        5.570        0.003      335.212        5.694      868.955
11/08/2014  04:08:00     -102.625      -22.025      -11.472       16.767       15.163       11.726      281.126      229.920      137.503        0.590        0.032      104.962        9.691        0.009      335.145        5.585      868.946
11/08/2014  04:09:00     -111.582      -16.376      -10.967       21.878       11.753       11.395      478.640      138.124      129.848        0.679        0.037      112.777       11.352        0.010      335.104        5.517      868.952
11/08/2014  04:10:00      -97.727      -27.688       -9.152       20.975       13.079       12.237      439.953      171.063      149.753        0.558        0.038      101.573        8.523        0.007      335.119        5.541      868.970
11/08/2014  04:11:00      -59.849      -26.528       -0.527       23.683       14.852       14.987      560.867      220.568      224.600        0.265        0.050       65.465       13.276        0.041      335.113        5.533      868.999
11/08/2014  04:12:00      -60.304      -26.876        0.093       20.257       18.462       13.124      410.360      340.859      172.227        0.264        0.046       66.022       13.636        0.043      335.158        5.605      869.026
11/08/2014  04:13:00      -89.196      -11.354       -8.770       19.805       16.415       11.927      392.245      269.467      142.249        0.448        0.040       89.916        9.311        0.011      335.102        5.514      869.048
11/08/2014  04:14:00     -109.715      -21.581      -11.873       15.998       13.210       12.738      255.946      174.496      162.250        0.662        0.030      111.817        8.798        0.006      335.071        5.463      869.053
11/08/2014  04:15:00      -87.026      -31.861        1.304       25.976       19.577       13.731      674.765      383.248      188.535        0.492        0.062       92.675       13.665        0.022      335.063        5.449      869.061
11/08/2014  04:16:00      -92.933      -30.841       -4.262       18.917       14.106       13.278      357.864      198.985      176.315        0.517        0.037       97.917        9.916        0.010      335.087        5.488      869.076
11/08/2014  04:17:00     -101.727      -45.170       -7.918       13.443        9.676        8.194      180.709       93.626       67.143        0.640        0.017      111.305        3.561        0.001      335.118        5.538      869.081
11/08/2014  04:18:00      -89.580      -31.847       -2.432       10.807       11.283       12.185      116.793      127.312      148.467        0.472        0.020       95.072        7.802        0.007      335.131        5.562      869.097
11/08/2014  04:19:00      -91.319      -36.988       -0.532       21.668       16.826       13.735      469.516      283.099      188.654        0.532        0.047       98.525       12.269        0.016      335.137        5.571      869.092
11/08/2014  04:20:00      -80.591      -30.170        4.078       29.425       18.701       15.580      865.806      349.710      242.724        0.444        0.073       86.053       17.212        0.040      335.099        5.509      869.092
11/08/2014  04:21:00      -93.019      -12.347       -0.626       24.080       12.591       15.112      579.832      158.538      228.370        0.489        0.048       93.835       14.477        0.024      335.072        5.464      869.089
11/08/2014  04:22:00     -114.574      -18.065      -11.038       23.052       15.017       12.712      531.398      225.504      161.600        0.725        0.046      115.990       12.493        0.012      335.086        5.487      869.088
11/08/2014  04:23:00     -131.896      -31.813      -18.963        7.548       10.448        7.984       56.974      109.164       63.744        0.950        0.011      135.678        1.271        0.000      335.028        5.390      869.092
11/08/2014  04:24:00      -99.244      -33.124      -10.498       21.459       18.224       13.555      460.478      332.110      183.741        0.602        0.049      104.626       13.065        0.016      335.026        5.387      869.104
11/08/2014  04:25:00     -106.026      -14.949       -9.849       19.461       10.172       14.691      378.724      103.476      215.840        0.613        0.035      107.075       13.771        0.017      334.883        5.151      869.109
11/08/2014  04:26:00     -104.629      -23.630      -12.667       11.896       15.222        8.216      141.503      231.723       67.496        0.605        0.022      107.264        6.423        0.004      334.985        5.318      869.111
11/08/2014  04:27:00      -76.823      -32.146      -11.274       14.968       14.023       12.824      224.051      196.640      164.462        0.382        0.029       83.277        9.346        0.013      334.967        5.289      869.109
11/08/2014  04:28:00      -82.502      -37.316      -10.503        9.823       12.854        5.962       96.494      165.216       35.544        0.430        0.015       90.549        2.608        0.001      334.968        5.291      869.113
11/08/2014  04:29:00      -93.157      -41.040      -12.165       11.011        9.365        7.336      121.242       87.708       53.810        0.539        0.013      101.796        5.187        0.003      334.975        5.304      869.107
11/08/2014  04:30:00     -103.964      -45.919      -10.973        7.475        9.969        6.225       55.871       99.375       38.746        0.662        0.010      113.654        2.298        0.000      334.955        5.268      869.093
11/08/2014  04:31:00     -102.431      -46.104       -8.690        9.928       12.395        7.113       98.574      153.624       50.599        0.650        0.015      112.329        5.099        0.002      334.971        5.296      869.102
11/08/2014  04:32:00      -84.346      -41.947       -7.823       11.876       12.538        8.006      141.034      157.193       64.091        0.465        0.018       94.201        5.475        0.003      334.996        5.338      869.116
11/08/2014  04:33:00      -96.667      -44.342      -11.210       12.091       14.869        8.492      146.181      221.083       72.107        0.594        0.022      106.352        6.931        0.004      334.990        5.328      869.131
11/08/2014  04:34:00      -88.912      -45.231       -1.731       18.584       15.171       12.953      345.357      230.151      167.787        0.535        0.037       99.756        9.132        0.008      334.904        5.185      869.131
11/08/2014  04:35:00      -95.507      -36.886       -5.787       15.401       18.702       12.803      237.204      349.751      163.920        0.563        0.038      102.382        7.194        0.005      334.899        5.176      869.136
11/08/2014  04:36:00      -85.216      -31.406      -14.597       11.449       10.238        7.982      131.077      104.809       63.713        0.438        0.015       90.819        2.841        0.001      334.961        5.279      869.134
11/08/2014  04:37:00      -94.555      -35.936       -7.940       16.412       15.311        9.995      269.353      234.442       99.901        0.545        0.030      101.153        7.561        0.006      334.943        5.250      869.129
11/08/2014  04:38:00     -101.741      -36.909       -0.176       22.668       19.537       13.620      513.833      381.710      185.493        0.640        0.054      108.229       12.477        0.013      334.890        5.161      869.137
11/08/2014  04:39:00     -110.889      -26.879       -9.010       27.116       16.487       18.265      735.299      271.837      333.594        0.722        0.067      114.100       11.382        0.010      334.856        5.103      869.145
11/08/2014  04:40:00     -111.219      -21.874      -12.905       18.258       16.702       12.853      333.366      278.954      165.203        0.690        0.039      113.350       10.199        0.008      334.835        5.069      869.151
11/08/2014  04:41:00     -109.517      -27.854      -11.727       19.983       15.870       14.364      399.304      251.858      206.333        0.688        0.043      113.003       11.225        0.010      334.836        5.071      869.154
11/08/2014  04:42:00     -112.781      -34.747      -11.780       19.795       15.895       11.927      391.856      252.653      142.242        0.743        0.039      118.012        9.777        0.007      334.859        5.110      869.165
11/08/2014  04:43:00     -131.614      -36.786      -18.961       10.560       12.733       10.408      111.516      162.135      108.335        0.971        0.019      136.658        5.613        0.002      334.849        5.092      869.174
11/08/2014  04:44:00     -110.252      -31.818       -8.871       22.217       21.034       14.418      493.603      442.425      207.873        0.719        0.057      114.751       12.975        0.013      334.856        5.106      869.177
11/08/2014  04:45:00     -102.608      -44.897       -9.166       15.423       16.925        8.859      237.880      286.453       78.474        0.662        0.030      112.001        5.324        0.002      334.797        5.006      869.181
11/08/2014  04:46:00     -109.082      -40.419       -3.546       22.309       18.625       12.316      497.676      346.878      151.692        0.727        0.050      116.330       11.046        0.009      334.821        5.047      869.184
11/08/2014  04:47:00     -101.266      -34.803       -2.515       51.676       21.908       20.463     2670.452      479.956      418.720        0.752        0.178      107.080       26.300        0.060      334.881        5.146      869.192
11/08/2014  04:48:00      -99.722      -44.075        0.603       27.237       25.216       17.109      741.832      635.845      292.724        0.678        0.084      109.028       12.657        0.013      334.891        5.164      869.203
11/08/2014  04:49:00     -107.634      -26.053       -2.856       28.233       19.338       17.611      797.106      373.949      310.131        0.688        0.074      110.742       13.209        0.014      334.785        4.986      869.199
11/08/2014  04:50:00     -100.126      -33.105       -5.601       31.818       20.564       14.232     1012.358      422.883      202.548        0.639        0.082      105.457       16.598        0.025      334.813        5.033      869.192
11/08/2014  04:51:00     -115.223      -16.552      -11.306       26.255       17.083       15.193      689.329      291.824      230.839        0.744        0.061      116.406       13.804        0.014      334.777        4.974      869.194
11/08/2014  04:52:00     -121.453      -30.677      -14.225       22.272       17.360       15.251      496.054      301.385      232.581        0.846        0.052      125.268       10.542        0.007      334.788        4.993      869.201
11/08/2014  04:53:00      -90.941      -26.837       -5.955       22.205       24.979       15.309      493.055      623.964      234.362        0.519        0.068       94.819       13.409        0.020      334.793        5.000      869.204
11/08/2014  04:54:00     -109.894      -42.942       -5.256       19.760       25.842       14.358      390.471      667.789      206.141        0.761        0.063      117.986       10.549        0.008      334.769        4.960      869.211
11/08/2014  04:55:00     -106.065      -16.457       -8.192       38.360       28.990       19.723     1471.476      840.420      389.003        0.714        0.135      107.334       19.835        0.034      334.759        4.945      869.216
11/08/2014  04:56:00     -111.800      -43.066       -7.670       29.755       33.038       20.969      885.353     1091.527      439.709        0.841        0.121      119.808       15.642        0.017      334.833        5.066      869.221
11/08/2014  04:57:00      -96.733      -48.893      -12.026       23.226       18.875       14.880      539.424      356.252      221.414        0.650        0.056      108.387        4.243        0.002      334.805        5.021      869.234
11/08/2014  04:58:00      -79.330      -51.772       -5.932       42.652       25.539       16.524     1819.160      652.216      273.031        0.588        0.137       94.729       11.150        0.014      334.801        5.013      869.245
11/08/2014  04:59:00      -20.582      -18.557        6.616       26.538       22.862       18.222      704.242      522.656      332.053        0.119        0.078       27.712       12.665        0.209      334.826        5.054      869.249
11/08/2014  05:00:00     -118.370      -42.711        0.480       48.315       18.814       18.188     2334.342      353.952      330.812        0.943        0.151      125.840       23.188        0.034      334.866        5.122      869.245
11/08/2014  05:01:00     -118.421      -35.980       -2.766       13.625       14.278       11.073      185.647      203.854      122.605        0.792        0.026      123.766        7.236        0.003      334.837        5.072      869.240
11/08/2014  05:02:00      -90.936      -33.662       -6.950       12.353       10.254        6.219      152.606      105.137       38.673        0.487        0.015       96.966        3.793        0.002      334.800        5.012      869.242
11/08/2014  05:03:00      -45.477      -39.529       -3.161       27.814       16.380       10.768      773.606      268.316      115.945        0.240        0.058       60.256       10.621        0.031      334.988        5.326      869.238
11/08/2014  05:04:00      -51.072      -38.265       -0.735       22.336       14.048       11.522      498.907      197.355      132.763        0.245        0.041       63.816       12.910        0.041      335.054        5.434      869.241
11/08/2014  05:05:00      -72.423      -42.480       -5.138       15.584       10.202       11.290      242.870      104.088      127.458        0.378        0.024       83.962        7.444        0.008      335.031        5.395      869.242
11/08/2014  05:06:00      -62.014      -38.957       -8.932       18.247        9.357        8.899      332.957       87.560       79.192        0.297        0.025       73.235        6.023        0.007      335.054        5.434      869.256
11/08/2014  05:07:00      -49.344      -33.283       -5.579       16.593       13.308       11.855      275.336      177.116      140.548        0.208        0.030       59.520        9.340        0.025      335.046        5.421      869.263
11/08/2014  05:08:00      -42.117      -39.084        0.863       30.459       17.041       17.108      927.773      290.380      292.684        0.241        0.076       57.458       14.391        0.063      335.074        5.467      869.269
11/08/2014  05:09:00      -64.832      -43.576        3.250       37.019       31.550       20.426     1370.404      995.428      417.218        0.445        0.139       78.116       21.219        0.074      335.176        5.636      869.269
11/08/2014  05:10:00      -58.261      -50.823        2.562       39.220       29.654       19.292     1538.215      879.370      372.170        0.439        0.139       77.313       19.723        0.065      335.206        5.684      869.278
11/08/2014  05:11:00      -79.318      -70.031        4.143       48.674       43.936       23.114     2369.159     1930.381      534.236        0.802        0.242      105.809       19.274        0.033      335.110        5.526      869.285
11/08/2014  05:12:00     -106.817      -70.335       -7.979       33.566       42.114       27.655     1126.664     1773.551      764.779        1.004        0.183      127.894       23.030        0.032      335.020        5.377      869.285
11/08/2014  05:13:00     -115.481      -84.910      -14.421       33.994       29.077       16.977     1155.609      845.501      288.220        1.152        0.114      143.337       13.478        0.009      335.052        5.431      869.290
11/08/2014  05:14:00     -125.332      -67.561       -7.487       41.769       33.415       20.266     1744.669     1116.568      410.699        1.180        0.164      142.382       13.818        0.009      335.122        5.545      869.280
11/08/2014  05:15:00     -130.477      -66.795       -1.980       30.414       23.163       18.020      924.986      536.532      324.726        1.164        0.089      146.581       16.869        0.013      334.971        5.297      869.272
11/08/2014  05:16:00      -87.137      -63.004       -1.586       32.935       25.552       21.698     1084.713      652.911      470.821        0.689        0.110      107.528       11.254        0.011      334.927        5.222      869.274
11/08/2014  05:17:00     -100.847      -52.052       -5.392       19.043       20.244       17.146      362.620      409.830      293.973        0.699        0.053      113.488       13.117        0.013      334.924        5.219      869.300
11/08/2014  05:18:00     -101.031      -58.680       -3.505       26.965       24.416       13.238      727.135      596.146      175.238        0.758        0.075      116.835        8.617        0.005      334.910        5.194      869.311
11/08/2014  05:19:00     -105.344      -48.528       -2.815       25.842       24.621       16.715      667.785      606.189      279.378        0.751        0.078      115.984       14.534        0.016      334.917        5.206      869.302
11/08/2014  05:20:00     -100.054      -54.302       -1.211       25.766       29.885       19.892      663.883      893.112      395.689        0.746        0.098      113.840       18.042        0.025      334.839        5.075      869.293
11/08/2014  05:21:00      -87.434      -50.456       -1.203       33.683       26.462       18.560     1134.561      700.248      344.479        0.619        0.109      100.948       15.075        0.022      334.869        5.127      869.284
11/08/2014  05:22:00     -111.169      -57.161       -4.207       19.981       16.551       12.225      399.260      273.936      149.446        0.823        0.041      125.003        8.854        0.005      334.825        5.052      869.276
11/08/2014  05:23:00      -94.382      -29.476       -3.367       18.948       19.907       10.468      359.016      396.304      109.583        0.533        0.043       98.877        5.185        0.003      334.794        5.002      869.275
11/08/2014  05:24:00      -82.618      -21.335       -3.344       26.974       16.738       16.001      727.583      280.169      256.031        0.428        0.063       85.328       14.267        0.028      334.724        4.885      869.282
11/08/2014  05:25:00     -103.013      -38.546       -6.052       19.012       15.252       14.189      361.451      232.626      201.327        0.646        0.040      109.989       11.153        0.010      334.797        5.006      869.283
11/08/2014  05:26:00     -101.091      -34.732       -9.128       19.767       19.966       14.739      390.749      398.653      217.232        0.626        0.050      106.891       10.386        0.009      334.806        5.022      869.276
11/08/2014  05:27:00     -107.029      -36.345       -5.345       24.867       22.035       13.232      618.366      485.558      175.078        0.704        0.064      113.032       11.496        0.010      334.847        5.089      869.268
11/08/2014  05:28:00     -117.224      -54.767       -7.464       25.715       17.620       12.584      661.279      310.472      158.369        0.896        0.057      129.387       12.234        0.009      334.861        5.112      869.273
11/08/2014  05:29:00      -68.797      -50.693        4.374       51.343       31.316       23.153     2636.094      980.710      536.075        0.574        0.208       85.456       26.987        0.100      334.843        5.084      869.277
11/08/2014  05:30:00     -117.237      -41.828       -1.888       24.660       30.303       17.187      608.134      918.250      295.384        0.866        0.091      124.476       15.179        0.015      334.824        5.052      869.280
11/08/2014  05:31:00     -100.038      -55.202       -6.224       20.434       18.830       15.919      417.535      354.587      253.411        0.706        0.051      114.257       10.100        0.008      334.755        4.936      869.283
11/08/2014  05:32:00      -90.474      -60.886       -5.258       22.862       20.593       13.655      522.669      424.073      186.461        0.653        0.057      109.053        9.510        0.008      334.754        4.936      869.288
11/08/2014  05:33:00      -90.405      -56.440       -3.818       17.170       19.939       15.538      294.821      397.578      241.442        0.615        0.047      106.576        7.395        0.005      334.718        4.877      869.290
11/08/2014  05:34:00      -82.412      -35.757        0.157       33.599       20.001       16.121     1128.923      400.051      259.901        0.493        0.089       89.835       15.634        0.030      334.731        4.897      869.292
11/08/2014  05:35:00      -95.141      -46.274       -7.936       21.252       14.882       12.375      451.651      221.464      153.130        0.604        0.041      105.798        7.079        0.004      334.730        4.894      869.282
11/08/2014  05:36:00      -81.285      -33.053      -10.787       18.603       11.577       10.843      346.083      134.037      117.581        0.421        0.030       87.749        7.721        0.008      334.723        4.886      869.275
11/08/2014  05:37:00      -84.316      -29.551       -8.203       14.884       16.144       10.587      221.523      260.620      112.079        0.432        0.030       89.344        6.839        0.006      334.722        4.882      869.280
11/08/2014  05:38:00      -78.331      -27.549       -9.181       10.964       10.745        9.482      120.202      115.464       89.913        0.365        0.016       83.035        3.923        0.002      334.724        4.886      869.296
11/08/2014  05:39:00      -70.564      -27.560       -3.929       34.390       10.562       12.446     1182.644      111.565      154.911        0.360        0.072       75.755       13.967        0.034      334.697        4.841      869.314
11/08/2014  05:40:00      -28.181      -26.194        4.750       24.711       23.045       16.377      610.618      531.065      268.208        0.146        0.070       38.475       16.976        0.195      334.724        4.887      869.343
11/08/2014  05:41:00      -92.934      -57.042       -5.572       14.429       25.242       12.556      208.191      637.181      157.645        0.646        0.050      109.044        8.603        0.006      334.814        5.035      869.351
11/08/2014  05:42:00      -97.001      -36.572       -0.740       24.166       21.790       17.646      583.983      474.810      311.370        0.606        0.069      103.666       10.392        0.010      334.827        5.057      869.350
11/08/2014  05:43:00     -110.099      -63.167      -14.680       29.133       22.648       19.332      848.758      512.935      373.732        0.903        0.087      126.932       13.595        0.011      334.802        5.014      869.352
11/08/2014  05:44:00      -97.216      -51.677       -2.926       44.341       32.665       30.020     1966.114     1067.032      901.218        0.803        0.197      110.098       21.171        0.037      334.790        4.994      869.341
11/08/2014  05:45:00     -105.542      -40.508       -6.392       39.198       33.540       21.584     1536.477     1124.906      465.871        0.797        0.156      113.049       14.779        0.017      334.781        4.980      869.333
11/08/2014  05:46:00      -87.225      -48.060       -3.776       38.946       34.688       19.855     1516.791     1203.282      394.241        0.652        0.156       99.589       17.489        0.031      334.765        4.953      869.328
11/08/2014  05:47:00      -82.515      -41.076       -0.974       31.217       17.216       14.437      974.470      296.394      208.430        0.499        0.074       92.173       12.617        0.019      334.794        5.003      869.338
11/08/2014  05:48:00      -65.260      -34.008       -3.066       30.181       19.686       11.413      910.869      387.542      130.259        0.343        0.071       73.589        8.051        0.012      334.816        5.038      869.344
11/08/2014  05:49:00      -71.091      -40.972       -8.639       15.776       15.017       11.788      248.882      225.515      138.958        0.371        0.031       82.052        4.819        0.003      334.795        5.003      869.343
11/08/2014  05:50:00      -73.825      -28.719       -4.859       27.597       14.945       10.979      761.570      223.366      120.528        0.370        0.055       79.214        9.516        0.014      334.799        5.009      869.340
11/08/2014  05:51:00     -108.032      -34.117       -8.460       18.576       18.241       12.243      345.061      332.743      149.890        0.687        0.041      113.291        5.810        0.003      334.802        5.014      869.336
11/08/2014  05:52:00      -70.859      -26.479        3.148       25.206       24.536       14.019      635.319      602.037      196.528        0.358        0.072       75.645       12.476        0.027      334.632        4.733      869.329
11/08/2014  05:53:00     -104.428      -22.906        1.409       34.862       22.300       17.803     1215.342      497.275      316.963        0.673        0.101      106.910       18.614        0.030      334.608        4.692      869.318
11/08/2014  05:54:00      -85.876      -33.131        6.749       35.099       24.141       14.783     1231.913      582.766      218.527        0.528        0.102       92.045       13.623        0.022      334.562        4.617      869.307
11/08/2014  05:55:00     -105.913      -42.806       -5.718       33.392       20.711       16.261     1115.028      428.926      264.429        0.745        0.090      114.236       15.004        0.017      334.614        4.701      869.304
11/08/2014  05:56:00      -87.554      -39.758        1.425       39.008       23.617       20.518     1521.600      557.754      421.007        0.587        0.125       96.158       19.987        0.043      334.613        4.700      869.314
11/08/2014  05:57:00      -75.328      -43.882       -4.552       32.062       21.678       14.082     1027.973      469.918      198.314        0.466        0.085       87.178       12.361        0.020      334.591        4.664      869.330
11/08/2014  05:58:00      -73.938      -22.589        0.932       28.629       19.066       13.186      819.634      363.512      173.874        0.367        0.068       77.311       14.706        0.036      334.596        4.672      869.342
11/08/2014  05:59:00      -75.157      -33.156       -5.985       16.072       24.492       13.308      258.308      599.868      177.110        0.391        0.052       82.145       11.285        0.019      334.585        4.654      869.343
11/08/2014  06:00:00      -48.573      -35.865        4.388       32.998       21.183       16.057     1088.873      448.704      257.819        0.273        0.090       60.379       19.171        0.101      334.642        4.749      869.341
11/08/2014  06:01:00      -59.155      -33.806       -6.576       18.778       20.532       11.275      352.628      421.543      127.125        0.279        0.045       68.133       11.252        0.027      334.616        4.705      869.338
11/08/2014  06:02:00      -78.468      -27.352      -11.988       15.092       12.478        9.773      227.776      155.691       95.507        0.376        0.024       83.099        3.633        0.002      334.603        4.684      869.334
11/08/2014  06:03:00      -73.155      -31.590       -0.123       24.363       23.466       17.542      593.539      550.662      307.710        0.390        0.073       79.684       16.684        0.044      334.618        4.709      869.330
11/08/2014  06:04:00      -66.029      -53.138        0.671       21.548       14.012       16.025      464.309      196.325      256.805        0.405        0.046       84.755       11.392        0.018      334.613        4.702      869.335
11/08/2014  06:05:00      -60.492      -32.877       -2.472       24.371       16.288       14.010      593.926      265.301      196.289        0.290        0.053       68.849       10.346        0.023      334.548        4.593      869.352
11/08/2014  06:06:00      -34.330      -29.038        4.567       32.620       18.819       16.290     1064.037      354.151      265.363        0.186        0.084       44.964       17.924        0.159      334.534        4.569      869.359
11/08/2014  06:07:00      -67.700      -41.617       -3.984       28.124       16.365       13.996      790.937      267.799      195.878        0.379        0.063       79.469        9.573        0.015      334.510        4.530      869.368
11/08/2014  06:08:00      -76.174      -45.783       -2.772       20.244       20.050       14.536      409.820      401.989      211.281        0.446        0.051       88.874       12.298        0.019      334.467        4.459      869.374
11/08/2014  06:09:00      -61.747      -43.677        4.486       22.199       17.243       14.108      492.785      297.328      199.043        0.336        0.049       75.633       12.918        0.029      334.434        4.404      869.378
11/08/2014  06:10:00      -58.974      -31.901        4.062       25.287       17.808       16.734      639.410      317.138      280.011        0.287        0.062       67.049       13.427        0.040      334.500        4.513      869.382
11/08/2014  06:11:00      -42.586      -36.094        9.771       29.079       25.965       20.673      845.569      674.182      427.378        0.258        0.097       55.824       19.370        0.120      334.535        4.571      869.378
11/08/2014  06:12:00      -47.182      -37.874        4.024       38.108       29.523       22.647     1452.250      871.637      512.893        0.326        0.142       60.502       22.414        0.137      334.546        4.589      869.380
11/08/2014  06:13:00      -68.838      -52.075       -3.082       30.467       22.955       18.190      928.240      526.918      330.863        0.462        0.089       86.316       20.635        0.057      334.595        4.671      869.381
11/08/2014  06:14:00      -93.721      -35.039       -5.596       15.604       14.384        8.739      243.496      206.898       76.378        0.528        0.026      100.057        7.261        0.005      334.577        4.641      869.367
11/08/2014  06:15:00      -87.681      -31.126       -8.283       19.943       13.810        7.792      397.729      190.721       60.712        0.469        0.032       93.042        6.176        0.004      334.623        4.717      869.362
11/08/2014  06:16:00      -74.059      -18.121       -0.414       25.342       18.218       15.268      642.238      331.907      233.113        0.351        0.060       76.244       13.312        0.030      334.601        4.682      869.357
11/08/2014  06:17:00      -98.242      -34.369       -5.924       24.102       22.997       13.845      580.922      528.861      191.693        0.608        0.065      104.080       10.197        0.010      334.619        4.711      869.354
11/08/2014  06:18:00     -108.499      -47.255       -8.119       18.737       22.205       10.493      351.060      493.041      110.109        0.751        0.048      118.343        4.022        0.001      334.614        4.702      869.365
11/08/2014  06:19:00      -95.818      -39.802       -2.939       18.658       17.807       13.269      348.109      317.075      176.069        0.581        0.042      103.756       12.101        0.014      334.532        4.566      869.383
11/08/2014  06:20:00     -104.856      -29.299      -11.061       17.172       14.903        9.626      294.863      222.114       92.656        0.629        0.030      108.873        5.181        0.002      334.504        4.521      869.405
11/08/2014  06:21:00      -97.859      -29.160       -6.674       17.250       11.632       12.386      297.572      135.294      153.419        0.553        0.029      102.111        5.141        0.003      334.454        4.438      869.416
11/08/2014  06:22:00      -83.655      -26.543       -5.111       20.804       19.598       14.106      432.797      384.067      198.974        0.437        0.051       87.765       12.311        0.020      334.416        4.374      869.423
11/08/2014  06:23:00      -82.688      -27.382       -4.426       14.875       18.170       13.325      221.252      330.152      177.546        0.417        0.036       87.104        8.441        0.009      334.504        4.521      869.430
11/08/2014  06:24:00      -74.970      -25.733       -4.408       14.351       14.341        9.658      205.960      205.675       93.286        0.340        0.025       79.263        6.412        0.007      334.507        4.525      869.432
11/08/2014  06:25:00      -81.491      -26.118       -5.683       14.706       11.345        9.773      216.259      128.704       95.513        0.390        0.022       85.574        6.106        0.005      334.519        4.545      869.440
11/08/2014  06:26:00      -85.542      -26.299       -3.024       13.671       14.471        8.342      186.909      209.424       69.597        0.424        0.023       89.493        5.595        0.004      334.519        4.544      869.450
11/08/2014  06:27:00      -68.336      -27.744       -2.008       17.964       15.199        9.789      322.705      231.007       95.820        0.305        0.032       73.753        7.966        0.012      334.542        4.583      869.461
11/08/2014  06:28:00      -86.994      -31.693       -4.980        9.155       15.836        9.859       83.816      250.785       97.202        0.451        0.022       92.588        5.929        0.004      334.492        4.502      869.464
11/08/2014  06:29:00      -85.755      -49.621       -8.171       13.414       12.063        9.956      179.935      145.504       99.123        0.515        0.021       99.076        6.710        0.005      334.508        4.527      869.469
11/08/2014  06:30:00      -93.572      -38.821       -2.692       19.637       17.876       11.163      385.609      319.549      124.605        0.555        0.041      101.305        7.629        0.006      334.480        4.482      869.474
11/08/2014  06:31:00      -82.786      -46.604       -2.107       20.558       15.881       12.495      422.641      252.205      156.130        0.493        0.042       95.003        8.955        0.009      334.396        4.341      869.479
11/08/2014  06:32:00      -67.798      -41.584       -1.074       29.771       20.256       18.369      886.304      410.314      337.437        0.398        0.082       79.535       14.670        0.034      334.433        4.404      869.498
11/08/2014  06:33:00      -82.652      -56.137        0.055       25.527       26.472       16.351      651.616      700.779      267.351        0.580        0.081       99.913       15.336        0.024      334.384        4.321      869.506
11/08/2014  06:34:00      -91.152      -52.398       -3.914       36.632       33.534       17.212     1341.873     1124.546      296.258        0.692        0.138      105.139       11.964        0.013      334.491        4.500      869.520
11/08/2014  06:35:00     -100.566      -50.660       -0.371       35.742       31.750       17.669     1277.472     1008.037      312.199        0.764        0.130      112.605       13.144        0.014      334.485        4.488      869.534
11/08/2014  06:36:00      -78.791      -35.699        2.039       25.688       31.343       17.430      659.848      982.365      303.796        0.472        0.097       86.501       13.725        0.025      334.529        4.562      869.550
11/08/2014  06:37:00      -79.500      -26.518       -2.223       23.761       23.725       16.420      564.596      562.879      269.614        0.421        0.070       83.806        5.673        0.005      334.516        4.540      869.561
11/08/2014  06:38:00      -99.141      -41.010      -10.544       21.758       16.655       10.009      473.392      277.385      100.173        0.624        0.043      107.288        8.171        0.006      334.445        4.422      869.567
11/08/2014  06:39:00      -78.297      -41.316       -3.870       20.825       22.185       12.454      433.674      492.189      155.103        0.447        0.054       88.530       11.176        0.016      334.478        4.477      869.570
11/08/2014  06:40:00      -78.580      -37.708       -9.407       10.561       10.155        8.142      111.531      103.116       66.298        0.398        0.014       87.159        4.549        0.003      334.520        4.547      869.576
11/08/2014  06:41:00      -77.715      -33.179       -5.430       10.932        9.215        9.294      119.507       84.910       86.379        0.373        0.015       84.501        3.582        0.002      334.513        4.534      869.572
11/08/2014  06:42:00      -78.804      -32.451       -5.284       20.440       13.252       12.277      417.794      175.611      150.735        0.402        0.037       85.224        9.719        0.013      334.450        4.432      869.574
11/08/2014  06:43:00      -68.425      -46.372       -2.550       22.383       16.606       12.896      501.009      275.757      166.295        0.389        0.047       82.658        5.756        0.005      334.418        4.379      869.578
11/08/2014  06:44:00      -81.844      -31.003       -8.458       14.475       10.559       10.553      209.531      111.501      111.361        0.408        0.022       87.520        5.600        0.004      334.459        4.446      869.587
11/08/2014  06:45:00      -66.103      -25.780       -3.295       13.033       17.652       10.664      169.868      311.586      113.717        0.282        0.030       70.952        7.115        0.010      334.456        4.440      869.607
11/08/2014  06:46:00      -75.089      -11.656       -8.645       19.097       12.829       13.678      364.704      164.578      187.085        0.328        0.036       75.988       11.324        0.022      334.450        4.429      869.630
11/08/2014  06:47:00      -90.157      -10.824       -8.361       24.265       16.640       13.324      588.791      276.894      177.522        0.468        0.052       90.804       12.907        0.020      334.426        4.392      869.644
11/08/2014  06:48:00      -97.248      -26.416       -2.770       27.865       17.883       12.366      776.439      319.805      152.915        0.571        0.062      100.772        9.915        0.010      334.401        4.349      869.656
11/08/2014  06:49:00     -101.239      -39.749       -5.480       17.726       15.213       15.624      314.211      231.432      244.102        0.632        0.039      108.762       10.593        0.009      334.434        4.404      869.665
11/08/2014  06:50:00      -97.685      -46.832       -5.710       24.980       18.621       17.860      624.011      346.743      318.974        0.653        0.064      108.331       16.788        0.024      334.405        4.355      869.670
11/08/2014  06:51:00      -93.465      -34.882       -6.551       22.390       19.424       15.667      501.295      377.274      245.442        0.556        0.056       99.762       11.796        0.014      334.386        4.325      869.677
11/08/2014  06:52:00     -107.395      -40.810      -10.564       18.520       16.837       13.845      342.975      283.488      191.677        0.706        0.041      114.887       10.543        0.008      334.377        4.310      869.686
11/08/2014  06:53:00      -88.134      -22.153       -7.132       26.031       23.417       13.173      677.599      548.340      173.537        0.485        0.070       90.875       11.691        0.017      334.380        4.314      869.689
11/08/2014  06:54:00      -73.665      -34.401       -5.712       13.523       20.987       11.523      182.866      440.457      132.770        0.370        0.038       81.302        8.671        0.011      334.428        4.395      869.694
11/08/2014  06:55:00      -91.350      -21.156      -13.010       12.360       14.913       10.444      152.762      222.412      109.080        0.472        0.024       93.767        5.954        0.004      334.413        4.370      869.695
11/08/2014  06:56:00     -102.947      -43.669      -14.713       12.984       13.079       12.543      168.585      171.070      157.322        0.661        0.025      111.826        9.071        0.007      334.463        4.451      869.697
11/08/2014  06:57:00      -95.834      -53.252      -11.424        8.199       10.865        7.465       67.230      118.046       55.722        0.620        0.012      109.635        4.037        0.001      334.494        4.502      869.702
11/08/2014  06:58:00      -94.858      -48.425      -10.089       17.285       10.337        8.476      298.767      106.849       71.843        0.596        0.024      106.504        6.363        0.004      334.546        4.589      869.705
11/08/2014  06:59:00      -91.577      -53.434       -9.313       20.313       15.271       14.794      412.612      233.201      218.868        0.610        0.043      106.026       10.053        0.009      334.579        4.644      869.704
11/08/2014  07:00:00      -97.472      -51.388       -7.205       15.882       13.451       10.353      252.246      180.937      107.178        0.637        0.027      110.189        8.287        0.006      334.548        4.593      869.702
11/08/2014  07:01:00      -85.670      -48.823       -3.852       13.157       12.949       11.789      173.118      167.666      138.990        0.511        0.024       98.606        7.790        0.006      334.507        4.526      869.710
11/08/2014  07:02:00      -89.310      -42.045      -10.443        9.174       11.632        6.319       84.167      135.312       39.931        0.506        0.013       98.712        5.302        0.003      334.524        4.553      869.726
11/08/2014  07:03:00      -86.777      -37.926      -14.233        8.461        7.738        6.814       71.597       59.879       46.429        0.467        0.009       94.702        2.631        0.001      334.607        4.691      869.748
11/08/2014  07:04:00      -79.090      -40.636       -9.818       11.782       12.447       11.328      138.825      154.927      128.319        0.421        0.021       88.918        4.958        0.003      334.600        4.680      869.762
11/08/2014  07:05:00      -86.104      -28.960       -9.563       14.391       11.070       10.182      207.089      122.535      103.680        0.439        0.022       90.844        5.745        0.004      334.631        4.732      869.765
11/08/2014  07:06:00      -63.915      -31.718       -6.038       15.877        9.595       10.525      252.090       92.065      110.772        0.279        0.023       71.352        9.119        0.016      334.630        4.727      869.774
11/08/2014  07:07:00      -60.438      -35.243       -6.169       12.094       12.065       11.131      146.261      145.565      123.899        0.267        0.021       69.963        7.893        0.013      334.652        4.766      869.769
11/08/2014  07:08:00      -57.014      -26.074       -9.304       19.062       14.136       10.795      363.348      199.830      116.539        0.235        0.034       62.693        3.379        0.003      334.680        4.813      869.747
11/08/2014  07:09:00      -71.467      -30.203       -8.872       16.015        9.227        7.683      256.490       85.135       59.023        0.325        0.020       77.587        6.214        0.006      334.690        4.829      869.747
11/08/2014  07:10:00      -63.816      -29.297      -10.585        8.609       10.455        8.433       74.121      109.297       71.112        0.265        0.013       70.219        4.300        0.004      334.681        4.815      869.744
11/08/2014  07:11:00      -60.177      -23.959       -1.629       10.138       11.361        8.992      102.783      129.082       80.862        0.226        0.016       64.771        5.132        0.006      334.703        4.852      869.756
11/08/2014  07:12:00      -26.596      -19.128        2.837       24.039       12.821       11.488      577.856      164.366      131.965        0.098        0.044       32.760       14.278        0.190      334.757        4.941      869.780
11/08/2014  07:13:00      -15.525      -26.215        6.471       16.333       17.765       15.738      266.752      315.592      247.693        0.090        0.042       30.467       11.460        0.141      334.855        5.103      869.792
11/08/2014  07:14:00      -24.601      -30.567        7.962       19.583       17.957       13.647      383.486      322.464      186.253        0.125        0.045       39.237       14.120        0.130      334.887        5.157      869.816
11/08/2014  07:15:00      -47.869      -36.298        2.809       13.086       25.048       10.461      171.254      627.390      109.425        0.226        0.045       60.075        6.685        0.012      334.790        4.997      869.822
11/08/2014  07:16:00      -55.964      -46.429       -3.383       14.747       12.197        9.789      217.468      148.767       95.822        0.288        0.023       72.716        5.006        0.005      334.874        5.135      869.835
11/08/2014  07:17:00      -71.164      -50.580      -10.522       17.176       13.489        9.919      295.014      181.940       98.385        0.415        0.029       87.308        8.679        0.010      334.893        5.165      869.832
11/08/2014  07:18:00      -46.074      -40.834       -2.028       17.611       15.891       15.612      310.149      252.524      243.728        0.230        0.040       61.565       12.116        0.039      334.896        5.173      869.839
11/08/2014  07:19:00      -38.858      -26.011        3.011       21.537       12.298       13.105      463.842      151.235      171.733        0.149        0.039       46.760       11.411        0.060      334.897        5.173      869.841
11/08/2014  07:20:00      -74.109      -27.447       -8.040       11.768        9.022        6.249      138.475       81.398       39.046        0.328        0.013       79.029        5.722        0.005      334.957        5.272      869.837
11/08/2014  07:21:00      -70.933      -26.866       -6.600        8.605       10.031        7.189       74.043      100.613       51.687        0.301        0.011       75.850        3.179        0.002      334.988        5.326      869.845
11/08/2014  07:22:00      -70.803      -36.507      -13.715       14.062        9.433        7.502      197.736       88.982       56.282        0.344        0.017       79.660        3.934        0.002      334.992        5.331      869.866
11/08/2014  07:23:00      -68.156      -35.331       -7.954        9.362        7.985        7.483       87.648       63.756       55.995        0.308        0.010       76.769        3.175        0.002      334.940        5.244      869.878
11/08/2014  07:24:00      -83.747      -24.357       -5.752        5.669        6.873        4.232       32.137       47.244       17.909        0.387        0.005       87.217        2.325        0.001      335.038        5.408      869.882
11/08/2014  07:25:00      -75.077      -20.817       -7.779       10.173       10.910        4.658      103.494      119.034       21.698        0.319        0.012       77.910        3.846        0.002      335.116        5.539      869.890
11/08/2014  07:26:00      -70.057      -25.902       -5.108        7.214        6.242        5.863       52.044       38.964       34.380        0.287        0.006       74.692        2.729        0.001      335.139        5.576      869.885
11/08/2014  07:27:00      -81.411      -27.750       -7.685        4.389        4.767        3.481       19.260       22.729       12.118        0.376        0.003       86.011        1.523        0.000      335.190        5.657      869.875
11/08/2014  07:28:00      -72.592      -28.875       -8.309       10.087        9.092        5.356      101.754       82.660       28.691        0.319        0.011       78.124        5.390        0.005      335.201        5.677      869.865
11/08/2014  07:29:00      -40.008      -23.565        1.669       20.492       12.319       10.581      419.939      151.756      111.951        0.142        0.034       46.433        8.175        0.031      335.202        5.678      869.864
11/08/2014  07:30:00      -14.543      -10.424        1.828       14.099       13.209       11.475      198.789      174.489      131.681        0.041        0.025       17.892        9.171        0.263      335.337        5.903      869.861
11/08/2014  07:31:00      -21.073      -26.811        2.056       21.983       18.991       16.010      483.266      360.676      256.336        0.113        0.055       34.101       17.143        0.253      335.407        6.019      869.866
11/08/2014  07:32:00      -29.187      -19.675       -1.238       18.624       12.136       12.272      346.863      147.278      150.601        0.094        0.032       35.200        6.360        0.033      335.376        5.968      869.876
11/08/2014  07:33:00      -23.797      -15.373       -0.498       17.154       20.740        8.933      294.272      430.165       79.807        0.080        0.040       28.330        8.844        0.097      335.329        5.889      869.881
11/08/2014  07:34:00      -35.335      -22.850       -5.578       19.952       16.781        9.541      398.077      281.589       91.022        0.129        0.039       42.080        7.588        0.033      335.377        5.970      869.894
11/08/2014  07:35:00      -33.161      -17.901       -3.207       15.574       10.116        9.859      242.562      102.329       97.191        0.094        0.022       37.684        7.261        0.037      335.398        6.003      869.902
11/08/2014  07:36:00      -34.479      -13.468        0.640       11.720        9.032        7.300      137.348       81.578       53.290        0.082        0.014       37.016        6.906        0.035      335.420        6.042      869.916
11/08/2014  07:37:00      -34.559      -16.074       -8.228        8.306        8.692        5.218       68.992       75.557       27.227        0.085        0.009       38.114        2.425        0.004      335.508        6.187      869.913
11/08/2014  07:38:00      -26.063      -22.891       -6.793       12.634        8.846        9.649      159.620       78.248       93.107        0.079        0.017       34.688        5.663        0.027      335.527        6.220      869.906
11/08/2014  07:39:00      -11.842       -5.171        2.972        7.748        5.876        7.363       60.034       34.529       54.207        0.016        0.007       12.922        4.821        0.139      335.766        6.619      869.894
11/08/2014  07:40:00      -18.607       -4.675       -3.079        7.364        4.775        3.829       54.232       22.805       14.665        0.023        0.005       19.186        2.559        0.018      335.651        6.428      869.887
11/08/2014  07:41:00      -17.299       -5.817       -3.765       14.224        6.824        6.919      202.318       46.572       47.866        0.032        0.015       18.251        8.730        0.229      335.701        6.510      869.881
11/08/2014  07:42:00      -17.564      -12.815       -3.463       10.770        9.869        8.348      115.988       97.399       69.691        0.038        0.014       21.742        6.418        0.087      335.764        6.615      869.884
11/08/2014  07:43:00      -20.154       -5.623       -1.483        7.536        8.529        7.388       56.786       72.751       54.586        0.031        0.009       20.924        6.670        0.102      335.758        6.607      869.887
11/08/2014  07:44:00       -3.411      -11.390       -0.984       11.331        9.804        6.250      128.393       96.116       39.063        0.020        0.013       11.890        6.724        0.320      335.939        6.908      869.889
11/08/2014  07:45:00      -10.277       -2.851       -0.233        9.129        7.656        3.730       83.339       58.620       13.915        0.013        0.008       10.665        2.878        0.073      335.944        6.915      869.886
11/08/2014  07:46:00      -18.694       -7.808       -3.710        5.223        7.163        3.942       27.280       51.309       15.536        0.026        0.005       20.259        2.617        0.017      335.858        6.772      869.889
11/08/2014  07:47:00      -26.825      -15.331        1.554        7.486       10.563        5.635       56.039      111.585       31.758        0.058        0.010       30.897        3.131        0.010      335.848        6.755      869.892
11/08/2014  07:48:00      -25.638      -14.242       -2.666        6.136        4.606        5.347       37.646       21.213       28.586        0.048        0.004       29.328        1.904        0.004      335.913        6.862      869.896
11/08/2014  07:49:00      -13.217      -12.117       -2.902        7.317        6.481        8.479       53.535       42.006       71.898        0.025        0.008       17.931        6.407        0.128      335.944        6.914      869.904
11/08/2014  07:50:00      -25.155       -6.256      -18.910       13.756       10.088        8.939      189.224      101.768       79.912        0.070        0.019       25.921        7.107        0.075      336.029        7.057      869.906
11/08/2014  07:51:00      -11.132        4.365       11.070       17.335        9.345       12.786      300.514       87.331      163.477        0.041        0.028       11.957       14.038        1.378      336.300        7.511      869.910
11/08/2014  07:52:00       10.154       31.433       20.777       13.008       15.795       11.759      169.212      249.488      138.266        0.104        0.028       33.032        8.467        0.066      336.211        7.361      869.915
11/08/2014  07:53:00      -15.257       11.942       40.428       11.745       13.702       11.017      137.943      187.733      121.372        0.123        0.022       19.374       11.076        0.327      336.626        8.055      869.932
11/08/2014  07:54:00        1.371       15.738       39.848       11.034       17.284        8.185      121.748      298.722       66.989        0.116        0.024       15.798        7.032        0.198      336.678        8.142      869.939
11/08/2014  07:55:00        5.309       29.677       33.123       17.074       28.388       12.457      291.529      805.860      155.165        0.163        0.063       30.148        9.680        0.103      336.594        8.002      869.946
11/08/2014  07:56:00      -13.759        1.194       19.997       13.034       25.732       11.410      169.896      662.144      130.199        0.078        0.048       13.811       12.274        0.790      336.584        7.985      869.950
11/08/2014  07:57:00      -53.525      -20.386        5.114       23.920       19.073       14.716      572.190      363.787      216.565        0.223        0.058       57.276        9.223        0.026      336.084        7.148      869.958
11/08/2014  07:58:00      -74.668      -22.312       -3.090       22.478       18.019       15.560      505.248      324.690      242.129        0.358        0.054       77.930       13.573        0.030      336.052        7.095      869.958
11/08/2014  07:59:00      -70.403      -13.471        2.410       30.210       21.897       20.297      912.657      479.484      411.961        0.347        0.090       71.680       14.877        0.043      336.092        7.160      869.968
11/08/2014  08:00:00      -55.938      -55.625        1.116       25.202       23.109       16.980      635.145      534.022      288.311        0.384        0.073       78.887       11.603        0.022      336.145        7.250      869.977
11/08/2014  08:01:00      -39.464        7.825        8.610       12.300       14.280       16.266      151.300      203.927      264.596        0.116        0.031       40.232       13.409        0.111      336.212        7.362      869.996
11/08/2014  08:02:00      -32.062        6.225       -0.150       16.905       12.699       11.381      285.775      161.269      129.524        0.082        0.029       32.661        7.866        0.058      336.224        7.383      870.000
11/08/2014  08:03:00      -31.152       -2.094        0.927       16.674       11.705        9.146      278.022      136.999       83.655        0.074        0.025       31.222        7.042        0.051      336.223        7.380      870.003
11/08/2014  08:04:00        1.342        4.558       10.053        9.108       15.012        9.932       82.956      225.356       98.642        0.027        0.020        4.751        5.554        1.366      336.778        8.308      870.014
11/08/2014  08:05:00      -42.345      -11.609        1.246       23.093       11.880        8.013      533.301      141.139       64.202        0.133        0.037       43.908        3.744        0.007      336.247        7.421      870.027
11/08/2014  08:06:00       -3.168       12.987        5.890       17.250       16.996       14.275      297.552      288.881      203.766        0.050        0.040       13.368       10.309        0.595      336.554        7.933      870.029
11/08/2014  08:07:00       -6.769        9.288       15.990       34.319       12.787       21.109     1177.770      163.496      445.592        0.109        0.089       11.493       21.710        3.568      336.760        8.279      870.035
11/08/2014  08:08:00       -4.334        1.067       11.016       22.969       20.016       14.910      527.553      400.620      222.303        0.065        0.058        4.463       16.297       13.334      336.768        8.292      870.046
11/08/2014  08:09:00       -4.431       29.783       15.573       30.601       24.372       15.874      936.438      594.008      251.987        0.147        0.089       30.111       20.148        0.448      336.462        7.781      870.062
11/08/2014  08:10:00       -8.928       41.985       25.092       29.506       15.579       17.725      870.633      242.700      314.178        0.195        0.071       42.924        8.289        0.037      336.714        8.203      870.075
11/08/2014  08:11:00      -40.933        4.167       14.414       29.814       19.739       19.269      888.899      389.634      371.298        0.177        0.082       41.145       11.165        0.074      336.572        7.964      870.085
11/08/2014  08:12:00      -33.025       -8.326       -5.674        9.694        8.718        7.054       93.964       76.000       49.755        0.071        0.011       34.058        5.053        0.022      336.417        7.706      870.102
11/08/2014  08:13:00      -23.319       -7.718        2.161       11.683       15.603        9.180      136.481      243.439       84.278        0.054        0.023       24.563        6.449        0.069      336.581        7.979      870.113
11/08/2014  08:14:00      -44.561      -13.427       -0.282       15.819       13.353       11.052      250.245      178.297      122.148        0.136        0.028       46.540        7.140        0.024      336.422        7.712      870.122
11/08/2014  08:15:00      -59.199      -14.293        0.210       26.293       23.505       14.100      691.336      552.502      198.802        0.258        0.072       60.900       12.905        0.045      336.457        7.771      870.126
11/08/2014  08:16:00      -25.589      -13.917       11.505       25.020       25.779       17.415      626.008      664.572      303.265        0.129        0.080       29.128       13.361        0.210      336.787        8.323      870.128
11/08/2014  08:17:00      -59.713      -53.926        0.369       35.681       27.776       17.695     1273.167      771.533      313.104        0.442        0.118       80.459       17.481        0.047      336.456        7.769      870.127
11/08/2014  08:18:00      -67.206      -47.916       -3.017       26.679       31.086       14.444      711.767      966.332      208.640        0.435        0.094       82.538       11.031        0.018      336.458        7.771      870.126
11/08/2014  08:19:00      -59.078      -65.015       -4.378       22.523       17.936       15.581      507.299      321.713      242.783        0.440        0.054       87.848       15.443        0.031      336.443        7.749      870.117
11/08/2014  08:20:00      -74.126      -62.034       -5.918       24.798       18.487       13.295      614.921      341.785      176.764        0.526        0.057       96.659        9.780        0.010      336.507        7.857      870.113
11/08/2014  08:21:00      -77.559      -33.070       -1.445       21.196       15.468       18.411      449.259      239.262      338.978        0.407        0.051       84.315       10.788        0.016      336.571        7.962      870.108
11/08/2014  08:22:00      -44.945      -45.062       -4.128       28.753       22.383       15.124      826.708      500.992      228.748        0.281        0.078       63.644       10.917        0.029      336.557        7.940      870.114
11/08/2014  08:23:00      -41.281      -42.445       -4.904       19.621       17.769       17.016      384.993      315.737      289.551        0.226        0.050       59.209       11.518        0.038      336.540        7.910      870.119
11/08/2014  08:24:00      -42.010      -35.412       -3.850       16.147       19.457        8.663      260.711      378.589       75.049        0.187        0.036       54.944        5.418        0.010      336.539        7.909      870.118
11/08/2014  08:25:00      -22.770      -54.345       -6.785       21.916       12.300       12.051      480.320      151.291      145.233        0.215        0.039       58.923        5.317        0.008      336.582        7.981      870.118
11/08/2014  08:26:00      -35.038      -13.196        3.217       28.313       18.212        8.698      801.621      331.659       75.650        0.131        0.060       37.440       11.268        0.091      336.683        8.151      870.120
11/08/2014  08:27:00      -15.831       11.475       -6.733       12.621       16.437       10.683      159.281      270.172      114.119        0.049        0.027       19.552        9.786        0.251      336.752        8.265      870.125
11/08/2014  08:28:00        3.579       -5.705        5.349       11.896        6.467       12.659      141.509       41.821      160.246        0.021        0.017        6.735        7.607        1.276      337.062        8.782      870.125
11/08/2014  08:29:00      -28.319       -3.048       -4.418       11.195        7.703       15.134      125.335       59.338      229.034        0.062        0.021       28.483        8.485        0.089      336.828        8.394      870.124
11/08/2014  08:30:00      -25.447      -13.864        2.509       19.270       10.048        7.337      371.345      100.954       53.835        0.069        0.026       28.979        4.021        0.019      336.889        8.493      870.122
11/08/2014  08:31:00      -36.510      -16.313       -3.575        8.572       10.287        8.364       73.483      105.826       69.952        0.093        0.012       39.989        5.591        0.020      336.787        8.324      870.112
11/08/2014  08:32:00      -39.460      -20.467       -2.738       22.920       15.896        9.686      525.306      252.687       93.828        0.143        0.044       44.453        8.799        0.039      336.837        8.408      870.092
11/08/2014  08:33:00      -47.496      -47.642       -6.613       14.371       26.054       11.419      206.514      678.799      130.389        0.279        0.051       67.272        9.363        0.019      336.789        8.329      870.078
11/08/2014  08:34:00      -26.673      -40.809       -2.033       15.755       19.067        9.377      248.233      363.543       87.926        0.154        0.035       48.753        6.985        0.021      336.812        8.366      870.070
11/08/2014  08:35:00      -50.106      -16.377        0.590       20.228       15.373       13.477      409.158      236.321      181.643        0.180        0.041       52.714        9.795        0.035      336.857        8.439      870.069
11/08/2014  08:36:00      -44.684      -30.813        1.925       15.659       11.425        9.096      245.197      130.533       82.729        0.170        0.023       54.278        5.073        0.009      336.862        8.449      870.082
11/08/2014  08:37:00      -39.715      -16.024        2.656       13.592       12.116        7.158      184.730      146.802       51.239        0.111        0.019       42.826        6.236        0.021      336.918        8.541      870.093
11/08/2014  08:38:00      -18.579       -4.722        3.700        9.518        9.806        6.505       90.583       96.153       42.310        0.031        0.011       19.170        6.663        0.121      337.060        8.778      870.096
11/08/2014  08:39:00      -34.278       -2.394       -3.174        9.051        9.286        8.572       81.924       86.229       73.472        0.072        0.012       34.362        5.088        0.022      336.942        8.581      870.094
11/08/2014  08:40:00      -22.198        1.387      -13.437        7.702        9.680        5.570       59.328       93.703       31.026        0.043        0.009       22.242        4.482        0.041      337.030        8.730      870.095
11/08/2014  08:41:00      -37.564       -3.449       -7.410       14.592        9.221        8.824      212.925       85.029       77.854        0.093        0.019       37.722        7.315        0.038      337.019        8.710      870.087
11/08/2014  08:42:00      -22.033        0.523       -4.112       12.421       10.769       13.328      154.290      115.972      177.639        0.048        0.022       22.039        8.798        0.159      337.205        9.020      870.086
11/08/2014  08:43:00      -17.140        4.286       14.027       15.673       10.455       12.765      245.645      109.307      162.947        0.051        0.026       17.667       13.278        0.565      337.354        9.271      870.094
11/08/2014  08:44:00      -30.588      -30.294       -1.818       21.287       18.950       12.446      453.119      359.096      154.892        0.141        0.048       43.050        6.858        0.025      337.091        8.830      870.104
11/08/2014  08:45:00      -39.187      -37.603       -8.503       25.756       18.543       14.271      663.376      343.858      203.656        0.212        0.061       54.310       11.803        0.047      337.086        8.821      870.112
11/08/2014  08:46:00      -18.672      -16.460        3.328       13.962       17.645       14.299      194.946      311.363      204.460        0.067        0.036       24.891       12.689        0.260      337.257        9.109      870.124
11/08/2014  08:47:00      -33.213      -40.573       -1.601       15.538       15.937       13.472      241.421      253.997      181.497        0.171        0.034       52.434       13.583        0.067      337.148        8.924      870.121
11/08/2014  08:48:00       -7.687      -29.540       -0.690       14.637       11.521        7.625      214.234      132.741       58.138        0.067        0.020       30.524        6.178        0.041      337.160        8.945      870.126
11/08/2014  08:49:00      -47.178      -43.897       -5.279        9.451       14.913        8.124       89.316      222.386       66.006        0.228        0.019       64.442        6.077        0.009      337.132        8.898      870.124
11/08/2014  08:50:00      -29.114      -35.348       -2.410       20.940        9.434        9.245      438.489       89.008       85.463        0.136        0.031       45.794        6.436        0.020      337.193        9.002      870.117
11/08/2014  08:51:00      -28.326      -44.229       -2.921       17.918       10.914       13.211      321.043      119.108      174.540        0.169        0.031       52.522        6.539        0.016      337.225        9.057      870.112
11/08/2014  08:52:00      -22.551      -34.171        6.608       21.501       21.586       15.880      462.292      465.952      252.182        0.145        0.059       40.941       13.862        0.115      337.331        9.233      870.101
11/08/2014  08:53:00      -44.201      -17.756       -1.709       11.863       22.576        8.073      140.738      509.658       65.167        0.149        0.036       47.634        6.249        0.017      337.203        9.020      870.105
11/08/2014  08:54:00      -16.102        2.032       -5.472       15.922        8.859        6.445      253.511       78.481       41.537        0.033        0.019       16.230        4.396        0.073      337.418        9.380      870.094
11/08/2014  08:55:00      -35.415      -24.323      -12.287       12.130       10.022        8.230      147.137      100.435       67.741        0.116        0.016       42.963        8.122        0.036      337.331        9.233      870.097
11/08/2014  08:56:00      -27.166      -11.808        0.106       15.725       10.337        8.161      247.265      106.858       66.606        0.065        0.021       29.621       10.372        0.123      337.493        9.504      870.094
11/08/2014  08:57:00      -31.855      -18.665        0.861       21.274       12.972       11.263      452.591      168.265      126.863        0.106        0.037       36.921       12.792        0.120      337.479        9.482      870.099
11/08/2014  08:58:00      -31.776        5.040       -0.439       12.511       14.901       14.086      156.531      222.043      198.427        0.081        0.029       32.174       10.947        0.116      337.528        9.564      870.083
11/08/2014  08:59:00      -37.117        0.390       -0.384       14.310       10.708        9.431      204.766      114.657       88.935        0.089        0.020       37.119        5.362        0.021      337.388        9.329      870.095
11/08/2014  09:00:00      -44.941      -11.552       -2.925       12.481        9.699       10.114      155.776       94.079      102.283        0.126        0.018       46.402        5.897        0.016      337.418        9.378      870.100
11/08/2014  09:01:00      -30.925       14.588        6.429       18.799       23.922       25.665      353.390      572.262      658.694        0.140        0.079       34.193       17.998        0.277      337.574        9.639      870.106
11/08/2014  09:02:00      -19.698      -22.297        8.055       25.261       38.254       19.782      638.137     1463.395      391.325        0.172        0.125       29.752       15.255        0.263      337.541        9.584      870.111
11/08/2014  09:03:00       14.415      -28.203       17.802       24.838       32.797       15.648      616.948     1075.648      244.870        0.163        0.097       31.673       18.293        0.334      337.823       10.058      870.122
11/08/2014  09:04:00       33.829       34.032       11.991       31.725       17.685       21.363     1006.451      312.752      456.397        0.211        0.089       47.986       15.987        0.111      337.651        9.770      870.126
11/08/2014  09:05:00       65.322       51.705       17.585       30.750       24.102       21.677      945.593      580.895      469.903        0.462        0.100       83.308        9.065        0.012      337.592        9.670      870.117
11/08/2014  09:06:00       57.956       45.424       25.220       37.128       35.469       24.100     1378.521     1258.029      580.824        0.464        0.161       73.636       22.619        0.094      337.636        9.745      870.113
11/08/2014  09:07:00       64.657       38.601       21.385       40.109       23.497       31.893     1608.766      552.131     1017.156        0.465        0.159       75.303       22.139        0.086      337.609        9.698      870.110
11/08/2014  09:08:00       69.808       65.997       30.876       35.541       24.031       28.618     1263.169      577.466      819.013        0.642        0.133       96.066       18.014        0.035      337.606        9.694      870.107
11/08/2014  09:09:00       91.675       73.573       10.317       19.791       22.042       19.847      391.687      485.849      393.908        0.760        0.064      117.547        9.692        0.007      337.439        9.413      870.095
11/08/2014  09:10:00       86.651       70.745        3.697       22.261       17.359       25.409      495.567      301.339      645.607        0.698        0.072      111.863        8.564        0.006      337.483        9.488      870.097
11/08/2014  09:11:00       65.404       55.149        0.938       33.636       32.030       28.297     1131.379     1025.901      800.720        0.514        0.148       85.551       20.515        0.058      337.689        9.833      870.088
11/08/2014  09:12:00       36.641       15.667       -5.262       47.205       51.645       24.467     2228.338     2667.214      598.651        0.355        0.275       39.850       22.365        0.315      337.754        9.941      870.085
11/08/2014  09:13:00       26.559       50.369       66.701       41.998       36.305       24.151     1763.805     1318.079      583.280        0.568        0.183       56.942       18.649        0.107      338.034       10.410      870.076
11/08/2014  09:14:00       66.663       59.969       42.195       43.879       37.998       37.447     1925.388     1443.847     1402.299        0.730        0.239       89.668       23.656        0.070      337.811       10.037      870.082
11/08/2014  09:15:00       97.445       84.854       15.569       31.796       27.819       32.715     1010.974      773.871     1070.276        0.990        0.143      129.212       20.247        0.025      337.679        9.815      870.084
11/08/2014  09:16:00       58.996       67.598       -2.593       34.502       34.396       30.452     1190.364     1183.074      927.330        0.568        0.165       89.722        9.281        0.011      337.880       10.152      870.084
11/08/2014  09:17:00       68.933       64.085       10.668       34.539       23.951       26.768     1192.912      573.674      716.536        0.573        0.124       94.120       13.407        0.020      338.090       10.506      870.083
11/08/2014  09:18:00       66.138       51.517       10.918       28.689       26.944       29.016      823.081      725.980      841.904        0.477        0.120       83.834       15.737        0.035      337.879       10.151      870.080
11/08/2014  09:19:00       46.283       48.151        5.212       28.222       29.718       30.462      796.506      883.131      927.942        0.355        0.130       66.788       16.296        0.060      337.881       10.153      870.079
11/08/2014  09:20:00       44.471       28.563       10.324       37.746       26.054       18.734     1424.796      678.832      350.965        0.268        0.123       52.854       19.143        0.131      337.949       10.269      870.073
11/08/2014  09:21:00       29.306       43.395       20.153       45.147       28.307       34.401     2038.240      801.280     1183.415        0.358        0.201       52.364       21.037        0.161      338.299       10.856      870.052
11/08/2014  09:22:00       -2.089       -0.084       33.621       49.033       51.281       33.057     2404.225     2629.716     1092.759        0.363        0.306        2.091       34.931      279.044      338.355       10.949      870.041
11/08/2014  09:23:00       27.899       20.714       39.754       36.361       40.101       38.802     1322.106     1608.103     1505.605        0.361        0.222       34.748       32.943        0.899      338.430       11.077      870.034
11/08/2014  09:24:00       -0.778       17.251       28.634       19.042       29.397       18.522      362.615      864.186      343.060        0.134        0.078       17.268       10.517        0.371      338.647       11.440      870.024
11/08/2014  09:25:00       39.546       42.177       10.023       20.550       18.831       19.030      422.315      354.590      362.153        0.229        0.057       57.817        9.684        0.028      338.196       10.684      870.011
11/08/2014  09:26:00       13.298       12.236       22.298       20.372       26.907       20.385      415.023      723.967      415.555        0.119        0.078       18.071       19.792        1.200      338.650       11.446      870.001
11/08/2014  09:27:00        6.303        1.571       14.584       17.710       15.078       21.389      313.661      227.351      457.496        0.063        0.050        6.496        9.351        2.072      338.688       11.509      870.000
11/08/2014  09:28:00       46.643       26.961       15.211       60.747       41.468       22.195     3690.141     1719.630      492.621        0.452        0.295       53.875       28.715        0.284      338.262       10.794      869.984
11/08/2014  09:29:00       76.981       68.931       27.747       29.610       30.112       41.131      876.732      906.703     1691.747        0.746        0.174      103.332       32.545        0.099      337.967       10.299      869.989
11/08/2014  09:30:00       70.632       69.612       40.217       47.511       42.508       28.813     2257.277     1806.937      830.204        0.817        0.245       99.170       15.242        0.024      338.121       10.557      869.982
11/08/2014  09:31:00       -1.861       44.921        7.608       26.361       42.916       20.312      694.914     1841.783      412.575        0.251        0.147       44.960       19.687        0.192      338.266       10.801      869.985
11/08/2014  09:32:00       35.303       36.243       10.365       30.715       17.208       16.806      943.402      296.102      282.458        0.209        0.076       50.595       13.918        0.076      338.472       11.146      869.979
11/08/2014  09:33:00       32.705       56.088       42.234       51.591       27.451       35.712     2661.656      753.544     1275.334        0.534        0.235       64.927       28.613        0.194      338.664       11.470      869.987
11/08/2014  09:34:00       54.495       79.431       38.295       47.968       29.346       45.222     2300.888      861.207     2045.001        0.798        0.260       96.327       40.006        0.172      338.395       11.018      869.986
11/08/2014  09:35:00       81.191       43.796       20.693       45.128       30.830       31.466     2036.514      950.485      990.101        0.646        0.199       92.250       29.458        0.102      338.303       10.864      869.989
11/08/2014  09:36:00       43.830       35.625       13.492       42.193       40.411       27.376     1780.252     1633.054      749.461        0.377        0.208       56.482       22.350        0.157      338.381       10.995      869.983
11/08/2014  09:37:00       57.605       48.308       16.373       47.566       35.337       28.953     2262.513     1248.692      838.267        0.513        0.217       75.180       18.969        0.064      338.520       11.227      869.964
11/08/2014  09:38:00       86.291       69.998       15.703       47.654       42.215       27.069     2270.913     1782.114      732.710        0.869        0.239      111.112       15.691        0.020      338.361       10.960      869.967
11/08/2014  09:39:00       49.716       62.364       51.353       42.234       45.390       47.020     1783.669     2060.280     2210.856        0.753        0.303       79.756       29.881        0.140      338.477       11.156      869.956
11/08/2014  09:40:00       14.294       27.903       47.974       34.335       40.001       26.760     1178.882     1600.046      716.097        0.339        0.175       31.351       13.335        0.181      338.505       11.201      869.957
11/08/2014  09:41:00       17.249       54.678       47.866       41.699       42.370       33.051     1738.782     1795.229     1092.400        0.510        0.231       57.334       22.422        0.153      338.576       11.321      869.958
11/08/2014  09:42:00       38.346       55.129       62.771       40.122       46.325       22.726     1609.759     2146.033      516.451        0.636        0.214       67.154       13.070        0.038      338.682       11.499      869.950
11/08/2014  09:43:00       10.859       -7.843       34.124       29.279       35.119       32.051      857.245     1233.375     1027.235        0.223        0.156       13.395       18.457        1.898      338.805       11.706      869.951
11/08/2014  09:44:00       29.694        6.660       34.016       29.859       40.876       21.315      891.578     1670.862      454.344        0.255        0.151       30.432       14.579        0.230      338.626       11.406      869.933
11/08/2014  09:45:00       49.701       26.690       43.830       21.475       26.361       16.887      461.190      694.883      285.177        0.327        0.072       56.414       10.350        0.034      338.592       11.348      869.924
11/08/2014  09:46:00       37.929       30.055       42.037       42.040       36.676       23.443     1767.400     1345.106      549.575        0.388        0.183       48.393       11.841        0.060      338.716       11.556      869.904
11/08/2014  09:47:00       50.957       51.715        5.792       36.723       34.307       28.094     1348.600     1176.993      789.252        0.431        0.166       72.602       16.614        0.052      338.659       11.461      869.897
11/08/2014  09:48:00       64.864       49.285        7.659       35.664       32.374       25.988     1271.941     1048.103      675.378        0.484        0.150       81.464       14.903        0.033      338.740       11.597      869.888
11/08/2014  09:49:00       56.397       52.694       -0.276       41.490       23.825       25.784     1721.380      567.618      664.813        0.445        0.148       77.183       11.037        0.020      338.560       11.295      869.892
11/08/2014  09:50:00       18.348       46.331        4.208       33.336       26.711       21.661     1111.258      713.497      469.183        0.240        0.115       49.832       17.165        0.119      338.825       11.741      869.884
11/08/2014  09:51:00       33.031       43.936       35.866       47.949       25.571       36.342     2299.125      653.891     1320.769        0.429        0.214       54.967       30.480        0.307      338.934       11.925      869.890
11/08/2014  09:52:00       39.015       61.212       61.610       36.041       33.224       18.120     1298.931     1103.859      328.324        0.590        0.137       72.588       11.609        0.026      338.640       11.429      869.895
11/08/2014  09:53:00        8.757       16.004       26.454       18.696       28.846       13.103      349.541      832.072      171.688        0.119        0.068       18.243        7.298        0.160      338.965       11.975      869.908
11/08/2014  09:54:00       61.545       51.867       33.900       47.207       31.954       28.770     2228.534     1021.034      827.720        0.585        0.204       80.486       19.893        0.061      338.882       11.836      869.904
11/08/2014  09:55:00       70.578       47.691        6.300       29.251       30.255       25.939      855.602      915.353      672.855        0.487        0.122       85.180       12.540        0.022      338.760       11.631      869.908
11/08/2014  09:56:00       36.257       61.782      -11.190       29.606       41.118       28.326      876.488     1690.696      802.373        0.431        0.168       71.635       22.458        0.098      338.851       11.784      869.895
11/08/2014  09:57:00       67.429       77.520       -2.278       38.108       30.002       23.703     1452.192      900.108      561.840        0.674        0.146      102.742       19.130        0.035      338.619       11.393      869.887
11/08/2014  09:58:00       49.396       69.400        0.913       35.206       30.175       22.438     1239.462      910.544      503.465        0.495        0.133       85.184       17.997        0.045      338.559       11.292      869.885
11/08/2014  09:59:00       52.645       29.964       -4.949       24.058       17.288       24.480      578.796      298.881      599.253        0.259        0.074       60.575       15.250        0.063      338.772       11.649      869.888
11/08/2014  10:00:00       27.345       36.500        3.852       21.691       20.812       24.684      470.520      433.136      609.323        0.180        0.076       45.607       11.994        0.069      338.891       11.851      869.875
11/08/2014  10:01:00       17.456       10.690       14.337       17.606       25.195       22.045      309.961      634.765      485.991        0.103        0.072       20.469       11.716        0.328      339.039       12.098      869.874
11/08/2014  10:02:00       12.823       -1.918       13.187       24.464       36.634       20.561      598.509     1342.075      422.773        0.135        0.118       12.965       19.893        2.354      338.814       11.721      869.861
11/08/2014  10:03:00       67.768       50.652        4.154       35.535       41.914       29.172     1262.768     1756.815      851.015        0.552        0.194       84.606        7.912        0.009      339.111       12.219      869.847
11/08/2014  10:04:00       52.998       65.209        0.294       45.653       35.382       31.939     2084.239     1251.879     1020.106        0.571        0.218       84.029       27.284        0.105      338.938       11.928      869.834
11/08/2014  10:05:00        0.253       17.659       17.196       23.366       29.066       19.613      545.953      844.824      384.668        0.119        0.089       17.661       12.002        0.462      339.426       12.751      869.826
11/08/2014  10:06:00       33.946       34.721       34.381       30.241       26.955       23.269      914.514      726.568      541.439        0.286        0.109       48.558       15.414        0.101      339.196       12.364      869.809
11/08/2014  10:07:00       20.650       26.685       18.680       27.331       20.362       19.037      746.990      414.629      362.424        0.151        0.076       33.742       16.164        0.229      339.243       12.441      869.797
11/08/2014  10:08:00       37.513       17.868       10.271       33.274       27.563       27.898     1107.188      759.729      778.314        0.224        0.132       41.551       13.724        0.109      339.368       12.653      869.788
11/08/2014  10:09:00       50.693       62.375        0.561       32.913       29.108       29.477     1083.271      847.276      868.915        0.463        0.140       80.376       18.498        0.053      338.964       11.974      869.773
11/08/2014  10:10:00       44.361       56.233       -1.008       26.760       35.349       23.326      716.077     1249.557      544.085        0.382        0.125       71.624       20.438        0.081      339.033       12.088      869.768
11/08/2014  10:11:00       57.209       45.622        6.010       30.616       20.245       20.142      937.357      409.875      405.697        0.357        0.088       73.173       10.065        0.019      339.144       12.276      869.751
11/08/2014  10:12:00       80.344       59.758       17.978       30.776       20.384       23.964      947.141      415.490      574.293        0.614        0.097      100.131       15.243        0.023      339.049       12.116      869.745
11/08/2014  10:13:00       94.050       69.375       16.877       20.139       18.034       17.197      405.595      325.215      295.744        0.748        0.051      116.869        8.747        0.006      338.835       11.757      869.736
11/08/2014  10:14:00       68.771       49.490        8.920       21.586       26.385       21.228      465.935      696.162      450.639        0.444        0.081       84.727       15.244        0.032      338.838       11.762      869.720
11/08/2014  10:15:00       13.317       35.156        3.704       28.649       21.095       23.210      820.779      444.996      538.707        0.162        0.090       37.594       16.906        0.202      339.075       12.160      869.709
11/08/2014  10:16:00       13.824       21.556       29.865       27.699       29.075       23.826      767.261      845.349      567.661        0.186        0.109       25.608       19.979        0.609      339.390       12.690      869.693
11/08/2014  10:17:00       12.130      -19.907       37.161       24.722       52.396       30.563      611.157     2745.375      934.087        0.311        0.215       23.311       27.713        1.413      339.517       12.905      869.681
11/08/2014  10:18:00       10.199        2.376       38.239       21.718       35.912       21.652      471.678     1289.671      468.796        0.190        0.112       10.472       16.054        2.350      339.638       13.108      869.676
11/08/2014  10:19:00        2.352       20.084        1.077       29.244       39.382       19.519      855.199     1550.936      381.001        0.160        0.139       20.221       12.814        0.402      339.435       12.766      869.658
11/08/2014  10:20:00       51.478       42.019       28.669       32.415       29.283       18.661     1050.758      857.496      348.216        0.375        0.113       66.449        9.258        0.019      339.381       12.675      869.649
11/08/2014  10:21:00       32.958       28.605        8.818       23.133       21.743       19.807      535.121      472.761      392.300        0.169        0.070       43.640       11.383        0.068      339.579       13.009      869.629
11/08/2014  10:22:00       29.743       34.225       23.820       34.006       21.322       25.562     1156.427      454.626      653.423        0.244        0.113       45.343       24.812        0.299      339.482       12.845      869.612
11/08/2014  10:23:00       31.755       20.927       24.562       30.018       28.368       21.920      901.099      804.742      480.485        0.212        0.109       38.030       12.461        0.107      339.585       13.019      869.606
11/08/2014  10:24:00       43.085       15.570        8.085       49.384       35.967       28.128     2438.734     1293.640      791.168        0.334        0.226       45.812       23.340        0.260      339.437       12.770      869.594
11/08/2014  10:25:00       48.253       46.122       -2.293       40.187       30.126       25.765     1614.980      907.591      663.818        0.382        0.159       66.750       16.122        0.058      339.414       12.730      869.569
11/08/2014  10:26:00       83.335       65.449        9.253       29.272       19.660       21.138      856.849      386.531      446.829        0.650        0.085      105.963       12.027        0.013      339.252       12.458      869.554
11/08/2014  10:27:00       61.581       50.273       32.793       52.093       42.287       32.907     2713.668     1788.178     1082.840        0.649        0.279       79.496       28.001        0.124      339.760       13.314      869.550
11/08/2014  10:28:00        6.720      -17.785       42.967       30.181       53.542       33.860      910.880     2866.727     1146.507        0.356        0.246       19.012       30.612        2.593      340.047       13.800      869.532
11/08/2014  10:29:00       57.276      -25.010       22.508       49.250       80.954       41.547     2425.560     6553.614     1726.160        0.756        0.535       62.498       52.901        0.716      339.793       13.369      869.517
11/08/2014  10:30:00       24.580       27.811       49.043       34.744       46.103       30.427     1207.164     2125.453      925.829        0.402        0.213       37.116       27.852        0.563      339.716       13.241      869.519
11/08/2014  10:31:00       43.251      -43.911        2.288       35.878       35.777       32.640     1287.245     1279.994     1065.402        0.372        0.182       61.635       24.499        0.158      339.625       13.088      869.509
11/08/2014  10:32:00       39.302      -52.912       -3.145       31.026       38.198       28.477      962.623     1459.114      810.938        0.379        0.162       65.912       17.287        0.069      339.497       12.871      869.504
11/08/2014  10:33:00       58.402       -3.047       29.035       43.887       35.567       35.295     1926.080     1265.006     1245.711        0.435        0.222       58.481       25.524        0.190      339.702       13.217      869.500
11/08/2014  10:34:00       32.233      -20.120      -15.595       20.341       26.704       19.157      413.751      713.121      367.001        0.159        0.075       37.997       13.945        0.135      339.430       12.758      869.497
11/08/2014  10:35:00       43.811       26.253       19.289       36.071       27.047       23.070     1301.113      731.534      532.228        0.277        0.128       51.075       20.244        0.157      340.006       13.730      869.479
11/08/2014  10:36:00       39.929       68.915       15.280       40.019       36.880       28.879     1601.515     1360.143      833.998        0.519        0.190       79.647       14.842        0.035      339.857       13.478      869.464
11/08/2014  10:37:00       40.858       36.298       39.523       48.933       42.803       34.176     2394.477     1832.129     1167.996        0.497        0.270       54.653       34.252        0.393      339.939       13.617      869.465
11/08/2014  10:38:00       77.779       48.698       17.200       30.792       40.717       32.700      948.131     1657.854     1069.304        0.620        0.184       91.767       18.338        0.040      339.556       12.971      869.457
11/08/2014  10:39:00       67.544       76.782       11.780       56.290       40.192       37.714     3168.519     1615.425     1422.327        0.840        0.310      102.263       16.595        0.026      339.866       13.491      869.439
11/08/2014  10:40:00       33.061       51.002       77.588       58.445       44.115       32.134     3415.855     1946.165     1032.566        0.805        0.320       60.781       19.861        0.107      340.201       14.059      869.442
11/08/2014  10:41:00       23.054      -51.973        8.430       33.856       62.989       36.989     1146.256     3967.650     1368.213        0.489        0.324       56.857       43.569        0.587      339.954       13.642      869.439
11/08/2014  10:42:00        1.093      -77.957      -21.893       45.854       41.187       13.568     2102.567     1696.337      184.097        0.527        0.199       77.965       13.835        0.031      339.498       12.871      869.443
11/08/2014  10:43:00       12.239        7.091       -7.767       26.754       26.326       24.156      715.794      693.053      583.506        0.113        0.100       14.145       19.734        1.946      340.004       13.726      869.425
11/08/2014  10:44:00       71.845       57.967        8.728       38.607       30.490       28.076     1490.534      929.640      788.242        0.590        0.160       92.314       13.208        0.020      339.880       13.516      869.420
11/08/2014  10:45:00       45.781       64.075       10.257       28.548       49.626       32.231      814.965     2462.712     1038.819        0.531        0.216       78.749       28.215        0.128      339.932       13.604      869.416
11/08/2014  10:46:00      100.449       78.634       12.292       41.367       42.899       29.307     1711.266     1840.332      858.912        1.042        0.221      127.567       12.277        0.009      339.857       13.479      869.407
11/08/2014  10:47:00       49.880       51.258       -3.983       43.167       24.168       22.526     1863.402      584.085      507.408        0.404        0.148       71.522       16.201        0.051      339.880       13.517      869.395
11/08/2014  10:48:00       74.868       68.186       14.117       42.412       29.589       28.848     1798.804      875.529      832.203        0.698        0.175      101.265       17.681        0.030      340.033       13.774      869.386
11/08/2014  10:49:00       60.110       72.254       -4.347       39.641       26.219       28.179     1571.393      687.438      794.057        0.595        0.153       93.989        8.223        0.008      339.825       13.424      869.380
11/08/2014  10:50:00       19.737       36.512       14.490       49.953       18.392       28.888     2495.311      338.262      834.494        0.280        0.183       41.505       26.505        0.408      340.033       13.776      869.394
11/08/2014  10:51:00       72.158       46.991       21.510       35.094       28.465       34.099     1231.580      810.256     1162.726        0.554        0.160       86.110       21.722        0.064      340.121       13.924      869.372
11/08/2014  10:52:00       24.734       59.998        5.249       24.601       20.924       26.903      605.221      437.833      723.746        0.300        0.088       64.896       19.694        0.092      340.128       13.935      869.370
11/08/2014  10:53:00       67.938       45.290        3.038       31.450       25.788       27.163      989.089      665.007      737.815        0.453        0.120       81.650       16.072        0.039      340.333       14.282      869.352
11/08/2014  10:54:00       44.925       56.425       30.290       45.696       45.878       30.502     2088.166     2104.805      930.379        0.562        0.256       72.126       27.547        0.146      340.275       14.184      869.339
11/08/2014  10:55:00       34.965       44.535       28.854       38.289       40.096       30.781     1466.010     1607.720      947.460        0.403        0.201       56.621       18.082        0.102      340.486       14.541      869.318
11/08/2014  10:56:00        5.280       44.708       70.538       29.169       50.501       34.725      850.854     2550.394     1205.858        0.580        0.230       45.018       33.518        0.554      340.398       14.391      869.315
11/08/2014  10:57:00       73.984       64.757       37.068       37.270       34.745       34.812     1389.062     1207.187     1211.854        0.742        0.190       98.321       20.506        0.043      340.111       13.906      869.304
11/08/2014  10:58:00       49.084       49.248       32.834       38.352       28.988       21.345     1470.853      840.326      455.611        0.434        0.138       69.531       14.551        0.044      340.276       14.187      869.302
11/08/2014  10:59:00       49.192       43.685        5.158       36.379       28.499       21.715     1323.435      812.201      471.542        0.348        0.130       65.789       16.268        0.061      340.360       14.327      869.281
11/08/2014  11:00:00       83.537       59.109       24.228       49.066       47.637       34.838     2407.484     2269.313     1213.682        0.847        0.295      102.334       20.142        0.039      340.417       14.422      869.273
11/08/2014  11:01:00       94.036       41.924        3.974       60.204       50.422       38.082     3624.552     2542.381     1450.226        0.912        0.381      102.958       31.913        0.096      340.300       14.226      869.252
11/08/2014  11:02:00       80.226       22.419        8.117       41.008       25.195       34.370     1681.676      634.784     1181.296        0.525        0.175       83.300       13.306        0.026      340.174       14.013      869.247
11/08/2014  11:03:00       10.732       26.024       22.935       22.753       29.623       24.716      517.699      877.518      610.901        0.166        0.100       28.150       14.134        0.252      340.818       15.102      869.227
11/08/2014  11:04:00       26.471       32.296       18.521       35.532       33.148       34.219     1262.494     1098.801     1170.915        0.281        0.177       41.759       25.619        0.376      340.822       15.107      869.217
11/08/2014  11:05:00       35.138       61.911       -6.539       34.230       26.724       24.222     1171.682      714.169      586.695        0.379        0.124       71.188       16.562        0.054      340.664       14.841      869.201
11/08/2014  11:06:00       27.888       14.835        9.277       28.993       35.283       21.904      840.600     1244.858      479.766        0.182        0.128       31.588       13.674        0.187      340.680       14.868      869.197
11/08/2014  11:07:00       13.101      -25.045       27.670       31.633       39.028       28.628     1000.648     1523.161      819.536        0.245        0.167       28.265       24.245        0.736      340.813       15.093      869.181
11/08/2014  11:08:00       33.094       59.593       73.671       46.391       41.752       44.784     2152.127     1743.269     2005.608        0.799        0.295       68.166       36.172        0.282      340.441       14.464      869.180
11/08/2014  11:09:00       31.199       33.044       56.934       50.465       54.604       47.844     2546.679     2981.602     2289.019        0.656        0.391       45.446       52.509        1.335      340.459       14.495      869.159
11/08/2014  11:10:00       49.014        0.553       22.505       40.967       66.739       41.190     1678.307     4454.040     1696.632        0.537        0.391       49.017       45.245        0.852      340.477       14.525      869.133
11/08/2014  11:11:00       50.329       33.114        7.799       34.167       34.395       34.697     1167.380     1182.986     1203.870        0.362        0.178       60.246       17.641        0.086      340.449       14.476      869.112
11/08/2014  11:12:00       35.669       32.544       30.804       47.073       41.525       36.903     2215.864     1724.340     1361.866        0.429        0.265       48.284       26.965        0.312      340.761       15.004      869.087
11/08/2014  11:13:00       29.164       76.265       63.165       34.154       32.230       29.147     1166.527     1038.797      849.538        0.686        0.153       81.651       12.354        0.023      340.440       14.463      869.074
11/08/2014  11:14:00       25.444       48.248       28.840       23.231       15.498       21.652      539.697      240.197      468.800        0.253        0.062       54.546       17.349        0.101      340.373       14.348      869.055
11/08/2014  11:15:00       12.581       25.381        3.501       21.785       50.779       23.873      474.585     2578.520      569.908        0.222        0.181       28.328       25.048        0.782      340.743       14.974      869.040
11/08/2014  11:16:00       16.861       -2.288       29.228       36.092       39.479       27.417     1302.602     1558.631      751.668        0.238        0.181       17.015       20.553        1.459      340.993       15.397      869.008
11/08/2014  11:17:00       -7.777      -14.005       29.623       23.681       24.777       27.194      560.780      613.888      739.506        0.152        0.096       16.019       13.257        0.685      341.159       15.679      868.986
11/08/2014  11:18:00        8.718       20.242       56.038       28.329       27.350       19.008      802.528      748.022      361.289        0.277        0.096       22.040       14.299        0.421      341.182       15.717      868.963
11/08/2014  11:19:00       16.693       25.126       41.208       25.589       36.653       28.900      654.774     1343.416      835.220        0.272        0.142       30.166       23.794        0.622      341.044       15.483      868.942
11/08/2014  11:20:00       35.190      -20.805       24.576       33.393       43.376       27.343     1115.081     1881.491      747.635        0.301        0.187       40.880       23.864        0.341      340.726       14.946      868.935
11/08/2014  11:21:00       60.038       64.332       54.112       40.223       35.497       43.038     1617.851     1260.019     1852.295        0.770        0.237       87.995       25.494        0.084      340.894       15.230      868.912
11/08/2014  11:22:00       49.815       50.397        7.581       36.601       42.089       30.756     1339.607     1771.503      945.938        0.457        0.203       70.861       19.517        0.076      340.742       14.972      868.886
11/08/2014  11:23:00       -4.804       11.239        0.090       33.804       40.481       22.144     1142.737     1638.726      490.354        0.171        0.164       12.222       25.599        4.387      341.108       15.592      868.871
11/08/2014  11:24:00      -43.180       21.794       -3.361       31.541       25.778       20.722      994.822      664.482      429.414        0.222        0.104       48.369       17.949        0.138      341.349       16.000      868.844
11/08/2014  11:25:00      -15.560      -12.094       -0.271       20.066       17.870       17.316      402.631      319.332      299.843        0.070        0.051       19.708       11.721        0.354      341.435       16.146      868.829
11/08/2014  11:26:00        9.999      -12.250        0.122       39.156       39.789       16.272     1533.207     1583.185      264.775        0.181        0.169       15.813       16.239        1.055      341.333       15.974      868.819
11/08/2014  11:27:00      121.813       84.155        9.946       27.970       29.884       27.300      782.337      893.067      745.305        1.222        0.121      148.056        7.323        0.002      340.754       14.992      868.798
11/08/2014  11:28:00       62.216       60.850       -2.875       35.618       23.855       20.629     1268.629      569.048      425.536        0.492        0.113       87.026       15.897        0.033      340.785       15.044      868.799
11/08/2014  11:29:00       60.118       63.570        0.619       30.459       20.501       19.616      927.746      420.282      384.804        0.469        0.087       87.495       15.239        0.030      340.771       15.021      868.789
11/08/2014  11:30:00       40.220       41.672       -0.737       43.534       20.965       21.142     1895.189      439.548      446.989        0.307        0.139       57.916        8.101        0.020      340.821       15.106      868.779
11/08/2014  11:31:00      112.454       60.328        4.037       40.627       21.869       25.728     1650.574      478.237      661.954        0.955        0.140      127.615       14.864        0.014      340.919       15.274      868.773
11/08/2014  11:32:00      -19.206       32.914       -5.983       32.695       34.252       19.407     1068.963     1173.198      376.646        0.205        0.131       38.108       21.125        0.307      340.947       15.319      868.750
11/08/2014  11:33:00       18.198      -72.467      -26.562       47.417       38.612       22.154     2248.357     1490.908      490.788        0.526        0.212       74.717       20.212        0.073      341.015       15.433      868.743
11/08/2014  11:34:00       14.648      -59.074       12.527       37.136       74.369       27.825     1379.086     5530.812      774.227        0.577        0.384       60.863       32.008        0.277      340.934       15.297      868.714
11/08/2014  11:35:00       26.619       50.303       47.273       47.105       27.864       25.142     2218.906      776.395      632.108        0.455        0.181       56.912       18.654        0.107      341.268       15.864      868.683
11/08/2014  11:36:00       12.663       37.343        8.801       24.997       32.765       29.721      624.841     1073.528      883.367        0.211        0.129       39.432       18.499        0.220      341.155       15.671      868.657
11/08/2014  11:37:00       11.187       28.542       42.833       22.786       24.530       20.035      519.195      601.725      401.396        0.215        0.076       30.656       13.268        0.187      341.562       16.361      868.627
11/08/2014  11:38:00       51.295       41.176       16.141       22.395       18.679       21.493      501.555      348.901      461.950        0.295        0.066       65.778        7.416        0.013      341.097       15.573      868.612
11/08/2014  11:39:00       12.465       39.562       70.067       39.543       41.355       22.921     1563.681     1710.253      525.364        0.521        0.190       41.479       22.835        0.303      341.615       16.451      868.574
11/08/2014  11:40:00       28.489       59.116       58.861       45.754       53.832       30.627     2093.388     2897.897      938.016        0.685        0.296       65.623       20.093        0.094      341.466       16.198      868.549
11/08/2014  11:41:00       16.114       41.261       67.669       32.525       34.311       32.493     1057.906     1177.255     1055.767        0.492        0.165       44.296       18.986        0.184      341.609       16.441      868.526
11/08/2014  11:42:00       53.746      -55.583        6.056       26.332       33.949       35.002      693.358     1152.526     1225.158        0.454        0.154       77.318       21.839        0.080      341.029       15.456      868.535
11/08/2014  11:43:00       27.156      -12.803       30.246       24.552       34.543       18.679      602.806     1193.211      348.905        0.198        0.107       30.022       15.683        0.273      341.519       16.289      868.522
11/08/2014  11:44:00       -8.186       11.501        1.351       17.243       25.498       15.644      297.309      650.144      244.726        0.070        0.060       14.117       11.397        0.652      341.506       16.265      868.507
11/08/2014  11:45:00       24.363        5.241       10.522       32.022       57.612       25.154     1025.398     3319.165      632.742        0.285        0.249       24.920       14.303        0.329      341.567       16.369      868.505
11/08/2014  11:46:00       39.097       36.963        6.205       26.280       29.112       19.205      690.634      847.490      368.843        0.242        0.095       53.804       10.989        0.042      341.625       16.467      868.495
11/08/2014  11:47:00       -1.500       39.288       -8.313       30.154       22.952       19.805      909.273      526.814      392.242        0.172        0.091       39.317       14.652        0.139      341.476       16.215      868.490
11/08/2014  11:48:00       -6.725       29.499       39.330       45.964       40.753       31.987     2112.661     1660.820     1023.150        0.363        0.240       30.256       23.143        0.585      341.847       16.844      868.482
11/08/2014  11:49:00        7.709       59.933       95.058       46.224       49.040       36.677     2136.621     2404.909     1345.177        0.929        0.294       60.427       38.437        0.405      341.699       16.594      868.465
11/08/2014  11:50:00        8.841       -4.562       53.909       41.688       69.625       45.140     1737.855     4847.681     2037.629        0.581        0.431        9.949       12.074        1.473      341.598       16.420      868.461
11/08/2014  11:51:00       39.095       62.704       59.908       59.986       59.195       46.604     3598.298     3504.007     2171.955        0.916        0.464       73.893       33.760        0.209      341.543       16.328      868.453
11/08/2014  11:52:00       35.443       65.464       57.212       53.698       36.394       45.322     2883.505     1324.520     2054.083        0.754        0.313       74.443       37.299        0.251      341.476       16.214      868.445
11/08/2014  11:53:00       13.862       25.207       36.889       42.629       45.936       30.316     1817.245     2110.089      919.036        0.352        0.242       28.767       20.539        0.510      341.719       16.628      868.447
11/08/2014  11:54:00       56.522       50.483        5.708       37.563       35.316       32.917     1410.966     1247.251     1083.530        0.476        0.187       75.784       19.026        0.063      341.514       16.280      868.433
11/08/2014  11:55:00       24.274       13.175       10.627       43.975       30.679       23.165     1933.800      941.199      536.597        0.214        0.171       27.619        6.435        0.054      341.767       16.707      868.416
11/08/2014  11:56:00        8.977      -31.323       17.628       26.754       39.022       22.699      715.785     1522.755      515.248        0.206        0.138       32.584       18.356        0.317      341.723       16.634      868.403
11/08/2014  11:57:00       21.841       38.150       34.228       46.141       32.204       41.983     2128.980     1037.077     1762.592        0.402        0.246       43.959       35.865        0.666      341.978       17.068      868.373
11/08/2014  11:58:00       36.405       62.807       86.645       54.352       53.648       48.760     2954.136     2878.136     2377.542        1.049        0.410       72.595       42.830        0.348      341.585       16.400      868.348
11/08/2014  11:59:00       38.955       61.423       93.869       54.567       63.062       51.437     2977.517     3976.838     2645.752        1.185        0.480       72.734       53.607        0.543      341.588       16.404      868.342
11/08/2014  12:00:00       30.539       27.443       33.293       42.099       34.505       27.829     1772.363     1190.576      774.432        0.327        0.187       41.058       22.375        0.297      341.749       16.678      868.330
11/08/2014  12:01:00       62.976       58.283       54.164       58.633       57.337       51.956     3437.787     3287.544     2699.466        0.986        0.471       85.808       45.020        0.275      341.661       16.529      868.312
11/08/2014  12:02:00       45.153       18.350       27.560       51.041       55.395       31.100     2605.157     3068.596      967.225        0.489        0.332       48.739       29.573        0.368      341.606       16.433      868.306
11/08/2014  12:03:00       33.390        2.475       21.500       58.251       43.635       27.372     3393.181     1904.022      749.208        0.381        0.302       33.482       31.384        0.879      341.824       16.805      868.302
11/08/2014  12:04:00       85.330       25.201      -11.085       43.155       29.013       27.677     1862.380      841.727      766.021        0.575        0.174       88.974       18.629        0.044      341.530       16.307      868.290
11/08/2014  12:05:00       46.566       69.168       60.518       34.999       45.418       40.459     1224.945     2062.828     1636.900        0.777        0.246       83.383       32.314        0.150      341.810       16.780      868.279
11/08/2014  12:06:00       46.492       56.055       73.885       51.261       37.592       34.912     2627.712     1413.151     1218.867        0.801        0.263       72.826       28.406        0.152      342.014       17.128      868.282
11/08/2014  12:07:00       44.823       40.023       68.262       65.054       60.994       51.180     4232.027     3720.213     2619.425        0.942        0.529       60.091       49.408        0.676      341.793       16.753      868.270
11/08/2014  12:08:00       43.772       41.475       28.855       55.830       34.224       28.797     3116.975     1171.315      829.295        0.479        0.256       60.301       17.129        0.081      341.900       16.935      868.263
11/08/2014  12:09:00       12.848       56.025       74.510       41.844       39.817       26.858     1750.916     1585.374      721.338        0.646        0.203       57.480       24.044        0.175      342.175       17.401      868.259
11/08/2014  12:10:00       25.767       53.490       70.339       63.203       47.459       47.932     3994.646     2252.373     2297.476        0.851        0.427       59.373       46.013        0.601      342.004       17.110      868.252
11/08/2014  12:11:00       38.700        8.352       18.706       43.036       31.240       32.709     1852.100      975.966     1069.854        0.291        0.195       39.591       29.984        0.574      342.026       17.149      868.242
11/08/2014  12:12:00       81.846        7.893       48.761       91.419       56.363       46.828     8357.368     3176.762     2192.897        1.143        0.686       82.226       48.872        0.353      341.943       17.007      868.214
11/08/2014  12:13:00       75.789       88.004       81.670       55.218       50.119       34.075     3049.038     2511.943     1161.080        1.344        0.336      116.141       24.198        0.043      341.623       16.463      868.197
11/08/2014  12:14:00       -4.897       52.925       82.181       29.152       33.995       25.401      849.845     1155.649      645.191        0.611        0.133       53.151       20.166        0.144      341.946       17.012      868.180
11/08/2014  12:15:00       -3.450       25.996       31.484       31.429       31.080       25.035      987.769      965.948      626.772        0.213        0.129       26.223       19.055        0.528      342.119       17.307      868.166
11/08/2014  12:16:00       40.533      -10.770       48.298       51.414       66.239       49.760     2643.429     4387.563     2476.035        0.680        0.475       41.940       52.834        1.587      341.970       17.052      868.154
11/08/2014  12:17:00       46.947       62.872       66.945       53.936       43.953       36.059     2909.040     1931.861     1300.233        0.839        0.307       78.466       35.650        0.206      341.960       17.036      868.133
11/08/2014  12:18:00       35.727        9.876       12.562       47.290       34.328       24.730     2236.355     1178.418      611.551        0.278        0.201       37.066       25.723        0.482      341.794       16.754      868.130
11/08/2014  12:19:00       14.017      -61.971       -8.466       38.799       45.016       20.884     1505.340     2026.404      436.147        0.404        0.198       63.537       10.344        0.027      341.952       17.022      868.120
11/08/2014  12:20:00       42.412      -41.859        7.028       44.881       47.190       20.572     2014.339     2226.901      423.197        0.413        0.233       59.590       16.845        0.080      341.841       16.833      868.115
11/08/2014  12:21:00      -17.976      -31.891      -16.383       35.428       23.261       25.101     1255.152      541.083      630.036        0.202        0.121       36.608       19.838        0.294      342.042       17.176      868.100
11/08/2014  12:22:00        8.210       -6.732        8.254       28.378       21.269       21.241      805.326      452.382      451.168        0.094        0.085       10.617        9.785        0.849      342.411       17.803      868.085
11/08/2014  12:23:00       -4.194      -19.227        5.174       28.802       25.396       25.609      829.582      644.932      655.831        0.127        0.107       19.679       17.193        0.763      342.359       17.714      868.076
11/08/2014  12:24:00      -24.649      -23.755       -1.506       24.550       23.778       11.392      602.716      565.391      129.766        0.124        0.065       34.233        4.144        0.015      342.249       17.526      868.071
11/08/2014  12:25:00      -24.626      -17.524        0.455       27.163       21.300       24.150      737.837      453.683      583.239        0.134        0.089       30.225       23.864        0.623      342.542       18.023      868.065
11/08/2014  12:26:00      -31.170       -6.079        7.572       28.153       21.066       16.944      792.595      443.765      287.091        0.129        0.076       31.758       20.358        0.411      342.293       17.602      868.060
11/08/2014  12:27:00       12.498      -47.241       28.402       42.940       57.809       40.377     1843.805     3341.876     1630.296        0.500        0.341       48.867       29.842        0.373      342.675       18.252      868.043
11/08/2014  12:28:00       34.561        7.386       65.111       47.447       49.819       38.718     2251.250     2481.948     1499.051        0.586        0.312       35.341       25.577        0.524      342.618       18.154      868.016
11/08/2014  12:29:00       59.243     -113.214       -4.985       59.768       38.733       27.020     3572.179     1500.207      730.105        1.108        0.290      127.778       29.102        0.052      341.984       17.077      868.004
11/08/2014  12:30:00        8.586      -74.873      -11.624       33.668       54.378       30.139     1133.529     2956.972      908.353        0.541        0.250       75.364       21.686        0.083      342.362       17.719      867.988
11/08/2014  12:31:00       23.462        9.246       36.040       24.208       22.027       16.535      586.017      485.182      273.421        0.164        0.067       25.218       12.048        0.228      342.478       17.916      867.975
11/08/2014  12:32:00       32.403      -33.761        2.031       23.948       29.223       22.630      573.517      853.977      512.111        0.207        0.097       46.795       17.431        0.139      342.414       17.808      867.952
11/08/2014  12:33:00       20.456      -41.444       19.269       54.637       65.744       34.103     2985.233     4322.238     1163.021        0.549        0.424       46.218       44.253        0.917      342.632       18.180      867.923
11/08/2014  12:34:00       88.823      -91.175      -23.566       67.683       80.214       42.113     4581.041     6434.319     1773.488        1.477        0.639      127.289       34.739        0.074      342.282       17.583      867.903
11/08/2014  12:35:00       13.263      -35.225       15.827       37.495       60.432       36.630     1405.875     3652.075     1341.756        0.403        0.320       37.640       40.286        1.146      342.561       18.058      867.896
11/08/2014  12:36:00        6.002        9.905       33.829       20.635       29.658       15.311      425.786      879.571      234.413        0.141        0.077       11.582       11.667        1.015      342.762       18.399      867.874
11/08/2014  12:37:00       20.263       70.011       -5.714       19.418       42.886       21.012      377.054     1839.190      441.497        0.400        0.133       72.884       25.559        0.123      342.177       17.404      867.879
11/08/2014  12:38:00      -20.863      118.478      -15.423       55.603       34.135       24.518     3091.713     1165.208      601.142        0.978        0.243      120.301       17.287        0.021      342.006       17.114      867.879
11/08/2014  12:39:00      -28.834       50.065        4.502       27.582       39.151       28.043      760.787     1532.837      786.426        0.322        0.154       57.775       20.646        0.128      342.340       17.681      867.870
11/08/2014  12:40:00       -3.847       16.981        2.585       14.007       25.621       15.749      196.203      656.431      248.031        0.071        0.055       17.411       15.815        0.825      342.495       17.945      867.857
11/08/2014  12:41:00      -65.557       46.984       -4.536       56.805       30.332       27.244     3226.766      920.043      742.236        0.571        0.244       80.655       33.586        0.173      342.240       17.512      867.848
11/08/2014  12:42:00       -5.980       44.281       -1.363       25.948       32.804       31.917      673.305     1076.091     1018.684        0.238        0.138       44.683       28.917        0.419      342.345       17.691      867.840
11/08/2014  12:43:00        8.258       20.819       18.825       19.290       14.503       16.712      372.095      210.336      279.302        0.086        0.043       22.397        9.284        0.172      342.506       17.963      867.819
11/08/2014  12:44:00       26.802       31.520        4.471       20.754       21.812       15.179      430.734      475.742      230.416        0.143        0.057       41.375        9.436        0.052      342.304       17.619      867.813
11/08/2014  12:45:00       17.419       29.101       26.588       24.835       21.318       17.179      616.763      454.453      295.103        0.161        0.068       33.916       14.927        0.194      342.771       18.413      867.810
11/08/2014  12:46:00      -52.915       64.752       -8.493       25.731       48.628       28.922      662.079     2364.722      836.496        0.546        0.193       83.623       34.250        0.168      342.379       17.747      867.793
11/08/2014  12:47:00      -33.070       85.237      -15.681       23.303       29.145       22.079      543.043      849.448      487.480        0.524        0.094       91.427       18.641        0.042      342.149       17.359      867.784
11/08/2014  12:48:00     -101.848        1.005      -20.147       27.793       44.785       20.571      772.470     2005.735      423.150        0.699        0.160      101.853       16.181        0.025      342.233       17.499      867.777
11/08/2014  12:49:00      -40.593       21.486      -13.010       42.576       45.444       15.547     1812.678     2065.174      241.703        0.320        0.206       45.929       10.811        0.055      342.368       17.729      867.757
11/08/2014  12:50:00       -2.163      -17.399       -0.425       16.378       22.347       16.150      268.242      499.382      260.830        0.067        0.051       17.533       12.004        0.469      342.529       18.002      867.747
11/08/2014  12:51:00       -4.094       39.571      -15.913       19.607       23.967       16.567      384.451      574.400      274.475        0.153        0.062       39.783       13.338        0.112      342.361       17.719      867.742
11/08/2014  12:52:00       14.271      -16.105      -11.710       27.699       14.466       10.590      767.231      209.257      112.142        0.084        0.054       21.518        8.636        0.161      342.447       17.862      867.726
11/08/2014  12:53:00       36.781       -2.597       16.145       43.586       35.864       27.648     1899.767     1286.209      764.437        0.278        0.198       36.872       24.727        0.450      342.488       17.933      867.706
11/08/2014  12:54:00       10.764       27.971       28.251       36.004       47.920       40.366     1296.322     2296.334     1629.382        0.346        0.261       29.971       35.111        1.372      342.815       18.489      867.694
11/08/2014  12:55:00      131.891       79.365       30.926       61.567       45.044       32.939     3790.447     2029.006     1085.006        1.578        0.345      153.928       23.415        0.023      342.228       17.490      867.678
11/08/2014  12:56:00       39.801       29.275        4.622       35.668       45.983       29.144     1272.211     2114.408      849.365        0.335        0.212       49.408       23.654        0.229      342.568       18.069      867.652
11/08/2014  12:57:00       27.487       83.565        3.594       55.780       62.724       41.144     3111.372     3934.328     1692.815        0.824        0.437       87.970       38.940        0.196      342.589       18.104      867.641
11/08/2014  12:58:00      117.892       98.409        6.882       46.996       43.599       34.777     2208.661     1900.909     1209.429        1.447        0.266      153.567       25.421        0.027      342.334       17.669      867.626
11/08/2014  12:59:00       74.275       87.680       -3.065       42.178       34.070       34.376     1778.965     1160.746     1181.735        0.867        0.206      114.911       23.626        0.042      342.336       17.674      867.608
11/08/2014  13:00:00       38.606       57.414       -3.990       27.261       34.962       28.629      743.149     1222.368      819.613        0.379        0.139       69.187       21.411        0.096      342.395       17.774      867.590
11/08/2014  13:01:00       19.002       47.530        3.762       28.955       34.731       17.108      838.391     1206.276      292.700        0.249        0.117       51.188       14.079        0.076      342.563       18.060      867.569
11/08/2014  13:02:00       38.908       37.859        9.791       35.017       36.754       28.924     1226.192     1350.872      836.614        0.323        0.171       54.288       21.400        0.155      342.640       18.190      867.543
11/08/2014  13:03:00       54.414       62.033        7.379       46.350       31.634       29.030     2148.304     1000.698      842.747        0.543        0.200       82.517       20.742        0.063      342.654       18.213      867.533
11/08/2014  13:04:00      119.075       77.058       15.900       56.778       35.855       36.560     3223.715     1285.596     1336.605        1.311        0.292      141.834       25.130        0.031      342.515       17.976      867.517
11/08/2014  13:05:00        3.748       77.130      -13.257       17.791       21.009       12.530      316.512      441.380      157.007        0.353        0.046       77.221        7.165        0.009      342.346       17.690      867.497
11/08/2014  13:06:00       12.810       12.891      -12.970       14.389       28.294       14.818      207.033      800.577      219.572        0.086        0.061       18.174        9.859        0.294      342.607       18.135      867.484
11/08/2014  13:07:00       15.546       55.464      -10.329       20.251       54.560       14.769      410.090     2976.757      218.123        0.351        0.180       57.602       22.549        0.153      342.489       17.934      867.471
11/08/2014  13:08:00      -17.579       82.919      -15.121       26.611       37.983       16.176      708.157     1442.673      261.676        0.491        0.121       84.762       15.830        0.035      342.468       17.898      867.445
11/08/2014  13:09:00      -32.060       61.406       -8.399       35.467       41.270       31.291     1257.876     1703.173      979.118        0.440        0.197       69.272       26.711        0.149      342.664       18.232      867.433
11/08/2014  13:10:00      -21.758       42.544       -6.550       15.004       30.004       14.314      225.128      900.240      204.885        0.183        0.067       47.785       14.316        0.090      342.681       18.261      867.425
11/08/2014  13:11:00      -18.822       24.505       16.601       21.040       32.655       19.845      442.694     1066.319      393.843        0.157        0.095       30.899       17.786        0.331      343.157       19.071      867.418
11/08/2014  13:12:00       10.848       -7.686       13.242       23.768       22.066       22.591      564.910      486.895      510.354        0.096        0.078       13.295       15.562        1.370      343.012       18.825      867.409
11/08/2014  13:13:00       25.754       18.626       23.982       18.569       14.062       22.261      344.808      197.740      495.573        0.131        0.052       31.783       16.109        0.257      342.735       18.352      867.415
11/08/2014  13:14:00       50.130       55.276       15.121       52.516       38.770       29.175     2757.944     1503.112      851.160        0.545        0.256       74.623       19.305        0.067      342.843       18.537      867.419
11/08/2014  13:15:00       53.760       25.963       11.043       45.915       33.564       32.226     2108.174     1126.557     1038.488        0.398        0.214       59.701       18.475        0.096      342.858       18.562      867.416
11/08/2014  13:16:00       31.072       25.214       24.701       60.191       45.967       25.328     3622.933     2112.966      641.525        0.429        0.319       40.015       15.549        0.151      342.919       18.666      867.424
11/08/2014  13:17:00       53.666       68.717       10.356       45.194       32.260       31.076     2042.484     1040.700      965.704        0.588        0.202       87.190       23.162        0.071      342.838       18.528      867.419
11/08/2014  13:18:00       84.717       51.686       -1.479       48.165       53.596       39.081     2319.893     2872.554     1527.329        0.828        0.336       99.240       19.286        0.038      342.852       18.552      867.414
11/08/2014  13:19:00       47.985      137.868      -12.933       56.176       98.181       44.025     3155.738     9639.560     1938.209        1.810        0.737      145.980       44.449        0.093      342.651       18.208      867.408
11/08/2014  13:20:00       29.008       94.984       -1.713       44.167       66.143       43.131     1950.736     4374.894     1860.320        0.902        0.409       99.315       40.798        0.169      342.678       18.255      867.402
11/08/2014  13:21:00       26.243       46.202       13.394       42.495       46.513       24.307     1805.796     2163.428      590.848        0.378        0.228       53.135       19.367        0.133      342.806       18.473      867.385
11/08/2014  13:22:00       47.265       93.515        2.770       76.974       66.636       31.850     5925.061     4440.318     1014.395        1.118        0.569      104.781       30.316        0.084      342.864       18.572      867.372
11/08/2014  13:23:00      155.024       77.109       27.895       63.170       42.813       38.018     3990.505     1832.940     1445.338        1.901        0.363      173.142       28.286        0.027      342.618       18.153      867.359
11/08/2014  13:24:00      177.559      134.316        3.996       65.806       31.300       38.099     4330.386      979.719     1451.526        2.817        0.338      222.638       15.595        0.005      342.580       18.086      867.344
11/08/2014  13:25:00       63.164      105.487       -1.225       48.448       35.913       34.236     2347.244     1289.732     1172.122        0.996        0.240      122.952       31.018        0.064      342.590       18.107      867.342
11/08/2014  13:26:00       15.352       40.085       -8.943       19.491       36.505       17.105      379.883     1332.632      292.580        0.196        0.100       42.924       21.443        0.250      342.748       18.374      867.343
11/08/2014  13:27:00       23.257       16.823        9.701       25.292       14.607       15.264      639.705      213.357      232.979        0.100        0.054       28.704        5.578        0.038      342.879       18.598      867.339
11/08/2014  13:28:00       22.837     -104.283       -7.211       52.578       40.769       33.202     2764.473     1662.086     1102.340        0.849        0.276      106.755       31.413        0.087      342.876       18.593      867.314
11/08/2014  13:29:00       37.757      -33.996       25.185       77.208       74.301       40.341     5961.139     5520.711     1627.363        0.816        0.655       50.807       39.327        0.599      343.088       18.953      867.301
11/08/2014  13:30:00       41.213     -116.998      -19.193       47.696       50.623       34.652     2274.878     2562.707     1200.762        1.090        0.302      124.045       33.190        0.072      342.963       18.740      867.308
11/08/2014  13:31:00       54.831     -121.920      -23.149       33.935       44.118       29.626     1151.568     1946.421      877.692        1.119        0.199      133.682       20.556        0.024      342.730       18.344      867.296
11/08/2014  13:32:00       64.662     -115.685      -20.268       35.928       42.603       27.416     1290.833     1815.025      751.660        1.092        0.193      132.530       23.956        0.033      342.733       18.348      867.277
11/08/2014  13:33:00       -5.450      -22.938       15.123       41.882       30.460       20.282     1754.068      927.788      411.342        0.194        0.155       23.577       17.839        0.572      342.993       18.791      867.273
11/08/2014  13:34:00       -4.237        6.548       11.155       61.673       25.075       21.777     3803.610      628.779      474.258        0.254        0.245        7.800       18.963        5.911      342.988       18.783      867.268
11/08/2014  13:35:00       24.659       40.090       10.937       38.752       48.062       31.954     1501.702     2309.934     1021.034        0.358        0.242       47.066       28.218        0.359      342.885       18.606      867.263
11/08/2014  13:36:00       21.926       30.165        3.277       30.660       22.154       24.301      940.038      490.794      590.528        0.171        0.101       37.291        7.165        0.037      342.943       18.706      867.242
11/08/2014  13:37:00       18.831       16.233        9.077       39.493       30.988       17.171     1559.694      960.271      294.853        0.176        0.141       24.862       16.990        0.467      343.168       19.089      867.225
11/08/2014  13:38:00       40.050      -11.297       29.245       55.448       47.678       35.221     3074.438     2273.165     1240.501        0.459        0.329       41.612       35.334        0.721      343.169       19.093      867.224
11/08/2014  13:39:00       37.697       -5.884       41.992       72.909       72.003       45.102     5315.708     5184.461     2034.165        0.787        0.627       38.154       55.130        2.088      343.223       19.183      867.211
11/08/2014  13:40:00       42.578       29.945       52.226       52.352       74.158       42.994     2740.736     5499.355     1848.508        0.776        0.504       52.053       35.523        0.466      343.105       18.983      867.197
11/08/2014  13:41:00       18.428       75.461       83.785       45.978       44.891       37.668     2113.979     2015.165     1418.860        0.930        0.277       77.679       32.097        0.171      342.939       18.700      867.182
11/08/2014  13:42:00       71.193       90.745       72.357       60.079       45.124       46.337     3609.540     2036.160     2147.132        1.316        0.390      115.339       40.163        0.121      342.852       18.551      867.176
11/08/2014  13:43:00       60.821       61.953       35.658       53.403       49.078       31.906     2851.871     2408.644     1018.004        0.754        0.314       86.818       21.285        0.060      342.954       18.725      867.172
11/08/2014  13:44:00       68.831       67.458       43.001       38.421       32.952       40.159     1476.135     1085.851     1612.779        0.766        0.209       96.375       26.379        0.075      342.767       18.407      867.172
11/08/2014  13:45:00       89.253       72.788       35.080       27.648       27.052       34.508      764.424      731.788     1190.797        0.859        0.134      115.171       24.208        0.044      342.806       18.472      867.166
11/08/2014  13:46:00       48.491       64.987        5.485       26.129       23.668       28.356      682.708      560.187      804.037        0.433        0.102       81.084       14.331        0.031      342.823       18.502      867.159
11/08/2014  13:47:00       21.675       43.708      -11.556       21.305       30.678       17.085      453.891      941.162      291.909        0.210        0.084       48.788       18.619        0.146      342.897       18.629      867.155
11/08/2014  13:48:00       17.927       17.095        3.737       16.075       22.616       14.579      258.412      511.498      212.541        0.080        0.049       24.771        8.199        0.110      342.915       18.659      867.138
11/08/2014  13:49:00       33.811       34.398       56.608       55.117       52.480       53.942     3037.831     2754.164     2909.697        0.711        0.435       48.233       52.307        1.176      342.894       18.623      867.121
11/08/2014  13:50:00       36.087       49.600       69.936       53.492       55.830       54.822     2861.355     3116.982     3005.503        0.882        0.449       61.338       49.253        0.645      342.735       18.353      867.095
11/08/2014  13:51:00       51.179      -10.318       28.164       26.370       27.036       27.263      695.379      730.935      743.257        0.284        0.108       52.209       19.593        0.141      342.792       18.450      867.080
11/08/2014  13:52:00       48.173       26.573       31.111       32.516       30.153       24.697     1057.262      909.196      609.944        0.328        0.129       55.016       20.109        0.134      342.784       18.437      867.057
11/08/2014  13:53:00       34.603       31.202       31.590       33.899       24.893       22.602     1149.175      619.637      510.844        0.272        0.114       46.593       21.385        0.211      342.902       18.637      867.037
11/08/2014  13:54:00       72.498       61.125       26.784       49.922       24.593       33.130     2492.162      604.825     1097.624        0.695        0.210       94.827       29.915        0.100      342.947       18.712      867.019
11/08/2014  13:55:00       62.139       71.144       -2.465       58.924       44.968       19.925     3472.009     2022.087      396.986        0.741        0.295       94.460       11.210        0.014      342.980       18.769      867.005
11/08/2014  13:56:00        9.082       27.776        7.896       34.524       32.994       22.940     1191.892     1088.581      526.248        0.186        0.140       29.223       18.581        0.404      343.244       19.219      866.994
11/08/2014  13:57:00       72.651       73.275        0.833       50.974       50.144       31.149     2598.390     2514.447      970.260        0.836        0.304      103.187       28.665        0.077      343.005       18.813      866.988
11/08/2014  13:58:00       23.956       89.033       -5.121       35.026       43.384       28.197     1226.827     1882.174      795.085        0.621        0.195       92.200       19.899        0.047      343.017       18.834      866.972
11/08/2014  13:59:00       37.170       75.029        2.188       50.999       38.146       30.639     2600.858     1455.132      938.754        0.600        0.250       83.732       27.627        0.109      343.082       18.944      866.964
11/08/2014  14:00:00      131.947       64.281       19.920       56.530       48.527       38.526     3195.668     2354.842     1484.219        1.449        0.352      146.772       22.378        0.023      343.111       18.992      866.959
11/08/2014  14:01:00      102.183       70.321       21.950       56.693       43.161       43.685     3214.078     1862.842     1908.389        1.143        0.349      124.043       32.926        0.070      343.141       19.045      866.969
11/08/2014  14:02:00      122.966       56.437       13.610       61.185       49.124       32.040     3743.634     2413.121     1026.545        1.284        0.359      135.299       27.039        0.040      343.074       18.930      866.969
11/08/2014  14:03:00       72.748       61.672       21.228       42.094       39.634       25.622     1771.863     1570.867      656.508        0.677        0.200       95.372       12.011        0.016      343.028       18.853      866.957
11/08/2014  14:04:00       61.991       58.795        3.831       54.530       41.922       34.541     2973.516     1757.465     1193.086        0.662        0.296       85.438       19.967        0.055      343.084       18.946      866.934
11/08/2014  14:05:00       24.354       41.255        1.402       50.989       39.677       29.969     2599.868     1574.235      898.158        0.368        0.254       47.907       22.405        0.219      343.182       19.113      866.913
11/08/2014  14:06:00       34.222       49.963       -0.279       36.537       29.474       19.936     1334.980      868.706      397.445        0.313        0.130       60.560       21.557        0.127      343.096       18.968      866.890
11/08/2014  14:07:00       44.093       28.945       22.534       36.790       27.971       22.052     1353.528      782.388      486.290        0.296        0.131       52.745        7.327        0.019      343.208       19.159      866.876
11/08/2014  14:08:00       19.718      -60.950       -7.248       43.527       59.013       24.029     1894.609     3482.570      577.408        0.505        0.298       64.060       21.348        0.111      343.419       19.518      866.858
11/08/2014  14:09:00       44.533     -102.826      -24.934       35.498       29.753       23.515     1260.080      885.258      552.969        0.794        0.135      112.056       10.789        0.009      343.154       19.066      866.837
11/08/2014  14:10:00       10.124      -33.860       22.675       35.660       48.728       29.121     1271.612     2374.427      848.044        0.313        0.225       35.341       26.805        0.575      343.428       19.533      866.817
11/08/2014  14:11:00       37.526      -79.148       -0.592       43.388       35.455       25.395     1882.544     1257.079      644.930        0.573        0.189       87.593       24.383        0.077      343.282       19.283      866.803
11/08/2014  14:12:00       89.663      -97.799      -11.537       43.100       50.066       36.181     1857.616     2506.556     1309.038        1.170        0.284      132.680       21.255        0.026      343.122       19.011      866.785
11/08/2014  14:13:00       31.878       25.615       33.671       28.850       40.112       23.854      832.308     1608.989      568.997        0.291        0.151       40.894        9.273        0.051      343.151       19.061      866.782
11/08/2014  14:14:00       67.474       54.195       16.614       21.330       24.607       27.148      454.969      605.511      737.030        0.478        0.090       86.544       11.691        0.018      343.078       18.936      866.774
11/08/2014  14:15:00       66.173       45.598        2.424       48.654       33.984       25.693     2367.230     1154.906      660.113        0.532        0.209       80.361       13.506        0.028      343.249       19.228      866.768
11/08/2014  14:16:00       11.248       49.560       -0.330       28.638       36.066       17.421      820.139     1300.762      303.482        0.250        0.121       50.820       17.303        0.116      343.403       19.490      866.766
11/08/2014  14:17:00       17.006       12.870       -4.609       19.752       43.277       19.041      390.141     1872.925      362.556        0.155        0.131       21.327        8.324        0.152      343.186       19.120      866.763
11/08/2014  14:18:00      -12.710        0.006        1.212       35.708       22.944       20.359     1275.089      526.413      414.495        0.119        0.111       12.710       14.796        1.355      343.607       19.839      866.762
11/08/2014  14:19:00      -30.556        9.343       -4.312       43.792       25.301       21.190     1917.772      640.151      449.003        0.202        0.150       31.953       19.213        0.362      343.489       19.636      866.757
11/08/2014  14:20:00      -74.131      -21.318       -9.269       27.739       32.795       15.690      769.471     1075.523      246.170        0.406        0.105       77.135        7.479        0.009      343.415       19.510      866.752
11/08/2014  14:21:00      -11.285      -24.268        0.315       23.253       19.204       17.656      540.697      368.789      311.746        0.097        0.061       26.763        6.024        0.051      343.487       19.634      866.749
11/08/2014  14:22:00      -22.372      -12.329       -2.948       21.612       20.019       13.789      467.086      400.769      190.140        0.086        0.053       25.545        8.512        0.111      343.398       19.481      866.749
11/08/2014  14:23:00       22.112       20.212       16.878       48.884       30.684       28.174     2389.637      941.504      793.766        0.265        0.206       29.958       23.940        0.639      343.434       19.541      866.747
11/08/2014  14:24:00       46.739       31.383       11.393       28.110       33.826       30.106      790.191     1144.210      906.376        0.307        0.142       56.298       15.055        0.072      343.281       19.284      866.744
11/08/2014  14:25:00       13.342       43.658       26.529       29.704       31.946       30.818      882.333     1020.563      949.724        0.282        0.143       45.651       16.931        0.138      343.284       19.288      866.738
11/08/2014  14:26:00       90.892       36.320       13.043       46.386       47.884       26.444     2151.651     2292.838      699.264        0.745        0.257       97.880       21.447        0.048      343.266       19.257      866.749
11/08/2014  14:27:00      139.472       77.200       13.259       54.048       49.491       47.398     2921.225     2449.394     2246.540        1.660        0.381      159.412       34.548        0.047      343.248       19.225      866.743
11/08/2014  14:28:00      114.092       29.854       25.333       84.476       44.657       38.228     7136.190     1994.213     1461.413        1.257        0.530      117.933       22.371        0.036      343.168       19.089      866.742
11/08/2014  14:29:00       95.908       70.174       40.297       92.361       48.138       31.426     8530.534     2317.260      987.591        1.379        0.592      118.839       41.157        0.120      343.284       19.286      866.729
11/08/2014  14:30:00      127.767       88.665       35.125       47.544       46.846       37.254     2260.475     2194.574     1387.858        1.563        0.292      155.518       21.743        0.020      343.319       19.345      866.730
11/08/2014  14:31:00       60.680       22.520       23.687       57.206       47.499       39.363     3272.485     2256.140     1549.425        0.591        0.354       64.724       27.113        0.175      343.265       19.255      866.743
11/08/2014  14:32:00      128.403       65.035       20.077       30.305       27.520       27.500      918.399      757.341      756.223        1.178        0.122      143.934       16.884        0.014      343.157       19.070      866.738
11/08/2014  14:33:00       46.979       64.311        7.407       40.182       27.774       29.397     1614.566      771.407      864.212        0.482        0.163       79.643       10.415        0.017      343.188       19.124      866.726
11/08/2014  14:34:00       -4.177       71.145       -4.568       21.154       33.075       21.417      447.505     1093.965      458.677        0.355        0.100       71.267       18.714        0.069      343.304       19.323      866.720
11/08/2014  14:35:00       21.480       64.966       -6.474       34.609       26.721       21.293     1197.757      714.007      453.372        0.354        0.118       68.425       15.061        0.048      343.316       19.341      866.711
11/08/2014  14:36:00       85.826       62.921        9.333       39.775       37.433       22.174     1582.058     1401.225      491.679        0.744        0.174      106.420       12.905        0.015      343.324       19.355      866.693
11/08/2014  14:37:00       57.222       30.500       -2.253       40.297       43.650       18.412     1623.855     1905.285      338.987        0.404        0.193       64.843       20.090        0.096      343.249       19.227      866.678
11/08/2014  14:38:00       47.733       27.526       25.586       28.296       27.547       17.317      800.653      758.818      299.881        0.277        0.093       55.101        5.805        0.011      343.291       19.299      866.670
11/08/2014  14:39:00       15.719        7.853        6.159       13.413       18.263       17.228      179.918      333.537      296.819        0.058        0.041       17.571       14.454        0.677      343.306       19.324      866.665
11/08/2014  14:40:00       16.437      -12.527      -11.446       20.392       19.634       17.686      415.815      385.495      312.806        0.084        0.056       20.667       14.280        0.477      343.441       19.556      866.656
11/08/2014  14:41:00       16.614        9.052      -15.302       47.838       35.138       21.363     2288.494     1234.671      456.391        0.229        0.199       18.920       19.361        1.047      343.365       19.425      866.644
11/08/2014  14:42:00       36.266       15.113       15.570       38.918       38.666       27.823     1514.578     1495.027      774.120        0.278        0.189       39.289       23.569        0.360      343.292       19.301      866.631
11/08/2014  14:43:00       39.693      -48.504       21.291       64.450       29.058       25.652     4153.752      844.339      658.017        0.502        0.283       62.676       27.602        0.194      343.441       19.554      866.636
11/08/2014  14:44:00       22.708      -66.450       15.943       30.588       56.282       31.843      935.647     3167.632     1013.955        0.515        0.256       70.223       34.051        0.235      343.598       19.821      866.632
11/08/2014  14:45:00        3.390        1.398       22.039       36.043       28.252       23.769     1299.078      798.188      564.953        0.158        0.133        3.667       23.162       39.888      343.674       19.952      866.623
11/08/2014  14:46:00       17.724       -2.880       27.188       48.970       58.795       27.960     2398.089     3456.889      781.753        0.385        0.332       17.956       27.709        2.381      343.602       19.831      866.618
11/08/2014  14:47:00       57.206      -75.334       -6.126       32.272       48.430       30.286     1041.491     2345.509      917.215        0.664        0.215       94.592       25.069        0.070      343.436       19.545      866.615
11/08/2014  14:48:00       57.234      -96.846       -1.837       33.451       37.512       29.585     1118.979     1407.159      875.288        0.803        0.170      112.494       24.437        0.047      343.450       19.569      866.611
11/08/2014  14:49:00       64.496      -53.098        5.339       32.043       24.776       22.111     1026.763      613.826      488.875        0.457        0.106       83.541       20.967        0.063      343.358       19.413      866.601
11/08/2014  14:50:00       22.328        7.772       37.426       34.089       34.072       23.270     1162.056     1160.879      541.477        0.241        0.143       23.642       25.196        1.136      343.563       19.763      866.595
11/08/2014  14:51:00      -12.181       -8.776        4.419       18.211       23.608       23.541      331.641      557.338      554.166        0.084        0.072       15.013       16.590        1.221      343.572       19.779      866.595
11/08/2014  14:52:00      -16.981      -24.974       -1.513       35.317       24.905       18.526     1247.282      620.262      343.203        0.156        0.111       30.200        5.532        0.034      343.449       19.569      866.598
11/08/2014  14:53:00      -52.415      -55.908        2.733       36.829       34.758       17.937     1356.347     1208.107      321.722        0.438        0.144       76.636       11.392        0.022      343.610       19.844      866.579
11/08/2014  14:54:00      -27.911      -43.272       -6.018        9.484       19.326       10.633       89.946      373.487      113.058        0.163        0.029       51.493        5.298        0.011      343.376       19.444      866.561
11/08/2014  14:55:00      -22.266      -67.718       -1.254       32.772       34.116       22.862     1074.016     1163.903      522.676        0.392        0.138       71.285       15.121        0.045      343.614       19.849      866.559
11/08/2014  14:56:00      -16.543      -11.243        4.952       50.755       31.678       26.972     2576.072     1003.469      727.470        0.236        0.215       20.002       23.782        1.414      343.563       19.763      866.546
11/08/2014  14:57:00        5.218        1.073       12.411       54.019       34.925       31.591     2918.072     1219.789      997.994        0.266        0.257        5.327       20.133       14.282      343.511       19.674      866.536
11/08/2014  14:58:00        3.297       18.969       -0.987       26.644       23.100       25.404      709.901      533.587      645.338        0.113        0.094       19.253       10.650        0.306      343.590       19.809      866.519
11/08/2014  14:59:00       34.547     -118.869       -2.868       57.077       85.373       40.885     3257.755     7288.490     1671.593        1.377        0.611      123.787       20.165        0.027      343.515       19.680      866.507
11/08/2014  15:00:00       70.714       34.338       24.081       74.451      139.188       53.206     5543.017    19373.274     2830.851        1.725        1.387       78.610       57.532        0.536      343.558       19.755      866.476
11/08/2014  15:01:00       32.615       91.923       90.111       43.242       50.350       29.493     1869.873     2535.077      869.849        1.145        0.264       97.538       29.207        0.090      343.370       19.432      866.497
11/08/2014  15:02:00      104.214       60.474       27.244       73.068       58.570       39.250     5338.880     3430.433     1540.601        1.278        0.515      120.489       24.622        0.042      343.412       19.504      866.501
11/08/2014  15:03:00       90.510       44.307       11.475       52.975       42.921       24.656     2806.309     1842.231      607.931        0.777        0.263      100.773       19.712        0.038      343.512       19.675      866.497
11/08/2014  15:04:00       24.112       55.658        2.339       22.456       34.638       21.670      504.261     1199.816      469.582        0.293        0.109       60.656       22.333        0.136      343.539       19.722      866.481
11/08/2014  15:05:00       32.159       37.593       -2.689       22.679       26.171       23.300      514.333      684.908      542.894        0.210        0.087       49.472       17.283        0.122      343.556       19.750      866.475
11/08/2014  15:06:00      -19.567       -8.084        0.442       19.663       17.337       17.087      386.620      300.566      291.966        0.071        0.049       21.171       11.079        0.274      343.738       20.062      866.474
11/08/2014  15:07:00       10.520      -36.140       -6.494       24.009       20.784       13.537      576.436      431.978      183.262        0.133        0.060       37.640        9.651        0.066      343.424       19.526      866.480
11/08/2014  15:08:00       11.180      -23.467       -1.983       20.616       14.639       24.879      425.035      214.291      618.946        0.097        0.063       25.994       12.495        0.231      343.723       20.036      866.481
11/08/2014  15:09:00       13.874        4.121        3.632       19.815       20.603       19.005      392.649      424.493      361.187        0.070        0.059       14.473        9.905        0.468      343.677       19.957      866.486
11/08/2014  15:10:00       21.920        0.671        4.925       17.535       19.055       17.762      307.475      363.077      315.479        0.075        0.049       21.930       13.826        0.397      343.410       19.502      866.482
11/08/2014  15:11:00       -0.512        2.067       10.544        6.726        8.993        8.089       45.236       80.878       65.434        0.015        0.010        2.130        4.202        3.892      343.939       20.406      866.478
11/08/2014  15:12:00        3.271        3.414       28.929       13.357       13.151       11.465      178.406      172.955      131.448        0.067        0.024        4.728        9.070        3.680      343.809       20.184      866.473
11/08/2014  15:13:00       24.070       10.170       -2.738        9.606       15.310        9.848       92.278      234.411       96.976        0.056        0.021       26.130        3.716        0.020      343.256       19.240      866.473
11/08/2014  15:14:00       22.370       -1.498       -7.449       23.761       12.556       14.141      564.573      157.654      199.960        0.074        0.046       22.420        7.976        0.127      343.202       19.148      866.466
11/08/2014  15:15:00       35.152      -35.082       -2.627       18.332       26.160       17.984      336.071      684.361      323.407        0.191        0.067       49.663        9.326        0.035      343.084       18.947      866.460
11/08/2014  15:16:00       25.735      -37.894       11.595       26.124       26.871       21.599      682.482      722.068      466.497        0.205        0.094       45.806       10.792        0.056      343.519       19.688      866.446
11/08/2014  15:17:00       -7.790        5.061       32.609       15.860       20.715       11.699      251.538      429.109      136.878        0.098        0.041        9.289        6.246        0.452      343.841       20.238      866.434
11/08/2014  15:18:00      -10.638       32.049       44.894       14.144       25.453       16.764      200.054      647.857      281.041        0.214        0.056       33.768       14.647        0.188      343.510       19.674      866.430
11/08/2014  15:19:00       -7.055       -0.172       19.477       14.846       15.257       11.962      220.397      232.761      143.082        0.051        0.030        7.057        7.970        1.275      343.566       19.768      866.413
11/08/2014  15:20:00       -5.682        4.618       16.838       35.931       29.286       22.444     1291.064      857.653      503.755        0.149        0.133        7.322       22.562        9.494      343.442       19.557      866.406
11/08/2014  15:21:00       -6.933      -24.443       17.172       20.393       38.560       20.937      415.873     1486.849      438.356        0.164        0.117       25.407       10.481        0.170      343.521       19.691      866.410
11/08/2014  15:22:00       27.806      -56.781        2.806       34.384       40.417       28.182     1182.268     1633.572      794.218        0.381        0.181       63.224       30.525        0.233      343.452       19.575      866.408
11/08/2014  15:23:00       13.992       29.560       30.761       35.148       21.082       18.792     1235.361      444.464      353.129        0.202        0.102       32.704       18.922        0.335      343.562       19.761      866.402
11/08/2014  15:24:00       26.842       35.958       32.694       37.398       30.840       18.477     1398.607      951.076      341.402        0.289        0.135       44.872       12.520        0.078      343.552       19.744      866.393
11/08/2014  15:25:00       71.361       60.926       50.783       40.000       30.357       24.220     1600.002      921.530      586.594        0.725        0.155       93.831       16.865        0.032      343.456       19.582      866.391
11/08/2014  15:26:00       22.646       12.899       17.472       35.800       36.658       18.010     1281.662     1343.823      324.371        0.197        0.147       26.062        6.928        0.071      343.520       19.689      866.385
11/08/2014  15:27:00        8.419       40.204        4.198       24.577       25.774       16.985      604.031      664.301      288.480        0.163        0.078       41.076       14.901        0.132      343.549       19.739      866.372
11/08/2014  15:28:00       60.195       53.790       15.954       40.760       25.262       23.243     1661.348      638.160      540.243        0.480        0.142       80.727       19.025        0.056      343.578       19.788      866.368
11/08/2014  15:29:00       93.841       55.580       18.167       48.340       32.355       29.700     2336.746     1046.857      882.091        0.824        0.213      109.065       18.275        0.028      343.547       19.735      866.365
11/08/2014  15:30:00        8.057      -12.164       25.920       27.544       41.912       21.349      758.668     1756.607      455.796        0.193        0.149       14.590       16.294        1.247      343.497       19.651      866.368
11/08/2014  15:31:00        8.663        9.205       13.219       24.379       11.869       15.803      594.317      140.884      249.724        0.066        0.049       12.641       10.736        0.721      343.507       19.668      866.369
11/08/2014  15:32:00       67.499       61.777        5.951       39.596       41.189       33.176     1567.867     1696.495     1100.678        0.639        0.218       91.502       26.514        0.084      343.514       19.680      866.380
11/08/2014  15:33:00       13.031       54.575        4.228       35.641       31.081       25.379     1270.274      966.021      644.085        0.302        0.144       56.109       23.211        0.171      343.567       19.770      866.387
11/08/2014  15:34:00      -26.152       91.438      -12.232       28.477       33.822       17.160      810.958     1143.942      294.453        0.572        0.112       95.105       11.447        0.014      343.623       19.866      866.388
11/08/2014  15:35:00       29.188       40.573       18.252       41.994       39.750       30.572     1763.494     1580.092      934.637        0.355        0.214       49.981       22.363        0.200      343.568       19.773      866.391
11/08/2014  15:36:00       81.313       36.942        5.658       28.811       32.117       24.448      830.093     1031.499      597.715        0.523        0.123       89.311       15.366        0.030      343.487       19.634      866.399
11/08/2014  15:37:00       18.231        2.503        5.347       16.203       19.274       15.500      262.547      371.504      240.257        0.062        0.044       18.402        8.683        0.223      343.478       19.617      866.405
11/08/2014  15:38:00       18.674        9.916        7.085       32.027       27.897       23.521     1025.744      778.258      553.216        0.143        0.118       21.143       20.096        0.903      343.314       19.339      866.408
11/08/2014  15:39:00        5.590       14.137       21.113       20.594       26.761       24.863      424.119      716.156      618.164        0.122        0.088       15.202       17.466        1.320      343.367       19.430      866.411
11/08/2014  15:40:00       19.010      -17.325        9.709       22.085       21.050       19.047      487.753      443.104      362.779        0.102        0.065       25.720       14.534        0.319      343.356       19.410      866.412
11/08/2014  15:41:00       16.958       -9.216       11.453       22.245       17.785       21.355      494.821      316.310      456.051        0.089        0.063       19.301       14.510        0.565      343.379       19.450      866.401
11/08/2014  15:42:00       20.998      -71.143       -0.992       18.029       18.205       14.351      325.047      331.430      205.941        0.318        0.043       74.177        6.439        0.008      343.526       19.703      866.394
11/08/2014  15:43:00       -6.013       -1.621        6.086       12.730       14.823       17.675      162.043      219.719      312.414        0.038        0.035        6.228       15.915        6.531      343.647       19.904      866.390
11/08/2014  15:44:00       -7.090      -15.172        2.721       15.920       20.421       15.568      253.431      417.000      242.376        0.060        0.046       16.747        9.335        0.311      343.526       19.700      866.385
11/08/2014  15:45:00        0.001      -19.558        2.544        8.788       14.911       13.535       77.227      222.347      183.207        0.044        0.024       19.558        9.504        0.236      343.482       19.624      866.382
11/08/2014  15:46:00       -5.056      -11.202        7.317       19.135       19.633       16.231      366.160      385.454      263.451        0.061        0.051       12.290       14.115        1.319      343.390       19.467      866.382
11/08/2014  15:47:00       16.674       11.565        7.006       10.337       16.774       13.682      106.848      281.370      187.196        0.052        0.029       20.293        6.731        0.110      343.496       19.648      866.384
11/08/2014  15:48:00        4.624        6.932        2.325        7.360       11.289        9.679       54.170      127.449       93.689        0.018        0.014        8.332        5.653        0.460      343.412       19.505      866.388
11/08/2014  15:49:00       24.814        1.781      -13.418       14.241       24.327       18.412      202.819      591.795      338.990        0.097        0.057       24.877       13.817        0.308      343.143       19.047      866.392
11/08/2014  15:50:00       24.516        9.439        2.833       16.353       12.372       17.780      267.410      153.069      316.133        0.072        0.037       26.271        6.924        0.069      343.302       19.317      866.406
11/08/2014  15:51:00       14.181       14.456        5.039       14.222       13.377       12.472      202.277      178.943      155.560        0.049        0.027       20.250        8.199        0.164      343.339       19.380      866.410
11/08/2014  15:52:00       22.402       35.870        1.910       12.453       10.703        8.386      155.085      114.552       70.322        0.107        0.017       42.291        5.117        0.015      343.441       19.555      866.421
11/08/2014  15:53:00       39.716       27.864       10.108       17.225       16.554       17.205      296.715      274.035      296.016        0.166        0.043       48.516        9.789        0.041      343.447       19.564      866.429
11/08/2014  15:54:00       86.964       50.499        3.779       33.063       25.225       20.687     1093.160      636.310      427.950        0.614        0.108      100.563       18.303        0.033      343.477       19.614      866.428
11/08/2014  15:55:00       25.032       17.492       -1.445       27.711       19.643       17.502      767.914      385.845      306.330        0.120        0.073       30.538        9.850        0.104      343.445       19.562      866.431
11/08/2014  15:56:00       59.334       35.309       20.135       28.924       34.072       25.760      836.626     1160.910      663.566        0.392        0.133       69.045       17.728        0.066      343.328       19.362      866.423
11/08/2014  15:57:00       96.172       42.389       23.677       23.016       20.330       18.353      529.723      413.325      336.821        0.644        0.064      105.099       11.959        0.013      343.411       19.503      866.418
11/08/2014  15:58:00      103.794       71.539       26.925       52.319       42.144       34.764     2737.227     1776.093     1208.569        1.117        0.286      126.059       26.486        0.044      343.327       19.360      866.415
11/08/2014  15:59:00      100.214       72.650       13.395       46.704       31.761       27.052     2181.300     1008.741      731.829        0.971        0.196      123.778       20.754        0.028      343.409       19.501      866.421
11/08/2014  16:00:00       74.550       53.597       19.815       42.905       36.640       25.257     1840.857     1342.525      637.898        0.632        0.191       91.817       20.514        0.050      343.373       19.439      866.413
11/08/2014  16:01:00       62.482       70.076        3.406       53.386       39.570       32.736     2850.013     1565.823     1071.644        0.716        0.274       93.886       23.100        0.061      343.337       19.378      866.401
11/08/2014  16:02:00      112.875       93.331       17.080       42.404       39.729       36.449     1798.098     1578.427     1328.553        1.322        0.235      146.463       29.556        0.041      343.302       19.319      866.388
11/08/2014  16:03:00      127.508       74.828        9.411       40.034       43.407       30.777     1602.704     1884.162      947.193        1.319        0.222      147.843       11.490        0.006      343.330       19.367      866.374
11/08/2014  16:04:00      101.960       58.097       -0.129       42.763       28.342       25.332     1828.717      803.255      641.713        0.852        0.164      117.350       16.375        0.019      343.274       19.271      866.369
11/08/2014  16:05:00       63.325       45.328        6.552       34.949       31.308       24.079     1221.419      980.165      579.805        0.444        0.139       77.876       19.537        0.063      343.217       19.173      866.368
11/08/2014  16:06:00       70.010       48.690        7.366       45.622       31.170       20.017     2081.328      971.589      400.684        0.539        0.173       85.277       11.699        0.019      343.232       19.199      866.357
11/08/2014  16:07:00       61.544       33.425       -2.402       32.270       25.558       26.927     1041.330      653.219      725.070        0.366        0.121       70.035       12.820        0.034      343.236       19.205      866.349
11/08/2014  16:08:00       43.915       43.061        8.115       24.288       28.879       17.266      589.928      834.008      298.100        0.278        0.086       61.504       15.413        0.063      343.166       19.088      866.339
11/08/2014  16:09:00       92.998       61.174        9.740       32.784       28.673       27.588     1074.804      822.151      761.072        0.757        0.133      111.314       18.951        0.029      343.282       19.284      866.336
11/08/2014  16:10:00       62.765       46.496        5.049       37.682       23.246       15.331     1419.964      540.363      235.032        0.416        0.110       78.111       14.432        0.034      343.163       19.081      866.331
11/08/2014  16:11:00       71.865       63.773       12.640       27.880       19.778       19.127      777.313      391.187      365.825        0.546        0.077       96.081       14.222        0.022      343.202       19.148      866.316
11/08/2014  16:12:00       41.734       34.497        3.905       27.559       24.978       21.217      759.512      623.901      450.181        0.239        0.092       54.146       14.198        0.069      343.086       18.950      866.311
11/08/2014  16:13:00       66.862       34.536       12.469       36.438       23.410       18.178     1327.744      548.041      330.441        0.401        0.110       75.255       11.238        0.022      343.052       18.894      866.318
11/08/2014  16:14:00       91.944       90.818       22.462       45.854       42.314       47.938     2102.598     1790.443     2298.053        1.170        0.310      129.235       25.014        0.037      343.115       18.999      866.313
11/08/2014  16:15:00       75.260       85.536       -6.022       57.701       45.768       35.299     3329.410     2094.706     1246.031        0.984        0.334      113.931       29.817        0.068      343.113       18.997      866.307
11/08/2014  16:16:00      101.733       68.758       14.525       35.479       26.669       29.258     1258.747      711.237      856.049        0.906        0.141      122.789       17.112        0.019      343.047       18.884      866.313
11/08/2014  16:17:00       89.105       76.747       16.896       51.576       40.775       37.818     2660.116     1662.636     1430.195        0.993        0.288      117.601       27.524        0.055      343.076       18.932      866.320
11/08/2014  16:18:00       76.537       52.463       20.029       42.803       33.005       33.995     1832.073     1089.306     1155.634        0.654        0.204       92.792       20.799        0.050      343.026       18.848      866.324
11/08/2014  16:19:00      122.609       82.270       24.532       29.777       28.496       27.485      886.640      812.008      755.451        1.243        0.123      147.653       15.496        0.011      343.081       18.942      866.324
11/08/2014  16:20:00       71.512       53.976       18.667       37.181       29.381       22.515     1382.397      863.258      506.939        0.556        0.138       89.595       12.460        0.019      342.986       18.780      866.333
11/08/2014  16:21:00       80.616       55.346       15.956       46.796       31.564       25.482     2189.867      996.305      649.327        0.683        0.192       97.786        5.450        0.003      342.958       18.732      866.345
11/08/2014  16:22:00       78.943       60.071       15.025       44.175       29.575       23.082     1951.397      874.703      532.764        0.671        0.168       99.200       14.305        0.021      342.974       18.760      866.358
11/08/2014  16:23:00       77.110       59.566       15.966       35.818       24.658       22.652     1282.898      607.993      513.123        0.608        0.120       97.438       16.373        0.028      342.952       18.722      866.371
11/08/2014  16:24:00       54.771       43.148       19.037       34.825       29.401       28.336     1212.802      864.421      802.947        0.405        0.144       69.725       16.502        0.056      342.963       18.742      866.396
11/08/2014  16:25:00       97.369       64.703       23.239       22.988       20.423       21.818      528.445      417.079      476.032        0.781        0.071      116.907       13.502        0.013      342.981       18.771      866.408
11/08/2014  16:26:00       70.697       55.978       16.224       38.450       28.032       25.078     1478.410      785.786      628.906        0.564        0.145       90.175       16.998        0.036      342.961       18.736      866.417
11/08/2014  16:27:00       92.357       77.556        4.262       38.105       29.390       33.779     1451.956      863.797     1141.053        0.901        0.173      120.602       25.204        0.044      342.983       18.775      866.432
11/08/2014  16:28:00       90.926       64.838       23.791       27.300       22.439       23.887      745.308      503.496      570.602        0.743        0.091      111.676       11.956        0.011      342.937       18.697      866.439
11/08/2014  16:29:00       85.485       61.165       20.433       55.396       26.445       29.841     3068.760      699.325      890.489        0.806        0.233      105.114       11.112        0.011      342.912       18.654      866.443
11/08/2014  16:30:00      103.556       85.222        6.217       57.206       41.567       34.366     3272.583     1727.840     1181.005        1.210        0.309      134.114       28.091        0.044      342.949       18.716      866.459
11/08/2014  16:31:00       89.833       51.587       10.042       34.618       24.583       23.389     1198.388      604.312      547.023        0.659        0.117      103.591       14.413        0.019      342.865       18.574      866.456
11/08/2014  16:32:00       90.558       77.425        7.709       42.770       41.718       29.817     1829.260     1740.381      889.050        0.936        0.223      119.145       26.782        0.051      342.853       18.552      866.450
11/08/2014  16:33:00       55.389       60.172       21.602       46.544       48.074       44.627     2166.310     2311.065     1991.584        0.681        0.323       81.784       33.079        0.164      342.825       18.506      866.454
11/08/2014  16:34:00       80.067       65.950        4.776       55.403       34.268       35.935     3069.541     1174.304     1291.328        0.816        0.277      103.731       24.656        0.056      342.852       18.552      866.458
11/08/2014  16:35:00       80.584       61.871       25.178       36.954       42.539       35.349     1365.575     1809.594     1249.542        0.769        0.221      101.597       12.276        0.015      342.765       18.403      866.449
11/08/2014  16:36:00      145.572      106.272       24.630       48.302       38.385       33.806     2333.131     1473.409     1142.837        1.902        0.247      180.236       22.064        0.015      342.866       18.573      866.447
11/08/2014  16:37:00       74.187       46.613       20.505       39.797       30.913       28.652     1583.784      955.636      820.921        0.573        0.168       87.616       14.218        0.026      342.756       18.387      866.453
11/08/2014  16:38:00      103.331       80.139       20.277       39.370       33.512       28.499     1549.982     1123.062      812.181        1.050        0.174      130.765       16.382        0.016      342.724       18.335      866.454
11/08/2014  16:39:00      141.281       89.874       24.250       46.546       30.545       35.510     2166.542      933.025     1260.978        1.649        0.218      167.445        7.651        0.002      342.746       18.370      866.454
11/08/2014  16:40:00      108.007       73.175       23.780       28.110       22.155       22.452      790.145      490.824      504.079        0.968        0.089      130.461       12.138        0.009      342.692       18.279      866.458
11/08/2014  16:41:00       78.858       55.573       25.110       40.003       23.047       19.721     1600.278      531.182      388.905        0.623        0.126       96.473       10.027        0.011      342.617       18.152      866.467
11/08/2014  16:42:00      119.990       81.781       12.186       33.422       22.003       20.688     1116.997      484.144      427.988        1.163        0.101      145.209       11.972        0.007      342.691       18.276      866.471
11/08/2014  16:43:00       81.610       60.658        9.085       33.596       26.234       18.592     1128.684      688.248      345.674        0.629        0.108      101.684       16.636        0.027      342.648       18.206      866.471
11/08/2014  16:44:00       87.644       74.653       19.086       32.256       21.514       22.042     1040.430      462.852      485.846        0.780        0.099      115.128       12.616        0.012      342.652       18.212      866.490
11/08/2014  16:45:00       87.703       64.885       29.117       22.454       21.370       17.646      504.171      456.661      311.393        0.701        0.064      109.096       12.418        0.013      342.694       18.284      866.492
11/08/2014  16:46:00       76.124       59.347       25.547       18.269       23.221       17.055      333.762      539.206      290.867        0.557        0.058       96.524       14.293        0.022      342.628       18.170      866.506
11/08/2014  16:47:00       93.119       57.275       30.285       13.973       18.198       17.623      195.238      331.162      310.581        0.685        0.042      109.324       12.925        0.014      342.722       18.330      866.506
11/08/2014  16:48:00       61.864       46.686       16.953       39.485       25.103       18.588     1559.103      630.156      345.505        0.441        0.127       77.503       17.851        0.053      342.707       18.305      866.519
11/08/2014  16:49:00       54.295       42.844       10.648       35.551       20.591       22.397     1263.876      423.990      501.624        0.354        0.109       69.163       14.484        0.044      342.660       18.225      866.516
11/08/2014  16:50:00       25.655       58.524       -3.708       18.887       22.552       19.492      356.734      508.611      379.923        0.267        0.062       63.900       14.785        0.054      342.618       18.154      866.522
11/08/2014  16:51:00       25.231       87.374      -15.539       19.484       26.485       15.522      379.627      701.468      240.944        0.492        0.066       90.944       13.161        0.021      342.692       18.278      866.533
11/08/2014  16:52:00       27.059       73.192       -5.758       24.117       26.958       21.111      581.648      726.744      445.683        0.394        0.088       78.034       19.052        0.060      342.617       18.151      866.543
11/08/2014  16:53:00       21.414       81.366       -3.822       27.321       36.915       19.973      746.431     1362.708      398.923        0.480        0.125       84.137       18.412        0.048      342.613       18.145      866.551
11/08/2014  16:54:00       23.443      100.329      -10.297       23.209       31.712       19.072      538.658     1005.654      363.755        0.631        0.095      103.032       21.158        0.042      342.601       18.125      866.564
11/08/2014  16:55:00       31.933       66.249       -5.463       32.163       25.838       20.701     1034.446      667.621      428.526        0.378        0.107       73.544       16.477        0.050      342.544       18.028      866.564
11/08/2014  16:56:00       28.871       71.903      -10.485       25.706       37.811       22.348      660.792     1429.658      499.437        0.435        0.129       77.482       21.869        0.080      342.474       17.910      866.568
11/08/2014  16:57:00       24.538       76.970       -5.203       28.213       33.132       24.209      795.986     1097.697      586.062        0.452        0.124       80.787       21.942        0.074      342.413       17.806      866.577
11/08/2014  16:58:00       23.836       86.764       -4.798       19.784       26.606       16.317      391.409      707.861      266.257        0.474        0.068       89.978       13.111        0.021      342.379       17.749      866.576
11/08/2014  16:59:00       43.849       57.933        4.911       26.967       33.616       28.298      727.234     1130.064      800.794        0.398        0.133       72.657       25.539        0.124      342.326       17.657      866.573
11/08/2014  17:00:00       36.454       72.979        0.290       24.973       29.711       23.081      623.668      882.755      532.711        0.435        0.102       81.577       16.459        0.041      342.324       17.652      866.574
11/08/2014  17:01:00       40.034       66.905       -0.117       25.892       42.490       24.299      670.416     1805.397      590.458        0.457        0.153       77.968       23.252        0.089      342.340       17.682      866.561
11/08/2014  17:02:00       50.919       47.154        0.616       39.205       35.740       28.823     1537.045     1277.313      830.749        0.423        0.182       69.399       20.818        0.090      342.336       17.673      866.566
11/08/2014  17:03:00       64.181       73.758        7.796       47.138       33.248       29.983     2222.015     1105.410      899.003        0.692        0.211       97.772       28.301        0.084      342.372       17.735      866.558
11/08/2014  17:04:00       55.180       50.001       12.401       34.151       26.434       26.517     1166.302      698.754      703.126        0.413        0.128       74.465       20.364        0.075      342.304       17.620      866.554
11/08/2014  17:05:00       44.144       43.039        7.117       26.980       19.384       20.031      727.911      375.748      401.227        0.268        0.075       61.653       11.354        0.034      342.271       17.562      866.566
11/08/2014  17:06:00       60.300       59.811        3.982       38.129       19.598       21.832     1453.824      384.064      476.635        0.477        0.116       84.932       15.215        0.032      342.328       17.662      866.569
11/08/2014  17:07:00       56.755       49.362       10.991       33.733       27.835       29.604     1137.885      774.776      876.404        0.428        0.139       75.218       23.400        0.097      342.250       17.528      866.589
11/08/2014  17:08:00       39.759       65.453       -2.837       27.797       33.749       23.535      772.659     1138.962      553.875        0.417        0.123       76.583       19.781        0.067      342.255       17.536      866.594
11/08/2014  17:09:00       57.991       62.123        1.665       33.946       35.980       26.868     1152.330     1294.558      721.875        0.520        0.158       84.984       20.969        0.061      342.267       17.556      866.615
11/08/2014  17:10:00       49.782       56.460        2.431       35.674       28.501       27.376     1272.649      812.331      749.447        0.425        0.142       75.273       18.341        0.059      342.222       17.480      866.620
11/08/2014  17:11:00       34.371       63.089        0.369       38.582       36.830       27.114     1488.540     1356.419      735.167        0.437        0.179       71.844       21.959        0.093      342.169       17.391      866.629
11/08/2014  17:12:00       76.212       70.766        7.325       34.281       28.197       34.868     1175.189      795.093     1215.800        0.703        0.159      104.001       17.030        0.027      342.188       17.424      866.624
11/08/2014  17:13:00       36.400       78.939       -5.518       27.355       43.479       24.474      748.307     1890.428      598.997        0.541        0.162       86.928       23.488        0.073      342.119       17.307      866.639
11/08/2014  17:14:00       36.552       93.443      -10.133       29.415       36.638       29.904      865.220     1342.308      894.255        0.664        0.155      100.338       26.995        0.072      342.099       17.272      866.624
11/08/2014  17:15:00       42.238       63.832        0.076       27.382       38.717       29.216      749.801     1499.005      853.569        0.448        0.155       76.541       26.048        0.116      342.072       17.226      866.624
11/08/2014  17:16:00       29.577       93.466       -8.157       33.533       41.584       24.231     1124.485     1729.199      587.138        0.656        0.172       98.034       22.871        0.054      342.039       17.170      866.617
11/08/2014  17:17:00       19.711      108.716       -9.719       27.981       48.342       31.736      782.926     2336.955     1007.158        0.821        0.206      110.488       32.185        0.085      342.054       17.194      866.613
11/08/2014  17:18:00       19.978      110.862       -8.198       30.573       48.237       25.484      934.681     2326.844      649.424        0.833        0.196      112.647       28.277        0.063      341.976       17.062      866.610
11/08/2014  17:19:00       29.954      122.833      -14.703       26.472       44.988       23.231      700.745     2023.965      539.679        0.973        0.163      126.433       22.124        0.031      341.940       17.001      866.609
11/08/2014  17:20:00       -1.164       87.304      -14.690       15.033       15.969       12.167      225.980      254.996      148.039        0.423        0.031       87.312        4.590        0.003      341.918       16.965      866.622
11/08/2014  17:21:00       -3.596       67.632      -11.280       18.026       25.773       10.650      324.925      664.267      113.412        0.291        0.055       67.727        4.481        0.004      341.935       16.994      866.632
11/08/2014  17:22:00      -38.022       61.425      -10.515       16.150       29.798       13.103      260.838      887.920      171.698        0.332        0.066       72.240       11.871        0.027      341.858       16.861      866.651
11/08/2014  17:23:00      -45.895       68.444      -10.746       20.619       27.976       17.784      425.148      782.652      316.277        0.421        0.076       82.407       16.250        0.039      341.762       16.700      866.660
11/08/2014  17:24:00       -3.767       63.049       -4.532       18.416       18.622       11.682      339.148      346.769      136.467        0.242        0.041       63.161        8.945        0.020      341.886       16.910      866.671
11/08/2014  17:25:00      -21.382       58.113      -14.629       24.169       22.822       14.144      584.148      520.863      200.049        0.268        0.065       61.921       10.680        0.030      341.829       16.813      866.670
11/08/2014  17:26:00      -41.494       16.910       -4.700       16.518       22.903       11.285      272.849      524.569      127.358        0.148        0.046       44.807        9.394        0.044      341.619       16.457      866.674
11/08/2014  17:27:00      -31.230       -5.431       -7.936        9.448        8.668        5.025       89.260       75.137       25.249        0.063        0.009       31.698        4.188        0.017      341.474       16.212      866.676
11/08/2014  17:28:00      -39.980       -8.576       -8.235       19.333       16.695        6.399      373.765      278.739       40.952        0.122        0.035       40.889        6.433        0.025      341.509       16.272      866.681
11/08/2014  17:29:00      -45.324       -3.675       -7.699       21.704       13.842        7.998      471.064      191.606       63.975        0.143        0.036       45.473        5.039        0.012      341.415       16.112      866.687
11/08/2014  17:30:00      -56.333       -8.644      -10.705       11.835       14.781       11.022      140.063      218.464      121.488        0.192        0.024       56.992        8.487        0.022      341.335       15.977      866.684
11/08/2014  17:31:00      -71.910       -1.187       -6.834       26.311       20.755       13.229      692.272      430.762      175.009        0.326        0.065       71.920       12.427        0.030      341.310       15.933      866.683
11/08/2014  17:32:00      -91.825       -8.291       -7.974       28.285       18.841       13.545      800.015      354.994      183.479        0.495        0.067       92.198       11.857        0.017      341.235       15.806      866.679
11/08/2014  17:33:00      -96.834      -11.508      -15.534       21.466       19.516       11.262      460.809      380.878      126.822        0.536        0.048       97.516        9.117        0.009      341.197       15.744      866.686
11/08/2014  17:34:00      -75.141        1.262        2.123       38.458       28.656       18.692     1479.002      821.175      349.394        0.415        0.132       75.152       19.821        0.070      341.286       15.894      866.682
11/08/2014  17:35:00      -59.443       -8.972        1.757       32.466       26.605       15.806     1054.012      707.804      249.843        0.281        0.101       60.116       17.161        0.081      341.265       15.858      866.696
11/08/2014  17:36:00      -64.190       -8.829       -7.961       30.792       21.035       14.499      948.139      442.459      210.219        0.293        0.080       64.794       13.668        0.045      341.092       15.564      866.695
11/08/2014  17:37:00      -44.109      -13.733        3.740       29.865       22.183       15.043      891.915      492.086      226.280        0.188        0.081       46.197       12.995        0.079      341.034       15.465      866.708
11/08/2014  17:38:00      -37.581       -8.759        7.848       29.986       28.688       18.310      899.184      823.013      335.266        0.180        0.103       38.588       18.123        0.221      341.109       15.594      866.713
11/08/2014  17:39:00      -80.013       -9.879       -1.923       17.731       20.501       12.367      314.389      420.299      152.938        0.370        0.044       80.620        7.299        0.008      341.119       15.611      866.729
11/08/2014  17:40:00      -64.784      -17.100       -0.046       17.626       16.778       12.566      310.665      281.500      157.910        0.262        0.038       67.003       11.069        0.027      341.050       15.494      866.747
11/08/2014  17:41:00      -27.755      -16.013        5.085       23.567       17.906       10.415      555.400      320.635      108.473        0.102        0.049       32.043        8.491        0.070      341.047       15.489      866.758
11/08/2014  17:42:00      -71.835       -2.714       -1.302       27.998       20.147       15.856      783.913      405.903      251.422        0.330        0.072       71.886       12.976        0.033      341.055       15.503      866.773
11/08/2014  17:43:00      -64.576      -10.946       -1.523       16.987       18.188       12.290      288.574      330.796      151.040        0.253        0.039       65.498        3.927        0.004      341.002       15.414      866.776
11/08/2014  17:44:00      -64.369      -20.574       -5.634       14.445       15.739        9.741      208.664      247.722       94.896        0.257        0.028       67.577        7.079        0.011      341.071       15.531      866.787
11/08/2014  17:45:00      -55.250      -24.148       -7.712       16.211       17.962       12.290      262.792      322.644      151.051        0.222        0.037       60.297        9.469        0.025      341.056       15.505      866.795
11/08/2014  17:46:00      -39.685      -40.367       -8.350       17.517       21.052       12.591      306.837      443.171      158.528        0.209        0.045       56.608        8.776        0.024      341.038       15.473      866.805
11/08/2014  17:47:00      -34.463      -37.919      -10.120       17.355       21.193       10.515      301.209      449.134      110.566        0.179        0.043       51.240       10.084        0.039      341.047       15.488      866.801
11/08/2014  17:48:00      -41.796      -28.741      -15.200       27.631       20.730       13.092      763.481      429.734      171.396        0.208        0.068       50.724       14.667        0.084      341.073       15.533      866.795
11/08/2014  17:49:00      -37.139      -49.066       -2.392       25.591       21.446       21.341      654.916      459.915      455.447        0.268        0.079       61.537       16.352        0.071      340.956       15.333      866.785
11/08/2014  17:50:00      -23.940      -26.780       -0.230       22.896       22.657       14.730      524.228      513.353      216.969        0.127        0.063       35.921       13.369        0.139      340.868       15.184      866.784
11/08/2014  17:51:00      -36.434      -28.008       -0.685       19.616       20.361       16.957      384.791      414.579      287.532        0.160        0.054       45.955       12.949        0.079      340.802       15.074      866.774
11/08/2014  17:52:00      -63.689      -15.762       -0.194       23.098       21.213       15.086      533.496      449.990      227.589        0.276        0.061       65.610        8.181        0.016      340.718       14.932      866.782
11/08/2014  17:53:00      -71.622       -8.087       -2.129       30.747       29.430       14.719      945.392      866.143      216.649        0.361        0.101       72.077       10.453        0.021      340.812       15.090      866.780
11/08/2014  17:54:00      -32.710      -17.049        6.963       21.556       24.453       18.809      464.653      597.950      353.790        0.141        0.071       36.887       12.836        0.121      340.695       14.893      866.785
11/08/2014  17:55:00      -29.316      -12.348       10.305       25.160       29.088       17.579      633.029      846.104      309.029        0.145        0.089       31.810       11.110        0.122      340.722       14.937      866.796
11/08/2014  17:56:00      -43.137        4.032        6.066       30.808       33.218       22.679      949.158     1103.404      514.340        0.224        0.128       43.326       21.357        0.243      340.731       14.953      866.807
11/08/2014  17:57:00      -81.269      -27.641        4.215       34.391       33.342       16.027     1182.769     1111.698      256.861        0.497        0.128       85.841       14.572        0.029      340.664       14.842      866.816
11/08/2014  17:58:00      -47.058      -22.698       -3.855       19.120       19.362       15.877      365.570      374.905      252.068        0.187        0.050       52.246       10.909        0.044      340.553       14.652      866.830
11/08/2014  17:59:00      -73.095       -9.071       -2.142       26.548       18.242       13.263      704.772      332.765      175.913        0.332        0.061       73.655       10.315        0.020      340.565       14.673      866.845
11/08/2014  18:00:00      -58.931      -27.180       -9.713       23.608       17.709       13.184      557.349      313.619      173.816        0.268        0.052       64.897        8.163        0.016      340.505       14.571      866.855
11/08/2014  18:01:00      -75.554      -29.853       -6.902       35.356       21.490       10.831     1250.079      461.823      117.317        0.424        0.091       81.238       10.807        0.018      340.521       14.599      866.859
11/08/2014  18:02:00      -66.090      -22.537       -6.895       22.209       15.908       17.530      493.257      253.059      307.314        0.299        0.053       69.827        9.575        0.019      340.508       14.576      866.857
11/08/2014  18:03:00      -50.235      -37.108       -8.491       24.785       19.992       15.718      614.276      399.674      247.066        0.262        0.063       62.454       10.097        0.026      340.506       14.573      866.859
11/08/2014  18:04:00      -63.379      -36.441       -1.955       27.993       22.204       15.584      783.612      493.032      242.862        0.343        0.076       73.108        8.096        0.012      340.499       14.562      866.850
11/08/2014  18:05:00      -55.425      -64.554      -10.205       27.182       23.604       18.715      738.860      557.135      350.252        0.449        0.082       85.083       11.493        0.018      340.522       14.602      866.856
11/08/2014  18:06:00      -75.325      -41.096       -4.056       29.280       25.314       14.894      857.308      640.789      221.845        0.455        0.086       85.807       15.241        0.032      340.536       14.624      866.852
11/08/2014  18:07:00      -58.131      -26.716       -2.539       17.588       23.100       15.530      309.323      533.632      241.170        0.259        0.054       63.976        9.369        0.021      340.519       14.594      866.863
11/08/2014  18:08:00      -46.872      -32.168       -6.019       20.622       19.073       15.390      425.285      363.783      236.860        0.215        0.051       56.849       11.919        0.044      340.547       14.641      866.864
11/08/2014  18:09:00      -52.123      -15.736      -12.843       15.437       17.829       12.863      238.294      317.856      165.445        0.193        0.036       54.447        9.175        0.028      340.578       14.696      866.871
11/08/2014  18:10:00      -41.360      -22.790      -14.169       15.566       14.847       12.064      242.314      220.434      145.533        0.152        0.030       47.223        5.244        0.012      340.599       14.730      866.870
11/08/2014  18:11:00      -39.771      -19.395      -12.172       12.426       11.032        7.303      154.413      121.711       53.337        0.122        0.016       44.248        7.055        0.025      340.604       14.740      866.887
11/08/2014  18:12:00      -61.489      -18.680      -11.258       18.730       20.887       15.322      350.831      436.276      234.765        0.264        0.051       64.264       12.134        0.036      340.616       14.761      866.889
11/08/2014  18:13:00      -51.759      -27.266       -5.592       18.451       21.937       12.456      340.457      481.211      155.163        0.222        0.049       58.501       12.175        0.043      340.547       14.643      866.896
11/08/2014  18:14:00      -46.380      -32.059       -7.276       18.563       18.538       11.558      344.566      343.673      133.588        0.203        0.041       56.381        5.228        0.009      340.474       14.518      866.902
11/08/2014  18:15:00      -53.898      -35.655      -11.214       26.240       18.761       12.422      688.528      351.984      154.310        0.275        0.060       64.624       13.071        0.041      340.353       14.316      866.906
11/08/2014  18:16:00      -89.703      -32.603      -11.514       14.599       13.377       11.298      213.144      178.955      127.641        0.488        0.026       95.444        6.781        0.005      340.286       14.202      866.915
11/08/2014  18:17:00      -82.983      -30.846      -18.259       19.804       15.487       13.458      392.190      239.846      181.110        0.449        0.041       88.530        9.738        0.012      340.333       14.281      866.913
11/08/2014  18:18:00      -96.547      -37.384      -17.737       13.289       10.511       10.625      176.604      110.487      112.899        0.572        0.020      103.532        6.714        0.004      340.279       14.190      866.914
11/08/2014  18:19:00     -111.712      -47.225      -13.030       11.246       16.746        8.923      126.462      280.434       79.628        0.768        0.024      121.284        6.596        0.003      340.218       14.087      866.902
11/08/2014  18:20:00     -114.201      -26.291      -17.531       12.675       12.141        8.027      160.666      147.413       64.431        0.721        0.019      117.189        6.766        0.003      340.241       14.125      866.888
11/08/2014  18:21:00     -116.648      -32.985      -17.422       13.800       10.724        9.103      190.447      115.004       82.857        0.769        0.019      121.222        6.332        0.003      340.277       14.185      866.872
11/08/2014  18:22:00     -120.506      -42.548      -16.632        8.405       10.287        7.154       70.643      105.826       51.179        0.842        0.011      127.797        3.416        0.001      340.292       14.211      866.858
11/08/2014  18:23:00     -103.167      -12.880       -4.747       28.638       19.472       18.082      820.162      379.173      326.948        0.618        0.076      103.968       19.478        0.035      340.323       14.264      866.857
11/08/2014  18:24:00     -114.914      -16.555      -10.414       21.389       17.200       12.000      457.475      295.847      144.010        0.724        0.045      116.101       11.944        0.011      340.310       14.241      866.843
11/08/2014  18:25:00     -115.056      -28.214       -7.255       20.337       17.228       10.541      413.590      296.817      111.106        0.745        0.041      118.465        9.142        0.006      340.340       14.293      866.840
11/08/2014  18:26:00      -80.798      -18.395        1.881       29.562       20.183       16.407      873.911      407.341      269.196        0.421        0.078       82.865       16.828        0.041      340.260       14.157      866.841
11/08/2014  18:27:00      -97.659      -18.935       -6.286       28.030       16.883       15.015      785.696      285.038      225.445        0.562        0.065       99.477       15.690        0.025      340.274       14.181      866.848
11/08/2014  18:28:00     -109.554      -25.256       -4.231       17.393       16.141       10.904      302.531      260.524      118.896        0.667        0.034      112.427        8.483        0.006      340.244       14.130      866.852
11/08/2014  18:29:00     -106.466      -20.194       -6.760       22.322       14.926       11.577      498.274      222.795      134.037        0.632        0.043      108.364        8.093        0.006      340.276       14.185      866.856
11/08/2014  18:30:00     -114.616      -27.614       -2.444       28.430       15.491       15.215      808.267      239.984      231.494        0.759        0.064      117.895       14.652        0.015      340.272       14.177      866.871
11/08/2014  18:31:00     -110.617      -26.445       -7.033       25.033       21.060       13.133      626.633      443.509      172.484        0.711        0.062      113.734       11.014        0.009      340.201       14.058      866.864
11/08/2014  18:32:00     -114.539      -36.986      -11.700       27.872       17.076       13.231      776.838      291.579      175.054        0.793        0.062      120.363       12.016        0.010      340.158       13.987      866.866
11/08/2014  18:33:00     -127.625      -31.307       -9.742       19.438       18.560       12.963      377.835      344.474      168.036        0.913        0.045      131.409       11.337        0.007      340.109       13.902      866.868
11/08/2014  18:34:00     -110.990      -26.287       -8.138       19.816       20.520       14.252      392.676      421.089      203.117        0.705        0.051      114.061       10.431        0.008      340.088       13.867      866.863
11/08/2014  18:35:00      -86.579      -32.773       -6.523       24.122       16.938       11.725      581.871      286.885      137.476        0.481        0.050       92.574        9.115        0.010      340.104       13.893      866.870
11/08/2014  18:36:00      -90.931      -25.108       -7.541       21.214       17.553       14.703      450.042      308.093      216.176        0.496        0.049       94.334       12.852        0.019      340.166       13.999      866.859
11/08/2014  18:37:00      -90.134      -50.254      -10.311       27.493       30.985       16.042      755.880      960.089      257.332        0.636        0.099      103.197        9.748        0.009      340.090       13.870      866.867
11/08/2014  18:38:00     -127.366      -49.568      -12.042       20.243       26.917       12.717      409.769      724.547      161.717        1.006        0.065      136.671        7.452        0.003      340.059       13.821      866.858
11/08/2014  18:39:00     -125.904      -26.503      -13.384       19.211       15.533       15.081      369.076      241.284      227.423        0.879        0.042      128.663        7.996        0.004      340.003       13.725      866.860
11/08/2014  18:40:00      -95.091      -40.332       -6.642       22.581       17.192       18.355      509.894      295.575      336.893        0.593        0.057      103.291       15.368        0.022      340.008       13.734      866.874
11/08/2014  18:41:00     -143.827      -46.405      -20.592       14.158       20.853       11.844      200.437      434.859      140.279        1.202        0.039      151.127        7.806        0.003      339.946       13.629      866.874
11/08/2014  18:42:00      -72.411      -55.279       -6.610       33.385       22.808       14.698     1114.585      520.224      216.017        0.510        0.093       91.100        9.726        0.011      339.907       13.563      866.882
11/08/2014  18:43:00      -98.495      -64.390      -14.903       26.822       26.884       15.239      719.425      722.759      232.220        0.787        0.084      117.675       11.219        0.009      339.910       13.569      866.888
11/08/2014  18:44:00      -56.235      -30.908       -2.521       38.712       28.849       17.193     1498.633      832.237      295.587        0.337        0.131       64.169       16.529        0.066      339.887       13.529      866.879
11/08/2014  18:45:00     -104.629      -44.521      -11.202       25.637       18.972       12.621      657.273      359.927      159.289        0.712        0.059      113.707        9.729        0.007      339.840       13.450      866.881
11/08/2014  18:46:00     -108.907      -30.147      -14.936       19.201       27.365       16.238      368.698      748.822      263.672        0.719        0.069      113.003       13.941        0.015      339.848       13.463      866.882
11/08/2014  18:47:00      -89.395      -26.665      -16.794       23.495       27.295       16.375      552.000      745.038      268.152        0.527        0.078       93.287        9.914        0.011      339.863       13.488      866.889
11/08/2014  18:48:00      -81.505      -39.571      -18.917       29.330       24.635       16.852      860.225      606.897      283.993        0.516        0.088       90.603       12.448        0.019      339.869       13.497      866.890
11/08/2014  18:49:00     -103.946      -39.941      -14.237       19.762       23.163       16.875      390.553      536.521      284.757        0.691        0.061      111.356       13.035        0.014      339.803       13.386      866.882
11/08/2014  18:50:00      -96.107      -51.276      -13.054       19.260       15.075       13.021      370.942      227.250      169.536        0.640        0.038      108.930        8.124        0.006      339.810       13.400      866.890
11/08/2014  18:51:00     -118.610      -32.457      -17.511       19.092       18.062        9.088      364.497      326.242       82.598        0.810        0.039      122.970        4.189        0.001      339.766       13.325      866.891
11/08/2014  18:52:00     -129.806      -28.064      -10.094       25.798       19.376       15.415      665.540      375.436      237.609        0.951        0.064      132.805       11.173        0.007      339.740       13.282      866.901
11/08/2014  18:53:00      -60.909      -44.106      -14.486       30.181       18.895       17.228      910.917      357.009      296.799        0.371        0.078       75.201       15.124        0.040      339.725       13.257      866.897
11/08/2014  18:54:00      -77.084      -21.817      -11.504       32.781       20.658       16.666     1074.590      426.739      277.741        0.416        0.089       80.112        7.787        0.009      339.782       13.351      866.891
11/08/2014  18:55:00      -83.763      -31.445      -15.443       38.863       30.221       23.790     1510.347      913.286      565.976        0.562        0.149       89.471       22.043        0.061      339.719       13.247      866.883
11/08/2014  18:56:00      -80.465      -43.313      -17.636       44.778       22.669       17.697     2005.031      513.901      313.184        0.575        0.142       91.382       16.592        0.033      339.702       13.216      866.875
11/08/2014  18:57:00      -27.004      -22.546        0.992       33.916       26.916       18.427     1150.273      724.489      339.564        0.173        0.111       35.179       19.051        0.293      339.679       13.178      866.881
11/08/2014  18:58:00      -42.219      -22.827       -3.304       25.892       24.810       26.570      670.401      615.528      705.953        0.215        0.100       47.995       14.418        0.090      339.669       13.161      866.878
11/08/2014  18:59:00      -91.484      -31.632      -16.327       25.298       31.892       16.839      639.978     1017.077      283.550        0.579        0.097       96.799        8.084        0.007      339.654       13.136      866.879
11/08/2014  19:00:00      -53.189      -28.807       -4.102       24.991       31.145       17.689      624.554      970.012      312.888        0.279        0.095       60.489       12.041        0.040      339.698       13.211      866.867
11/08/2014  19:01:00      -93.211      -13.562       -6.350       51.560       23.878       19.011     2658.466      570.177      361.426        0.625        0.180       94.192       23.847        0.064      339.755       13.307      866.856
11/08/2014  19:02:00      -98.205      -29.100      -10.248       22.437       25.380       12.829      503.410      644.147      164.578        0.595        0.066      102.426        8.441        0.007      339.696       13.207      866.851
11/08/2014  19:03:00      -82.424      -33.398       -8.101       27.179       22.172       16.493      738.718      491.593      272.008        0.474        0.075       88.933        9.478        0.011      339.710       13.230      866.840
11/08/2014  19:04:00      -59.716       -4.297       -0.410       23.709       25.811       17.375      562.116      666.217      301.902        0.256        0.077       59.871       12.079        0.041      339.670       13.164      866.839
11/08/2014  19:05:00      -62.665      -13.048       -1.395       32.473       20.600       16.065     1054.520      424.380      258.074        0.292        0.087       64.009       12.445        0.038      339.733       13.268      866.835
11/08/2014  19:06:00      -52.358      -20.275       -3.384       27.885       22.285       16.724      777.549      496.632      279.695        0.236        0.078       56.146       16.100        0.082      339.753       13.303      866.827
11/08/2014  19:07:00      -21.934      -24.128      -11.030       21.562       22.543       14.058      464.925      508.172      197.636        0.118        0.059       32.608        9.061        0.077      339.741       13.283      866.832
11/08/2014  19:08:00      -18.258      -23.234       10.096       23.361       20.604       16.858      545.738      424.520      284.199        0.111        0.063       29.549       14.441        0.239      339.680       13.180      866.821
11/08/2014  19:09:00      -25.794      -20.155        6.510       28.348       23.356       18.311      803.635      545.520      335.288        0.140        0.084       32.735       16.612        0.258      339.667       13.157      866.817
11/08/2014  19:10:00      -82.271      -49.491       -6.223       15.459       15.735        9.655      238.985      247.584       93.215        0.492        0.029       96.010        8.607        0.008      339.648       13.127      866.810
11/08/2014  19:11:00     -109.725      -56.471      -17.142       16.836       18.085       12.030      283.442      327.074      144.723        0.814        0.038      123.404        6.279        0.003      339.701       13.215      866.796
11/08/2014  19:12:00     -109.322      -41.880       -8.592       17.890       17.144       13.852      320.066      293.919      191.892        0.729        0.040      117.070       12.178        0.011      339.656       13.138      866.801
11/08/2014  19:13:00      -85.481      -37.061       -6.366       19.504       14.498       13.933      380.406      210.203      194.126        0.475        0.039       93.169       11.063        0.014      339.670       13.162      866.799
11/08/2014  19:14:00     -130.983      -46.249      -11.831       19.089       21.407       14.783      364.387      458.277      218.529        1.024        0.052      138.909        6.097        0.002      339.743       13.288      866.806
11/08/2014  19:15:00     -112.962      -45.365       -8.714       14.688       20.876       13.038      215.726      435.791      169.996        0.786        0.041      121.731       10.485        0.007      339.775       13.340      866.805
11/08/2014  19:16:00      -89.635      -80.264       -5.319       25.037       31.771       19.150      626.864     1009.396      366.717        0.825        0.100      120.319        7.690        0.004      339.782       13.352      866.799
11/08/2014  19:17:00      -92.679      -61.490       -6.269       30.931       18.170       13.446      956.698      330.152      180.791        0.694        0.073      111.223       14.089        0.016      339.695       13.204      866.810
11/08/2014  19:18:00     -104.982      -50.516       -5.956       31.385       22.941       16.465      985.038      526.308      271.088        0.770        0.089      116.504       11.278        0.009      339.692       13.200      866.816
11/08/2014  19:19:00      -94.885      -23.870       -7.805       37.831       28.155       20.318     1431.187      792.687      412.803        0.613        0.132       97.842       23.923        0.060      339.612       13.064      866.815
11/08/2014  19:20:00      -85.909      -30.163       -2.610       41.119       31.107       19.673     1690.785      967.643      387.042        0.567        0.152       91.050       21.664        0.057      339.589       13.026      866.835
11/08/2014  19:21:00      -96.227      -40.083       -5.782       21.429       31.634       11.869      459.200     1000.688      140.862        0.625        0.080      104.241       10.234        0.010      339.657       13.140      866.838
11/08/2014  19:22:00     -114.414      -53.308       -6.341       26.306       21.965       15.992      691.996      482.479      255.753        0.870        0.072      126.223        8.448        0.004      339.687       13.191      866.847
11/08/2014  19:23:00      -99.520      -32.676       -2.958       30.401       29.651       16.328      924.235      879.198      266.620        0.652        0.104      104.747       13.899        0.018      339.655       13.138      866.864
11/08/2014  19:24:00      -86.145      -52.639       -7.342       23.797       13.832       14.126      566.290      191.323      199.533        0.560        0.048      100.955        9.814        0.009      339.602       13.048      866.867
11/08/2014  19:25:00      -91.615      -52.207       -2.329       33.098       21.370       17.716     1095.489      456.673      313.851        0.649        0.093      105.446       17.012        0.026      339.551       12.961      866.883
11/08/2014  19:26:00      -96.637      -59.896       -5.195       32.109       20.367       18.776     1030.972      414.829      352.544        0.738        0.090      113.694       12.146        0.011      339.550       12.960      866.888
11/08/2014  19:27:00      -86.194      -68.312       -2.438       30.716       20.394       15.181      943.481      415.915      230.455        0.685        0.079      109.982       15.156        0.019      339.547       12.955      866.883
11/08/2014  19:28:00      -97.260      -55.264       -7.673       23.121       19.716       16.251      534.575      388.740      264.103        0.688        0.059      111.864       12.418        0.012      339.503       12.881      866.873
11/08/2014  19:29:00      -80.376      -34.187      -12.461       21.202       19.717       15.078      449.527      388.768      227.343        0.442        0.053       87.344        9.864        0.013      339.539       12.941      866.867
11/08/2014  19:30:00      -44.242      -36.763       -9.129       33.888       22.738       22.327     1148.407      517.012      498.493        0.278        0.108       57.523       17.667        0.094      339.508       12.888      866.854
11/08/2014  19:31:00      -64.033       -7.785       -8.512       21.227       22.315       13.370      450.595      497.977      178.744        0.268        0.056       64.505        8.057        0.016      339.517       12.903      866.847
11/08/2014  19:32:00      -82.490       -4.750      -14.230       18.077       18.889       15.217      326.765      356.803      231.562        0.397        0.046       82.626        7.021        0.007      339.484       12.848      866.845
11/08/2014  19:33:00      -71.947      -24.039      -12.905       31.348       26.814       22.252      982.673      719.014      495.152        0.406        0.110       75.857       16.404        0.047      339.460       12.806      866.836
11/08/2014  19:34:00      -86.890      -29.781      -19.308       29.165       21.854       20.635      850.583      477.601      425.823        0.528        0.088       91.851       13.487        0.022      339.448       12.786      866.830
11/08/2014  19:35:00      -52.363      -45.776       -2.839       44.585       25.994       22.469     1987.789      675.679      504.835        0.401        0.158       69.551       26.346        0.143      339.356       12.634      866.834
11/08/2014  19:36:00      -43.019      -25.661        3.192       45.487       25.260       33.282     2069.050      638.089     1107.679        0.317        0.191       50.091       33.150        0.438      339.405       12.715      866.826
11/08/2014  19:37:00     -103.134      -63.634      -10.799       48.162       26.374       16.322     2319.555      695.563      266.404        0.904        0.164      121.185       11.430        0.009      339.397       12.702      866.826
11/08/2014  19:38:00     -128.715      -45.482       -9.210       23.026       20.207       12.899      530.175      408.318      166.392        0.991        0.055      136.514        9.838        0.005      339.372       12.660      866.831
11/08/2014  19:39:00     -106.078      -37.860      -10.555       32.439       18.600       12.982     1052.272      345.971      168.535        0.718        0.078      112.632       12.178        0.012      339.410       12.724      866.828
11/08/2014  19:40:00      -82.153      -42.305       -6.714       15.431       20.212       10.334      238.127      408.525      106.792        0.467        0.038       92.405        7.224        0.006      339.477       12.837      866.823
11/08/2014  19:41:00      -97.207      -22.806      -11.222       13.065       15.142        9.393      170.686      229.293       88.234        0.529        0.024       99.846        7.769        0.006      339.425       12.750      866.827
11/08/2014  19:42:00      -74.738      -37.758       -8.007       21.595       16.009       12.488      466.345      256.276      155.945        0.398        0.044       83.734       13.496        0.026      339.378       12.672      866.810
11/08/2014  19:43:00      -88.136       -8.871      -10.094       20.747       16.189       12.246      430.424      262.075      149.976        0.440        0.042       88.582       10.050        0.013      339.382       12.678      866.799
11/08/2014  19:44:00      -86.185      -18.537       -8.952       23.808       14.695       11.571      566.830      215.939      133.883        0.438        0.046       88.156        7.870        0.008      339.418       12.738      866.806
11/08/2014  19:45:00      -58.152      -12.858       -4.309       42.022       25.333       15.968     1765.812      641.748      254.963        0.311        0.133       59.557       20.732        0.121      339.374       12.664      866.796
11/08/2014  19:46:00      -49.258      -28.477       -1.739       20.326       22.709       13.616      413.148      515.695      185.400        0.218        0.056       56.897       10.840        0.036      339.396       12.702      866.794
11/08/2014  19:47:00      -65.132      -24.358      -14.589       25.469       19.521       13.238      648.660      381.063      175.238        0.313        0.060       69.538        4.175        0.004      339.349       12.621      866.799
11/08/2014  19:48:00      -76.675      -10.966       -9.178       27.822       19.592       20.039      774.062      383.866      401.573        0.382        0.078       77.455       12.872        0.028      339.348       12.619      866.790
11/08/2014  19:49:00      -83.883      -13.662       -4.541       34.374       24.180       20.978     1181.601      584.686      440.056        0.472        0.110       84.988       20.857        0.060      339.291       12.523      866.784
11/08/2014  19:50:00     -103.291        6.323      -11.125       45.083       29.560       19.246     2032.493      873.808      370.426        0.705        0.164      103.485       20.388        0.039      339.321       12.573      866.785
11/08/2014  19:51:00      -27.188        1.906        9.519       20.882       22.001       17.313      436.056      484.024      299.724        0.103        0.061       27.255       13.768        0.255      339.237       12.433      866.773
11/08/2014  19:52:00      -66.072        9.563       -1.655       38.903       26.852       19.695     1513.424      721.034      387.904        0.354        0.131       66.760       20.724        0.096      339.268       12.485      866.762
11/08/2014  19:53:00      -76.433      -10.806       -3.878       31.282       29.058       18.210      978.534      844.364      331.599        0.406        0.108       77.193       15.822        0.042      339.292       12.523      866.759
11/08/2014  19:54:00      -85.842       -6.845       -9.057       29.717       21.168       14.668      883.104      448.068      215.142        0.452        0.077       86.115       16.163        0.035      339.308       12.550      866.759
11/08/2014  19:55:00      -87.778      -13.691       -9.409       33.841       18.644       17.956     1145.232      347.612      322.422        0.490        0.091       88.839       18.442        0.043      339.327       12.584      866.748
11/08/2014  19:56:00      -71.861      -24.582      -15.228       24.534       17.201       18.445      601.941      295.860      340.230        0.362        0.062       75.949        5.676        0.006      339.313       12.559      866.752
11/08/2014  19:57:00      -66.198      -35.663      -13.021       32.735       27.668       20.950     1071.582      765.520      438.895        0.405        0.114       75.193       18.196        0.059      339.313       12.560      866.763
11/08/2014  19:58:00      -49.932      -18.378       -7.688       36.476       21.617       22.354     1330.485      467.280      499.681        0.259        0.115       53.207       19.382        0.133      339.233       12.426      866.763
11/08/2014  19:59:00      -69.093      -33.205      -12.184       23.465       22.364       19.261      550.590      500.149      370.971        0.372        0.071       76.658       11.929        0.024      339.269       12.485      866.781
11/08/2014  20:00:00      -26.226      -39.747       -3.427       29.144       29.886       29.092      849.400      893.163      846.356        0.243        0.129       47.619       24.264        0.260      339.228       12.417      866.793
11/08/2014  20:01:00      -59.382      -43.728       -9.848       17.733       23.892       18.657      314.460      570.841      348.085        0.338        0.062       73.745       14.663        0.040      339.222       12.408      866.810
11/08/2014  20:02:00      -80.801      -39.239      -13.440       21.919       20.200       15.884      480.461      408.054      252.316        0.469        0.057       89.825       11.283        0.016      339.247       12.450      866.818
11/08/2014  20:03:00      -54.060      -33.397       -7.790       32.608       21.315       17.526     1063.261      454.309      307.151        0.296        0.091       63.544        8.755        0.019      339.197       12.367      866.838
11/08/2014  20:04:00      -41.172      -27.872       -8.798       27.804       24.935       17.253      773.063      621.764      297.680        0.212        0.085       49.719       15.600        0.098      339.176       12.330      866.844
11/08/2014  20:05:00      -53.900      -23.603       -7.429       27.178       16.140       14.110      738.628      260.504      199.099        0.236        0.060       58.841        9.247        0.025      339.166       12.312      866.862
11/08/2014  20:06:00      -59.036      -36.061       -4.255       16.502       24.092       16.282      272.314      580.424      265.105        0.296        0.056       69.178        9.121        0.017      339.186       12.345      866.876
11/08/2014  20:07:00      -26.293      -22.331       -6.608       25.892       20.375       20.712      670.399      415.155      428.985        0.137        0.076       34.496       14.951        0.188      339.178       12.333      866.881
11/08/2014  20:08:00       -4.262      -12.547       21.412       22.995       23.865       21.439      528.787      569.533      459.637        0.110        0.078       13.251       15.869        1.434      339.076       12.162      866.884
11/08/2014  20:09:00      -82.865      -34.330      -13.931       18.429       18.857       18.013      339.645      355.605      324.481        0.463        0.051       89.695        7.334        0.007      339.165       12.311      866.886
11/08/2014  20:10:00      -72.944      -58.500      -11.849       29.995       28.044       19.094      899.685      786.464      364.585        0.547        0.103       93.504       18.664        0.040      339.138       12.265      866.882
11/08/2014  20:11:00      -94.900      -48.485      -13.389       21.112       18.562       10.527      445.714      344.536      110.820        0.622        0.045      106.568        7.323        0.005      339.103       12.206      866.889
11/08/2014  20:12:00      -97.600      -54.421      -13.707       19.389       20.197       13.082      375.930      407.913      171.146        0.681        0.048      111.747       10.347        0.009      339.055       12.123      866.886
11/08/2014  20:13:00      -89.744      -46.035       -9.472       18.154       19.489       12.780      329.563      379.834      163.340        0.557        0.044      100.863       10.684        0.011      339.066       12.144      866.878
11/08/2014  20:14:00      -78.769      -60.760       -3.662       25.334       19.563       17.372      641.825      382.702      301.782        0.562        0.066       99.480       17.084        0.029      339.027       12.077      866.874
11/08/2014  20:15:00      -89.241      -43.616       -7.643       20.389       20.461       14.658      415.731      418.646      214.861        0.549        0.052       99.329        9.927        0.010      339.026       12.079      866.868
11/08/2014  20:16:00      -93.189      -33.202       -7.641       32.624       25.667       15.117     1064.355      658.806      228.512        0.590        0.098       98.927       16.029        0.026      339.024       12.074      866.864
11/08/2014  20:17:00      -68.824       -7.609       -0.433       36.391       20.639       14.412     1324.291      425.978      207.713        0.338        0.098       69.243       12.837        0.034      338.964       11.971      866.869
11/08/2014  20:18:00      -78.443       -8.459       -3.665       30.465       22.344       15.394      928.098      499.258      236.974        0.395        0.083       78.898       13.597        0.030      338.969       11.982      866.870
11/08/2014  20:19:00      -67.060       -7.349       -3.200       31.040       33.214       16.533      963.482     1103.160      273.353        0.345        0.117       67.461       16.604        0.061      338.979       11.998      866.866
11/08/2014  20:20:00      -63.633      -17.427       -4.693       20.528       19.628       13.243      421.386      385.240      175.386        0.268        0.049       65.976        7.857        0.014      339.031       12.086      866.868
11/08/2014  20:21:00      -67.567      -39.806      -18.389       25.438       22.606       13.171      647.110      511.025      173.474        0.391        0.067       78.421        6.555        0.007      339.023       12.071      866.876
11/08/2014  20:22:00      -14.234      -19.222        9.024       20.632       23.139       17.727      425.679      535.396      314.262        0.096        0.064       23.919       10.000        0.175      338.926       11.908      866.876
11/08/2014  20:23:00      -41.613      -37.447       -3.353       37.954       26.042       21.357     1440.510      678.164      456.136        0.286        0.129       55.981       21.235        0.144      338.963       11.972      866.880
11/08/2014  20:24:00      -87.156      -39.121      -13.220       30.675       25.591       21.079      940.986      654.904      444.308        0.567        0.102       95.533       16.698        0.031      338.972       11.986      866.893
11/08/2014  20:25:00      -75.434      -66.566      -19.803       32.598       26.416       24.400     1062.653      697.795      595.349        0.643        0.118      100.605       21.087        0.044      338.964       11.974      866.902
11/08/2014  20:26:00      -62.732      -37.816       -9.727       23.975       22.012       17.500      574.783      484.548      306.248        0.341        0.068       73.248       13.569        0.034      338.912       11.886      866.898
11/08/2014  20:27:00      -63.385      -53.530      -12.367       22.473       25.300       17.002      505.023      640.071      289.069        0.423        0.072       82.965       14.450        0.030      338.926       11.909      866.904
11/08/2014  20:28:00      -90.337      -51.730      -17.351       24.579       18.671       18.255      604.113      348.614      333.263        0.621        0.064      104.100       15.436        0.022      338.884       11.838      866.918
11/08/2014  20:29:00     -108.930      -43.186      -15.840       19.477       17.578       14.245      379.349      308.976      202.931        0.744        0.045      117.178        6.719        0.003      338.901       11.867      866.923
11/08/2014  20:30:00     -126.198      -39.054      -19.218       17.679       15.420       10.007      312.556      237.764      100.145        0.924        0.033      132.103        7.546        0.003      338.907       11.877      866.927
11/08/2014  20:31:00     -134.078      -25.349      -14.917       15.683       16.509       12.369      245.950      272.538      152.992        0.976        0.034      136.454        8.063        0.003      338.913       11.888      866.940
11/08/2014  20:32:00     -127.036      -32.182      -16.492       12.526       14.024        7.862      156.908      196.662       61.817        0.893        0.021      131.049        4.149        0.001      338.916       11.891      866.942
11/08/2014  20:33:00     -117.142      -31.930      -13.197       13.707        9.210        9.160      187.892       84.830       83.914        0.764        0.018      121.415        3.877        0.001      338.945       11.941      866.933
11/08/2014  20:34:00     -105.919      -34.778      -11.173       17.934       15.042       12.271      321.614      226.269      150.586        0.663        0.035      111.482        9.970        0.008      338.936       11.926      866.929
11/08/2014  20:35:00     -107.650      -31.672      -15.861       15.235       13.606       12.523      232.110      185.134      156.833        0.671        0.029      112.212        8.448        0.006      338.935       11.923      866.919
11/08/2014  20:36:00     -116.355      -31.455      -17.293       15.026       16.308       14.173      225.767      265.951      200.887        0.776        0.035      120.532        9.148        0.006      338.873       11.821      866.904
11/08/2014  20:37:00     -103.728      -30.958       -9.667       19.097       21.121       11.298      364.708      446.092      127.634        0.637        0.047      108.249        9.046        0.007      338.870       11.816      866.898
11/08/2014  20:38:00      -95.283      -53.358       -8.214       15.466       13.900       11.272      239.207      193.221      127.056        0.628        0.028      109.206        6.989        0.004      338.796       11.690      866.884
11/08/2014  20:39:00     -112.909      -41.315      -11.565       12.064       12.731        9.172      145.529      162.077       84.124        0.749        0.020      120.230        3.294        0.001      338.755       11.623      866.870
11/08/2014  20:40:00      -94.936      -37.445      -12.184       16.816       13.256        8.663      282.793      175.730       75.039        0.555        0.027      102.054        4.684        0.002      338.683       11.499      866.863
11/08/2014  20:41:00     -100.093      -41.798      -14.090       15.535       16.548       12.064      241.352      273.823      145.530        0.631        0.033      108.470        8.025        0.005      338.658       11.458      866.862
11/08/2014  20:42:00     -103.030      -55.501      -12.524       13.472       17.668       12.028      181.495      312.167      144.663        0.725        0.032      117.028        7.910        0.005      338.647       11.440      866.853
11/08/2014  20:43:00     -103.231      -49.665      -12.259       14.849       18.842        9.254      220.502      355.017       85.634        0.697        0.033      114.557        6.460        0.003      338.600       11.362      866.848
11/08/2014  20:44:00      -67.143      -42.656       -6.590       28.815       29.817       15.841      830.307      889.056      250.929        0.417        0.099       79.547       18.564        0.054      338.536       11.254      866.868
11/08/2014  20:45:00      -65.588      -37.414       -9.282       26.317       18.641       15.779      692.596      347.492      248.962        0.354        0.064       75.509       11.984        0.025      338.575       11.320      866.872
11/08/2014  20:46:00      -64.355      -46.484       -9.853       29.644       18.364       12.670      878.766      337.227      160.531        0.389        0.069       79.387        2.618        0.001      338.547       11.273      866.871
11/08/2014  20:47:00      -62.287      -48.019      -11.788       38.063       25.436       15.920     1448.780      646.986      253.455        0.434        0.117       78.647       15.184        0.037      338.531       11.245      866.874
11/08/2014  20:48:00      -52.941      -38.681        1.464       34.521       27.487       20.205     1191.724      755.548      408.257        0.333        0.118       65.567       18.796        0.082      338.483       11.164      866.876
11/08/2014  20:49:00      -66.413      -53.598       -4.462       24.395       23.771       15.006      595.140      565.041      225.194        0.434        0.069       85.343        7.135        0.007      338.500       11.192      866.877
11/08/2014  20:50:00      -88.088      -46.052      -10.610       15.769       16.156       11.199      248.660      261.011      125.425        0.531        0.032       99.400        8.140        0.007      338.490       11.177      866.881
11/08/2014  20:51:00     -101.844      -56.238      -13.716       15.040       14.998       11.059      226.212      224.926      122.301        0.715        0.029      116.340        5.790        0.002      338.473       11.148      866.904
11/08/2014  20:52:00      -91.909      -61.354      -10.371       22.752       17.959       15.402      517.658      322.513      237.229        0.670        0.054      110.506       12.846        0.014      338.448       11.107      866.905
11/08/2014  20:53:00     -103.051      -51.604       -9.677       18.717       18.438       13.341      350.312      339.941      177.975        0.712        0.043      115.250        7.365        0.004      338.455       11.117      866.902
11/08/2014  20:54:00     -105.153      -35.233      -14.321       16.571       15.666       10.847      274.583      245.412      117.651        0.657        0.032      110.898        7.159        0.004      338.445       11.100      866.909
11/08/2014  20:55:00     -100.891      -30.440      -12.920       12.839       12.806        9.377      164.835      163.998       87.932        0.584        0.021      105.383        7.256        0.005      338.503       11.198      866.914
11/08/2014  20:56:00     -113.479      -35.603      -21.880       11.163       13.381        8.559      124.617      179.048       73.264        0.750        0.019      118.933        4.754        0.002      338.557       11.291      866.909
11/08/2014  20:57:00      -96.878      -37.082      -11.824       15.992       21.296       13.017      255.754      453.513      169.449        0.589        0.044      103.733       12.239        0.014      338.570       11.311      866.907
11/08/2014  20:58:00      -92.392      -33.778       -7.215       10.855       13.360       10.145      117.836      178.486      102.919        0.506        0.020       98.373        7.399        0.006      338.504       11.199      866.916
11/08/2014  20:59:00     -104.079      -44.995      -11.105       12.458       15.537       12.238      155.202      241.410      149.777        0.676        0.027      113.389        7.929        0.005      338.458       11.122      866.917
11/08/2014  21:00:00     -117.403      -44.790      -12.492       19.772       16.099        9.880      390.948      259.193       97.620        0.835        0.037      125.656        5.687        0.002      338.471       11.145      866.915
11/08/2014  21:01:00     -121.846      -42.928      -14.606       21.009       14.763       12.177      441.386      217.947      148.280        0.885        0.040      129.187        9.236        0.005      338.454       11.117      866.923
11/08/2014  21:02:00     -103.235      -62.194      -13.336       19.998       21.579       13.479      399.918      465.658      181.678        0.788        0.052      120.523       10.603        0.008      338.426       11.069      866.929
11/08/2014  21:03:00      -55.298      -26.563        3.032       33.455       22.541       18.269     1119.269      508.084      333.770        0.287        0.098       61.347       19.495        0.101      338.340       10.925      866.918
11/08/2014  21:04:00      -78.317      -27.992       -9.818       24.407       26.307       18.195      595.725      692.061      331.053        0.432        0.081       83.169       15.031        0.033      338.319       10.889      866.903
11/08/2014  21:05:00      -74.882      -14.084       -9.294       16.118       17.439       15.700      259.804      304.118      246.499        0.335        0.041       76.195        9.063        0.014      338.324       10.898      866.904
11/08/2014  21:06:00      -89.092      -32.520      -11.612       21.552       27.050       16.253      464.494      731.696      264.152        0.529        0.073       94.841       11.333        0.014      338.342       10.930      866.896
11/08/2014  21:07:00      -86.217      -33.417       -5.929       37.329       22.144       16.111     1393.453      490.356      259.571        0.536        0.107       92.466       11.552        0.016      338.358       10.955      866.894
11/08/2014  21:08:00      -99.367      -20.992      -15.571       23.432       21.455       16.517      549.036      460.337      272.821        0.592        0.064      101.560       13.469        0.018      338.390       11.009      866.896
11/08/2014  21:09:00      -76.337      -19.095       -9.195       16.171       18.432       16.333      261.510      339.720      266.781        0.357        0.043       78.689       10.623        0.018      338.399       11.025      866.894
11/08/2014  21:10:00      -80.155      -30.704      -11.062       19.898       17.699       18.266      395.926      313.240      333.629        0.427        0.052       85.835        2.640        0.001      338.353       10.947      866.885
11/08/2014  21:11:00      -62.591      -28.712       -4.493       33.153       22.922       15.220     1099.114      525.403      231.648        0.331        0.093       68.862       11.397        0.027      338.302       10.862      866.888
11/08/2014  21:12:00      -21.666      -20.434        4.944       27.571       18.055       18.547      760.151      325.997      343.985        0.117        0.072       29.782       13.471        0.205      338.266       10.802      866.906
11/08/2014  21:13:00      -62.518      -42.590       -6.925       29.441       26.332       15.025      866.752      693.398      225.751        0.378        0.089       75.647       19.018        0.063      338.288       10.836      866.907
11/08/2014  21:14:00      -80.996      -61.717       -9.074       19.425       15.073       12.615      377.346      227.194      159.145        0.561        0.038      101.830        8.846        0.008      338.338       10.921      866.906
11/08/2014  21:15:00      -54.287      -35.908       -5.608       32.191       24.309       16.797     1036.261      590.928      282.134        0.309        0.095       65.089       19.718        0.092      338.386       11.003      866.901
11/08/2014  21:16:00      -66.019      -48.835       -9.852       13.845       15.944       10.037      191.690      254.217      100.743        0.369        0.027       82.118        7.605        0.009      338.351       10.942      866.893
11/08/2014  21:17:00      -77.049      -32.931      -11.647       30.687       23.409       16.099      941.706      547.976      259.193        0.445        0.087       83.792       19.964        0.057      338.366       10.969      866.878
11/08/2014  21:18:00      -91.516      -25.393      -16.289       17.264       18.556       11.994      298.041      344.342      143.847        0.504        0.039       94.973       10.436        0.012      338.359       10.957      866.868
11/08/2014  21:19:00      -84.178      -24.184      -14.788       16.057       16.641       11.640      257.825      276.924      135.492        0.428        0.034       87.584       10.599        0.015      338.353       10.945      866.875
11/08/2014  21:20:00      -88.522      -20.724       -9.149       17.799       20.303       13.885      316.820      412.225      192.784        0.464        0.046       90.916       13.634        0.022      338.337       10.921      866.874
11/08/2014  21:21:00     -106.894      -11.062      -23.362       11.199       10.978        8.253      125.418      120.526       68.116        0.620        0.016      107.465        5.845        0.003      338.354       10.948      866.868
11/08/2014  21:22:00      -77.716      -35.721      -19.092       17.573       25.106       15.669      308.816      630.335      245.504        0.443        0.059       85.532        9.688        0.013      338.357       10.954      866.872
11/08/2014  21:23:00      -44.706      -35.730       -5.711       20.382       31.318       18.672      415.416      980.802      348.628        0.253        0.087       57.230       19.448        0.115      338.309       10.873      866.881
11/08/2014  21:24:00      -68.970      -22.387      -13.153       20.977       18.895       14.799      440.018      357.003      219.008        0.322        0.051       72.512       13.020        0.032      338.287       10.835      866.892
11/08/2014  21:25:00      -65.296      -44.328      -17.135       24.817       20.982       15.673      615.871      440.249      245.643        0.391        0.065       78.921        5.742        0.005      338.270       10.808      866.889
11/08/2014  21:26:00      -87.113      -20.805      -16.380       16.163       19.642       12.686      261.234      385.823      160.946        0.455        0.040       89.563       10.968        0.015      338.292       10.845      866.896
11/08/2014  21:27:00      -84.958      -35.685      -16.848       24.556       24.005       14.721      602.990      576.225      216.697        0.509        0.070       92.148       10.473        0.013      338.273       10.812      866.898
11/08/2014  21:28:00      -69.182      -40.384      -19.273       18.390       18.426       16.004      338.201      339.517      256.123        0.386        0.047       80.106        8.284        0.011      338.250       10.775      866.885
11/08/2014  21:29:00      -88.879      -54.196      -18.635       29.380       21.476       17.398      863.157      461.208      302.693        0.641        0.081      104.100        9.904        0.009      338.200       10.690      866.869
11/08/2014  21:30:00      -87.301      -52.906       -2.762       26.774       23.019       15.370      716.847      529.862      236.235        0.596        0.074      102.081       15.487        0.023      338.166       10.631      866.869
11/08/2014  21:31:00      -98.457      -64.527       -6.226       17.374       17.219       13.609      301.857      296.500      185.193        0.734        0.039      117.718        7.657        0.004      338.235       10.747      866.853
11/08/2014  21:32:00      -93.911      -53.703       -4.113       21.234       23.043       15.594      450.885      530.960      243.168        0.647        0.061      108.181       12.809        0.014      338.221       10.724      866.830
11/08/2014  21:33:00     -106.729      -30.373      -14.600       10.829       11.647        8.932      117.259      135.661       79.788        0.643        0.017      110.967        4.641        0.002      338.140       10.589      866.820
11/08/2014  21:34:00      -95.322      -35.728      -10.179       15.892       13.183        7.530      252.558      173.803       56.699        0.547        0.024      101.797        5.595        0.003      338.144       10.596      866.818
11/08/2014  21:35:00     -111.961      -36.397      -15.913       16.793       13.510       11.370      281.991      182.513      129.270        0.735        0.030      117.729        6.809        0.003      338.147       10.598      866.811
11/08/2014  21:36:00     -102.996      -46.424      -12.362       13.432       11.744        9.687      180.406      137.914       93.842        0.666        0.021      112.975        8.017        0.005      338.080       10.488      866.802
11/08/2014  21:37:00     -105.565      -36.270      -10.522       19.284       13.353       11.474      371.876      178.289      131.663        0.663        0.034      111.622        6.705        0.004      338.060       10.455      866.798
11/08/2014  21:38:00      -92.893      -48.061      -10.670       14.348       14.613       12.001      205.852      213.542      144.034        0.581        0.028      104.589        5.865        0.003      338.052       10.441      866.800
11/08/2014  21:39:00     -104.317      -59.722      -11.901       20.393       15.391       11.030      415.862      236.886      121.658        0.768        0.039      120.203        8.550        0.005      338.017       10.383      866.799
11/08/2014  21:40:00      -97.783      -59.636       -6.943       31.796       18.538       16.673     1010.994      343.662      277.998        0.740        0.082      114.534       12.375        0.012      337.992       10.339      866.798
11/08/2014  21:41:00      -96.260      -59.932       -7.346       23.108       20.315       12.911      533.996      412.695      166.684        0.701        0.056      113.393        5.696        0.003      337.967       10.298      866.798
11/08/2014  21:42:00     -105.070      -64.653       -2.715       26.434       18.693       13.080      698.749      349.443      171.097        0.822        0.061      123.368        7.227        0.003      337.934       10.244      866.798
11/08/2014  21:43:00     -118.756      -46.007      -16.086       35.991       16.029       14.387     1295.347      256.918      206.976        0.912        0.088      127.356       15.053        0.014      337.955       10.278      866.795
11/08/2014  21:44:00      -88.410      -45.468       -7.553       30.460       22.543       14.068      927.839      508.177      197.901        0.579        0.082       99.416       13.444        0.018      337.951       10.272      866.786
11/08/2014  21:45:00     -107.330      -65.312       -7.515       21.940       21.035       17.780      481.349      442.480      316.128        0.854        0.062      125.640       15.527        0.015      337.953       10.277      866.782
11/08/2014  21:46:00      -96.197      -58.794       -7.992       29.823       24.098       17.360      889.386      580.713      301.368        0.727        0.089      112.742       13.358        0.014      337.948       10.267      866.777
11/08/2014  21:47:00     -107.798      -62.387      -10.178       14.505       15.960       11.067      210.389      254.725      122.482        0.810        0.029      124.550        8.108        0.004      337.886       10.164      866.768
11/08/2014  21:48:00     -107.142      -61.575      -11.311       23.404       16.653       11.042      547.744      277.324      121.935        0.817        0.047      123.575        6.047        0.002      337.908       10.201      866.749
11/08/2014  21:49:00      -80.571      -61.816       -7.524       30.435       19.391       14.980      926.309      375.992      224.390        0.595        0.076      101.552        5.464        0.003      337.858       10.115      866.738
11/08/2014  21:50:00     -101.052      -57.840       -4.771       28.340       15.820       15.174      803.128      250.276      230.262        0.743        0.064      116.435       14.526        0.016      337.806       10.028      866.742
11/08/2014  21:51:00      -90.856      -53.865       -0.606       35.216       18.494       15.892     1240.163      342.040      252.557        0.650        0.092      105.623       17.737        0.028      337.768        9.965      866.741
11/08/2014  21:52:00      -98.283      -57.827       -4.903       24.894       15.077       14.755      619.692      227.311      217.719        0.705        0.053      114.033       11.736        0.011      337.825       10.061      866.732
11/08/2014  21:53:00      -95.872      -58.407       -0.181       29.142       19.955       20.323      849.233      398.213      413.039        0.713        0.083      112.263       19.245        0.029      337.832       10.074      866.725
11/08/2014  21:54:00      -99.551      -44.753       -4.741       18.566       18.133       11.928      344.699      328.806      142.266        0.638        0.041      109.148        9.151        0.007      337.815       10.044      866.721
11/08/2014  21:55:00     -103.547      -60.096       -4.131       25.283       21.025       16.672      639.249      442.052      277.942        0.785        0.068      119.723       11.097        0.009      337.867       10.131      866.713
11/08/2014  21:56:00      -84.132      -50.451        2.856       32.370       21.834       21.275     1047.825      476.740      452.636        0.580        0.099       98.100       19.080        0.038      337.792       10.005      866.705
11/08/2014  21:57:00      -90.112      -59.891       -3.668       34.629       22.351       15.480     1199.165      499.579      239.635        0.683        0.097      108.200       17.220        0.025      337.810       10.035      866.707
11/08/2014  21:58:00      -70.695      -57.429       -0.360       37.008       21.920       21.196     1369.609      480.502      449.281        0.530        0.115       91.082       17.351        0.036      337.786        9.996      866.712
11/08/2014  21:59:00      -85.701      -57.951       -1.634       35.730       21.712       17.084     1276.654      471.402      291.867        0.637        0.102      103.455       14.897        0.021      337.784        9.992      866.717
11/08/2014  22:00:00      -78.268      -56.909       -0.684       34.792       28.823       21.446     1210.453      830.757      459.917        0.593        0.125       96.770       21.360        0.049      337.719        9.882      866.715
11/08/2014  22:01:00      -98.186      -47.498       -4.149       28.881       19.910       13.815      834.126      396.390      190.842        0.667        0.071      109.072       10.981        0.010      337.746        9.928      866.714
11/08/2014  22:02:00     -112.220      -64.896       -6.949       20.671       15.098       13.823      427.282      227.951      191.085        0.885        0.042      129.634        9.401        0.005      337.770        9.969      866.720
11/08/2014  22:03:00     -107.920      -58.763       -6.652       18.485       20.820       13.739      341.689      433.477      188.760        0.805        0.048      122.882       10.292        0.007      337.732        9.905      866.716
11/08/2014  22:04:00      -97.491      -61.997      -10.595       23.417       15.920       15.601      548.338      253.432      243.376        0.725        0.052      115.534        8.462        0.005      337.709        9.865      866.709
11/08/2014  22:05:00     -102.523      -59.173      -13.454       24.485       20.168       15.878      599.532      406.753      252.120        0.773        0.063      118.374       11.095        0.009      337.688        9.830      866.704
11/08/2014  22:06:00      -90.089      -55.922        0.169       25.197       16.135       15.643      634.902      260.323      244.691        0.619        0.057      106.035       13.923        0.017      337.668        9.797      866.716
11/08/2014  22:07:00      -92.600      -48.982      -11.459       19.699       17.235       13.436      388.041      297.060      180.539        0.599        0.043      104.757        9.144        0.008      337.651        9.769      866.714
11/08/2014  22:08:00      -90.097      -31.465      -10.314       14.746        9.418        8.148      217.441       88.699       66.389        0.479        0.019       95.433        5.941        0.004      337.557        9.610      866.712
11/08/2014  22:09:00     -103.006      -33.059       -7.335       18.684       14.101       12.277      349.082      198.839      150.727        0.623        0.035      108.181       11.276        0.011      337.588        9.663      866.703
11/08/2014  22:10:00      -84.144      -52.796       -4.232       24.331       20.024       14.489      592.012      400.979      209.930        0.554        0.060       99.336       11.250        0.013      337.588        9.664      866.696
11/08/2014  22:11:00      -65.055      -16.224        2.893       22.784       19.241       15.468      519.132      370.210      239.255        0.282        0.056       67.047       11.506        0.029      337.557        9.610      866.691
11/08/2014  22:12:00      -79.134      -28.619      -10.191       35.920       20.777       16.969     1290.239      431.700      287.952        0.460        0.100       84.150       13.639        0.026      337.579        9.649      866.688
11/08/2014  22:13:00      -61.040      -27.884       -2.447       43.256       27.812       16.242     1871.073      773.486      263.814        0.371        0.145       67.107        7.893        0.014      337.586        9.660      866.682
11/08/2014  22:14:00      -26.634      -15.987        8.386       35.258       36.014       23.801     1243.129     1297.042      566.470        0.207        0.155       31.064       25.331        0.665      337.550        9.599      866.686
11/08/2014  22:15:00      -98.172      -62.530       -3.660       33.057       23.951       16.313     1092.790      573.642      266.129        0.775        0.097      116.395       12.534        0.012      337.565        9.624      866.693
11/08/2014  22:16:00     -118.042      -44.384       -7.045       21.800       18.429       12.007      475.227      339.622      144.161        0.846        0.048      126.110        8.511        0.005      337.543        9.588      866.693
11/08/2014  22:17:00      -85.465      -39.641       -0.482       32.752       19.865       15.533     1072.678      394.607      241.265        0.529        0.085       94.210       16.012        0.029      337.572        9.637      866.691
11/08/2014  22:18:00      -50.287      -24.881       -0.603       27.346       19.071       13.359      747.799      363.693      178.467        0.222        0.064       56.106       12.125        0.047      337.601        9.684      866.683
11/08/2014  22:19:00      -77.288      -53.972       -4.881       17.239       24.329       14.377      297.189      591.887      206.710        0.500        0.055       94.268        9.852        0.011      337.693        9.838      866.681
11/08/2014  22:20:00     -106.165      -40.189      -16.530       15.761       17.784       13.122      248.397      316.271      172.190        0.695        0.037      113.517       12.909        0.013      337.717        9.880      866.672
11/08/2014  22:21:00      -77.582      -27.046      -13.885        7.723        9.102       10.199       59.637       82.838      104.011        0.359        0.012       82.161        6.528        0.006      337.667        9.796      866.661
11/08/2014  22:22:00      -73.727      -36.269       -9.213        8.300       13.317        8.954       68.891      177.330       80.175        0.358        0.016       82.166        6.091        0.005      337.670        9.800      866.644
11/08/2014  22:23:00      -83.508      -34.752       -7.025       10.420       14.770        9.660      108.581      218.158       93.321        0.433        0.021       90.451        5.704        0.004      337.685        9.824      866.627
11/08/2014  22:24:00     -113.811      -30.570      -14.162       11.333       11.053        7.787      128.445      122.166       60.633        0.720        0.016      117.845        3.978        0.001      337.673        9.806      866.628
11/08/2014  22:25:00     -115.080      -31.462      -11.720       10.775       10.013        8.030      116.093      100.256       64.474        0.733        0.014      119.303        5.888        0.002      337.624        9.724      866.622
11/08/2014  22:26:00     -115.257      -34.027      -11.529       13.061       10.813        9.074      170.600      116.926       82.339        0.747        0.018      120.175        5.713        0.002      337.618        9.713      866.616
11/08/2014  22:27:00      -98.762      -45.640       -7.311       16.537       19.795       13.878      273.478      391.835      192.611        0.637        0.043      108.797        7.384        0.005      337.612        9.703      866.613
11/08/2014  22:28:00      -87.321      -41.332       -6.067       14.516       17.768       10.451      210.711      315.710      109.220        0.500        0.032       96.609        7.897        0.007      337.623        9.722      866.614
11/08/2014  22:29:00      -85.305      -53.217       -5.497       18.385       14.718       10.308      338.019      216.630      106.260        0.540        0.033      100.544        4.571        0.002      337.624        9.723      866.620
11/08/2014  22:30:00      -75.655      -42.504       -2.265       28.415       20.758       16.352      807.414      430.900      267.389        0.452        0.075       86.777       14.457        0.028      337.613        9.705      866.625
11/08/2014  22:31:00      -76.140      -49.835        2.229       23.672       17.683       16.261      560.349      312.689      264.408        0.471        0.057       90.999       12.872        0.020      337.635        9.742      866.621
11/08/2014  22:32:00      -79.426      -41.704       -3.646       19.778       15.592       15.177      391.170      243.125      230.350        0.446        0.043       89.709        9.777        0.012      337.622        9.721      866.608
11/08/2014  22:33:00      -86.532      -44.512       -9.185       13.296       12.952       10.104      176.771      167.756      102.085        0.500        0.022       97.309        5.381        0.003      337.583        9.654      866.596
11/08/2014  22:34:00      -92.339      -44.596      -12.445        9.510       14.340        8.932       90.445      205.635       79.787        0.552        0.019      102.544        2.920        0.001      337.580        9.652      866.590
11/08/2014  22:35:00      -77.681      -31.922       -9.959        7.570        7.692        4.707       57.301       59.172       22.156        0.365        0.007       83.984        2.107        0.001      337.513        9.540      866.586
11/08/2014  22:36:00      -90.838      -43.851       -8.413       10.060        7.537        8.311      101.204       56.805       69.079        0.524        0.011      100.868        4.657        0.002      337.509        9.530      866.577
11/08/2014  22:37:00      -90.470      -41.543       -6.963       10.164       11.296        8.024      103.303      127.592       64.385        0.513        0.015       99.552        4.712        0.002      337.457        9.443      866.565
11/08/2014  22:38:00      -75.940      -44.929       -5.046       29.032       15.121       11.879      842.855      228.656      141.109        0.451        0.061       88.235        7.556        0.007      337.442        9.418      866.560
11/08/2014  22:39:00      -60.265      -43.309       -2.693       33.509       19.425       17.253     1122.852      377.336      297.677        0.366        0.090       74.212       12.164        0.027      337.436        9.408      866.547
11/08/2014  22:40:00      -83.300      -50.684        0.787       24.904       22.516       16.991      620.234      506.965      288.705        0.546        0.071       97.508       13.711        0.020      337.376        9.308      866.545
11/08/2014  22:41:00      -87.881      -49.216       -2.710       34.539       24.285       18.879     1192.936      589.743      356.399        0.615        0.107      100.724       14.665        0.021      337.364        9.288      866.535
11/08/2014  22:42:00      -94.111      -52.646        1.047       21.720       13.709       13.406      471.745      187.945      179.718        0.623        0.042      107.835       11.540        0.011      337.385        9.323      866.522
11/08/2014  22:43:00      -99.016      -49.294       -1.342       18.084       15.214       15.251      327.032      231.473      232.594        0.651        0.040      110.608       12.608        0.013      337.344        9.254      866.515
11/08/2014  22:44:00      -93.670      -50.276       -1.935       30.150       22.554       13.565      909.007      508.677      184.022        0.645        0.080      106.310       15.062        0.020      337.337        9.243      866.500
11/08/2014  22:45:00      -81.187      -58.810        1.198       33.538       25.838       17.624     1124.770      667.584      310.614        0.608        0.105      100.249       17.341        0.030      337.310        9.198      866.498
11/08/2014  22:46:00      -75.310      -56.126       -0.665       34.910       20.373       18.256     1218.711      415.046      333.273        0.539        0.098       93.924        6.935        0.005      337.310        9.198      866.496
11/08/2014  22:47:00      -97.520      -55.217       -3.357       25.636       16.433       15.873      657.213      270.043      251.964        0.687        0.059      112.067       14.403        0.017      337.330        9.232      866.488
11/08/2014  22:48:00     -100.980      -68.837       -4.517       24.713       18.677       12.606      610.716      348.822      158.907        0.804        0.056      122.211       10.593        0.008      337.319        9.212      866.478
11/08/2014  22:49:00      -56.618      -63.634       -3.893       43.190       36.494       22.364     1865.337     1331.819      500.154        0.548        0.185       85.176       19.319        0.051      337.242        9.084      866.466
11/08/2014  22:50:00     -106.866      -92.470       -6.910       35.549       24.941       20.619     1263.759      622.039      425.155        1.116        0.116      141.319       20.812        0.022      337.296        9.173      866.452
11/08/2014  22:51:00     -103.068      -72.702        0.569       45.133       36.835       25.047     2036.994     1356.786      627.360        0.996        0.201      126.129       27.454        0.047      337.326        9.226      866.444
11/08/2014  22:52:00      -91.561      -69.246        3.625       51.259       43.877       26.868     2627.527     1925.217      721.866        0.923        0.264      114.797       26.213        0.052      337.312        9.201      866.433
11/08/2014  22:53:00     -134.178      -82.074        0.307       50.803       36.476       26.053     2580.899     1330.528      678.772        1.466        0.230      157.289       28.097        0.032      337.330        9.231      866.427
11/08/2014  22:54:00     -125.128      -72.083        3.650       59.207       35.379       27.762     3505.455     1251.693      770.727        1.320        0.276      144.406       32.350        0.050      337.363        9.285      866.421
11/08/2014  22:55:00     -126.587      -72.721        0.293       37.300       27.440       19.002     1391.285      752.959      361.080        1.191        0.125      145.988       17.622        0.015      337.348        9.261      866.416
11/08/2014  22:56:00     -116.973      -66.073       -6.075       42.864       26.988       25.061     1837.284      728.357      628.066        1.064        0.160      134.344       23.222        0.030      337.351        9.266      866.413
11/08/2014  22:57:00     -107.779      -65.139       -2.342       47.395       28.760       24.296     2246.284      827.114      590.317        0.976        0.183      125.934       17.858        0.020      337.339        9.246      866.403
11/08/2014  22:58:00     -123.563      -66.074       -0.825       25.468       26.693       17.382      648.602      712.494      302.138        1.065        0.083      140.120       12.282        0.008      337.357        9.275      866.386
11/08/2014  22:59:00     -113.254      -67.512        2.529       48.780       37.007       26.571     2379.478     1369.489      706.008        1.092        0.223      131.849       26.432        0.040      337.387        9.327      866.379
11/08/2014  23:00:00     -105.498      -51.142        3.021       50.809       33.180       20.679     2581.510     1100.896      427.637        0.893        0.206      117.240       24.835        0.045      337.346        9.257      866.372
11/08/2014  23:01:00      -68.739      -40.781        6.815       38.233       39.186       22.474     1461.736     1535.540      505.090        0.497        0.175       79.926       20.719        0.067      337.328        9.229      866.360
11/08/2014  23:02:00     -111.992      -30.846       -5.958       24.098       21.516       15.068      580.699      462.956      227.037        0.740        0.064      116.163       12.089        0.011      337.355        9.273      866.353
11/08/2014  23:03:00      -81.773      -47.675        4.902       26.496       23.507       13.448      702.061      552.579      180.844        0.521        0.072       94.656       13.757        0.021      337.304        9.187      866.355
11/08/2014  23:04:00     -114.927      -53.562      -10.139       17.521       15.085       11.237      306.978      227.567      126.263        0.842        0.033      126.796        9.306        0.005      337.387        9.325      866.344
11/08/2014  23:05:00     -117.244      -51.945       -0.077       18.463       15.364       15.953      340.892      236.048      254.496        0.864        0.042      128.236       11.095        0.007      337.349        9.262      866.325
11/08/2014  23:06:00     -101.383      -42.149        1.081       33.015       26.158       18.662     1090.008      684.235      348.283        0.709        0.106      109.796       20.941        0.036      337.331        9.234      866.306
11/08/2014  23:07:00      -97.051      -35.494        1.964       30.066       20.844       15.083      903.937      434.469      227.483        0.612        0.078      103.338       14.002        0.018      337.315        9.206      866.300
11/08/2014  23:08:00     -105.679      -37.912        1.817       23.725       21.753       16.150      562.898      473.209      260.808        0.695        0.065      112.273       14.839        0.017      337.361        9.283      866.291
11/08/2014  23:09:00      -92.806      -35.098        1.303       23.650       19.869       13.133      559.301      394.772      172.488        0.549        0.056       99.221       12.548        0.016      337.407        9.359      866.284
11/08/2014  23:10:00     -104.133      -28.791       -1.368       23.671       15.445       14.747      560.337      238.559      217.463        0.635        0.051      108.040       13.044        0.015      337.399        9.346      866.285
11/08/2014  23:11:00      -99.157      -30.608       -1.077       21.812       19.175       12.962      475.783      367.678      168.004        0.589        0.051      103.773        9.663        0.009      337.390        9.332      866.290
11/08/2014  23:12:00     -104.791      -22.794       -8.709       22.292       18.358       18.043      496.927      337.028      325.533        0.637        0.058      107.242       15.222        0.020      337.365        9.290      866.293
11/08/2014  23:13:00     -103.621      -25.116       -7.950       26.854       15.656       13.043      721.123      245.115      170.128        0.628        0.057      106.622       10.812        0.010      337.306        9.192      866.286
11/08/2014  23:14:00     -129.368       -9.418      -11.531       16.159       11.355       11.107      261.122      128.946      123.364        0.874        0.026      129.710        8.098        0.004      337.350        9.264      866.300
11/08/2014  23:15:00     -105.063      -10.154       -8.406       37.042       22.059       17.276     1372.099      486.615      298.476        0.668        0.108      105.552       19.886        0.035      337.258        9.112      866.304
11/08/2014  23:16:00      -87.322      -11.452       -5.568       39.307       22.433       13.717     1545.009      503.230      188.143        0.501        0.112       88.070       18.623        0.045      337.241        9.082      866.301
11/08/2014  23:17:00      -94.127      -30.765      -10.737       19.020       18.069       12.763      361.772      326.471      162.903        0.539        0.043       99.027       10.787        0.012      337.209        9.029      866.293
11/08/2014  23:18:00      -85.315      -46.705      -14.597       16.824       13.861       10.841      283.053      192.132      117.524        0.513        0.030       97.263        8.437        0.008      337.231        9.065      866.277
11/08/2014  23:19:00      -92.722      -40.404      -15.820       15.520       14.168        8.544      240.879      200.730       72.994        0.550        0.026      101.143        5.484        0.003      337.278        9.145      866.261
11/08/2014  23:20:00     -101.375      -28.578      -20.833        9.304       15.349        9.046       86.557      235.593       81.822        0.597        0.020      105.326        6.012        0.003      337.302        9.184      866.247
11/08/2014  23:21:00     -115.518      -24.162      -20.936        8.312        8.914        6.659       69.086       79.454       44.347        0.728        0.010      118.017        2.878        0.001      337.282        9.151      866.229
11/08/2014  23:22:00     -106.338      -17.926      -20.159       18.033       10.909       10.887      325.185      119.012      118.521        0.630        0.028      107.838        8.193        0.006      337.235        9.073      866.213
11/08/2014  23:23:00     -100.684      -20.820      -13.757       13.955       12.409       11.846      194.734      153.976      140.318        0.562        0.024      102.814        9.609        0.009      337.175        8.972      866.196
11/08/2014  23:24:00      -95.127      -27.022      -14.805       11.389       16.162       11.711      129.709      261.212      137.149        0.526        0.026       98.890       10.809        0.012      337.084        8.819      866.186
11/08/2014  23:25:00      -87.181      -14.074      -13.430        8.778        9.296        8.059       77.055       86.415       64.942        0.410        0.011       88.310        5.581        0.004      337.029        8.726      866.182
11/08/2014  23:26:00      -75.475      -11.739      -14.047       13.862       11.554        7.827      192.147      133.501       61.261        0.321        0.019       76.382        5.579        0.005      337.025        8.718      866.171
11/08/2014  23:27:00      -58.480      -21.376       -3.100       14.130       19.873       13.734      199.666      394.923      188.617        0.233        0.039       62.265       10.049        0.026      336.978        8.641      866.162
11/08/2014  23:28:00      -57.091      -18.462      -12.398       15.941       16.346        7.403      254.112      267.187       54.805        0.216        0.029       60.002        5.686        0.009      336.984        8.652      866.148
11/08/2014  23:29:00      -66.793      -12.163       -9.266       11.920       12.239       10.615      142.088      149.789      112.684        0.255        0.020       67.891        7.187        0.011      337.003        8.683      866.135
11/08/2014  23:30:00      -83.923      -17.648      -14.906       11.724       11.621        8.243      137.463      135.038       67.947        0.396        0.017       85.759        4.584        0.003      336.996        8.671      866.123
11/08/2014  23:31:00      -89.671      -18.559      -10.490       16.332       13.196       13.253      266.726      174.144      175.650        0.456        0.031       91.571        9.676        0.011      336.896        8.505      866.121
11/08/2014  23:32:00      -81.415      -25.134      -11.820       21.058       22.373       15.704      443.434      500.534      246.624        0.430        0.060       85.207       13.381        0.025      336.900        8.512      866.115
11/08/2014  23:33:00      -85.876      -16.714      -15.363       28.752       17.039       15.566      826.680      290.321      242.314        0.462        0.068       87.487       15.543        0.032      336.866        8.454      866.100
11/08/2014  23:34:00      -61.247      -12.547       -8.785       24.354       14.592       15.646      593.116      212.932      244.800        0.252        0.053       62.519       15.973        0.065      336.832        8.399      866.080
11/08/2014  23:35:00      -77.072       -6.717      -13.882       16.296       10.916       11.144      265.547      119.164      124.193        0.334        0.025       77.364        8.703        0.013      336.945        8.587      866.067
11/08/2014  23:36:00      -49.951      -10.727       -7.910       14.796        8.873        7.801      218.930       78.731       60.859        0.152        0.018       51.090        7.026        0.019      336.936        8.571      866.059
11/08/2014  23:37:00      -56.508      -20.474       -7.885       12.602       14.026        9.812      158.804      196.731       96.285        0.206        0.023       60.102        9.759        0.026      336.960        8.610      866.064
11/08/2014  23:38:00      -66.714      -41.239       -9.394       12.743       11.227        8.329      162.381      126.041       69.366        0.330        0.018       78.431        4.770        0.004      336.930        8.562      866.060
11/08/2014  23:39:00      -74.802      -40.506      -10.853       23.227       12.088        9.749      539.473      146.132       95.044        0.407        0.039       85.065        7.858        0.009      336.909        8.526      866.062
11/08/2014  23:40:00     -103.754      -48.344       -8.240       19.001       12.194        9.086      361.042      148.686       82.555        0.688        0.030      114.464        5.643        0.002      336.859        8.442      866.066
11/08/2014  23:41:00      -98.664      -48.340      -13.864       14.949       16.537       12.842      223.477      273.471      164.911        0.646        0.033      109.870        8.380        0.006      336.870        8.461      866.072
11/08/2014  23:42:00      -67.985      -63.383        2.011       33.158       34.157       19.575     1099.451     1166.680      383.187        0.565        0.132       92.949       15.776        0.029      336.870        8.463      866.081
11/08/2014  23:43:00      -52.258      -60.270        5.648       34.957       25.640       21.182     1221.992      657.406      448.671        0.436        0.116       79.771       18.100        0.051      336.864        8.451      866.084
11/08/2014  23:44:00      -34.406      -58.035        6.036       32.039       23.046       23.250     1026.511      531.112      540.584        0.334        0.105       67.467       18.425        0.075      336.890        8.495      866.074
11/08/2014  23:45:00      -70.968      -52.054       -7.915       10.527       13.482       11.187      110.811      181.757      125.142        0.411        0.021       88.012        6.058        0.005      336.956        8.604      866.061
11/08/2014  23:46:00      -48.558      -43.108       -9.074       34.087       21.760       13.205     1161.919      473.481      174.373        0.305        0.090       64.933        6.990        0.012      336.896        8.505      866.052
11/08/2014  23:47:00      -35.111      -28.122        3.438       30.486       18.223       16.018      929.408      332.078      256.577        0.178        0.076       44.985       15.406        0.117      336.869        8.461      866.062
11/08/2014  23:48:00      -64.757      -53.543       -0.443       29.968       25.106       19.111      898.092      630.291      365.232        0.448        0.095       84.026       15.226        0.033      336.806        8.355      866.060
11/08/2014  23:49:00      -88.694      -50.240        1.829       39.914       24.026       20.417     1593.093      577.249      416.860        0.649        0.129      101.935       17.479        0.029      336.806        8.356      866.059
11/08/2014  23:50:00     -112.809      -61.895       -3.691       24.103       20.810       14.516      580.949      433.072      210.700        0.890        0.061      128.674       10.343        0.006      336.828        8.391      866.059
11/08/2014  23:51:00     -111.021      -57.556       -6.550       22.545       17.421       14.166      508.279      303.506      200.673        0.835        0.051      125.054        7.166        0.003      336.853        8.434      866.066
11/08/2014  23:52:00     -105.069      -52.094       -2.915       25.223       19.203       13.892      636.207      368.772      192.974        0.748        0.060      117.274       12.032        0.011      336.779        8.312      866.066
11/08/2014  23:53:00     -110.782      -34.286       -4.017       18.100       18.313       11.633      327.616      335.361      135.333        0.713        0.040      115.967        8.682        0.006      336.778        8.310      866.062
11/08/2014  23:54:00     -100.692      -31.252        0.678       23.592       18.411       15.148      556.578      338.982      229.464        0.612        0.056      105.431       13.714        0.017      336.752        8.266      866.054
11/08/2014  23:55:00      -97.834      -34.710        1.376       24.966       23.001       13.770      623.301      529.054      189.605        0.606        0.067      103.808       14.105        0.018      336.768        8.293      866.043
11/08/2014  23:56:00     -102.276      -33.136       -4.437       20.793       13.802       11.609      432.354      190.483      134.761        0.617        0.038      107.510        9.572        0.008      336.780        8.312      866.038
11/08/2014  23:57:00     -102.936      -35.739       -5.101       15.447       14.590       10.252      238.604      212.882      105.104        0.623        0.028      108.964        7.022        0.004      336.759        8.277      866.042
11/08/2014  23:58:00     -103.224      -40.986      -11.550       13.300       12.459        9.359      176.886      155.228       87.592        0.644        0.021      111.064        8.380        0.006      336.766        8.289      866.036
11/08/2014  23:59:00      -94.666      -33.753       -9.692       16.747       16.183       10.118      280.455      261.895      102.373        0.542        0.032      100.503        9.642        0.009      336.710        8.196      866.028
